<?xml version="1.0" encoding="UTF-8" standalone="no" ?>
<gpx xmlns="http://www.topografix.com/GPX/1/1" xmlns:xsi="http://www.w3.org/2001/XMLSchema-instance" xsi:schemaLocation="http://www.topografix.com/GPX/1/1 http://www.topografix.com/GPX/1/1/gpx.xsd" version="1.1" creator="VisuGPX - https://www.visugpx.com">
  <metadata>
    <name>Crap sogn Gion</name>
  </metadata>
  <trk>
    <name><![CDATA[Crap sogn Gion]]></name>
    <extensions>
      <line xmlns="http://www.topografix.com/GPX/gpx_style/0/2">
        <color>0000FF</color>
        <width>4</width>
      </line>
    </extensions>
    <trkseg>
      <trkpt lat="46.86166" lon="9.23065">
        <ele>2133.93</ele>
        <time>2021-07-23T06:45:00.000Z</time>
      </trkpt>
      <trkpt lat="46.86165" lon="9.23065">
        <ele>2133.93</ele>
        <time>2021-07-23T06:45:01.251Z</time>
      </trkpt>
      <trkpt lat="46.86165" lon="9.23066">
        <ele>2133.73</ele>
        <time>2021-07-23T06:45:01.437Z</time>
      </trkpt>
      <trkpt lat="46.86169" lon="9.23058">
        <ele>2134.13</ele>
        <time>2021-07-23T06:45:18.705Z</time>
      </trkpt>
      <trkpt lat="46.86173" lon="9.23048">
        <ele>2134.6200000025</ele>
        <time>2021-07-23T06:45:39.298Z</time>
      </trkpt>
      <trkpt lat="46.86175" lon="9.23043">
        <ele>2134.8799999919</ele>
        <time>2021-07-23T06:45:49.878Z</time>
      </trkpt>
      <trkpt lat="46.86179" lon="9.23033">
        <ele>2135.4099999735</ele>
        <time>2021-07-23T06:46:11.237Z</time>
      </trkpt>
      <trkpt lat="46.86186" lon="9.22998">
        <ele>2136.9700000019</ele>
        <time>2021-07-23T06:47:16.381Z</time>
      </trkpt>
      <trkpt lat="46.8619" lon="9.22986">
        <ele>2138.29</ele>
        <time>2021-07-23T06:48:04.658Z</time>
      </trkpt>
      <trkpt lat="46.86195" lon="9.22975">
        <ele>2139.84</ele>
        <time>2021-07-23T06:48:52.424Z</time>
      </trkpt>
      <trkpt lat="46.86201" lon="9.2296">
        <ele>2142.06</ele>
        <time>2021-07-23T06:49:55.268Z</time>
      </trkpt>
      <trkpt lat="46.86202" lon="9.22957">
        <ele>2142.5299999739</ele>
        <time>2021-07-23T06:50:07.337Z</time>
      </trkpt>
      <trkpt lat="46.86205" lon="9.22948">
        <ele>2143.6099999898</ele>
        <time>2021-07-23T06:50:43.545Z</time>
      </trkpt>
      <trkpt lat="46.86206" lon="9.22938">
        <ele>2144.23</ele>
        <time>2021-07-23T06:51:05.941Z</time>
      </trkpt>
      <trkpt lat="46.86213" lon="9.22902">
        <ele>2147.1500000562</ele>
        <time>2021-07-23T06:52:51.729Z</time>
      </trkpt>
      <trkpt lat="46.86217" lon="9.22883">
        <ele>2148.92</ele>
        <time>2021-07-23T06:54:00.421Z</time>
      </trkpt>
      <trkpt lat="46.86222" lon="9.22869">
        <ele>2149.8100000082</ele>
        <time>2021-07-23T06:54:33.295Z</time>
      </trkpt>
      <trkpt lat="46.86224" lon="9.22863">
        <ele>2149.9599999977</ele>
        <time>2021-07-23T06:54:42.248Z</time>
      </trkpt>
      <trkpt lat="46.86229" lon="9.22853">
        <ele>2150.25</ele>
        <time>2021-07-23T06:54:59.169Z</time>
      </trkpt>
      <trkpt lat="46.86235" lon="9.22837">
        <ele>2150.4700000022</ele>
        <time>2021-07-23T06:55:19.573Z</time>
      </trkpt>
      <trkpt lat="46.8624" lon="9.22821">
        <ele>2150.6900000316</ele>
        <time>2021-07-23T06:55:39.385Z</time>
      </trkpt>
      <trkpt lat="46.86243" lon="9.22813">
        <ele>2151.56</ele>
        <time>2021-07-23T06:56:12.380Z</time>
      </trkpt>
      <trkpt lat="46.86245" lon="9.22809">
        <ele>2152.02</ele>
        <time>2021-07-23T06:56:30.300Z</time>
      </trkpt>
      <trkpt lat="46.8625" lon="9.22797">
        <ele>2153.35</ele>
        <time>2021-07-23T06:57:21.117Z</time>
      </trkpt>
      <trkpt lat="46.8627" lon="9.22768">
        <ele>2157.5600000013</ele>
        <time>2021-07-23T06:59:50.066Z</time>
      </trkpt>
      <trkpt lat="46.86274" lon="9.22759">
        <ele>2158.2200000246</ele>
        <time>2021-07-23T07:00:13.897Z</time>
      </trkpt>
      <trkpt lat="46.86274" lon="9.22757">
        <ele>2158.3799999839</ele>
        <time>2021-07-23T07:00:19.742Z</time>
      </trkpt>
      <trkpt lat="46.86277" lon="9.22747">
        <ele>2159.33</ele>
        <time>2021-07-23T07:00:55.982Z</time>
      </trkpt>
      <trkpt lat="46.8628" lon="9.22738">
        <ele>2160.44</ele>
        <time>2021-07-23T07:01:32.190Z</time>
      </trkpt>
      <trkpt lat="46.86285" lon="9.22728">
        <ele>2161.77</ele>
        <time>2021-07-23T07:02:16.989Z</time>
      </trkpt>
      <trkpt lat="46.86286" lon="9.22727">
        <ele>2162.09</ele>
        <time>2021-07-23T07:02:23.395Z</time>
      </trkpt>
      <trkpt lat="46.86291" lon="9.22722">
        <ele>2163.54</ele>
        <time>2021-07-23T07:02:55.430Z</time>
      </trkpt>
      <trkpt lat="46.86294" lon="9.2272">
        <ele>2164.32</ele>
        <time>2021-07-23T07:03:12.867Z</time>
      </trkpt>
      <trkpt lat="46.86298" lon="9.22718">
        <ele>2165.3099999532</ele>
        <time>2021-07-23T07:03:35.224Z</time>
      </trkpt>
      <trkpt lat="46.86317" lon="9.22709">
        <ele>2169.74</ele>
        <time>2021-07-23T07:05:20.849Z</time>
      </trkpt>
      <trkpt lat="46.86326" lon="9.22701">
        <ele>2171.9500000656</ele>
        <time>2021-07-23T07:06:16.550Z</time>
      </trkpt>
      <trkpt lat="46.86333" lon="9.22691">
        <ele>2173.72</ele>
        <time>2021-07-23T07:07:08.302Z</time>
      </trkpt>
      <trkpt lat="46.86338" lon="9.22682">
        <ele>2175.4999999611</ele>
        <time>2021-07-23T07:07:50.236Z</time>
      </trkpt>
      <trkpt lat="46.86343" lon="9.22669">
        <ele>2177.4899999214</ele>
        <time>2021-07-23T07:08:44.173Z</time>
      </trkpt>
      <trkpt lat="46.86349" lon="9.22655">
        <ele>2180.1399999485</ele>
        <time>2021-07-23T07:09:43.922Z</time>
      </trkpt>
      <trkpt lat="46.86354" lon="9.2264">
        <ele>2182.5</ele>
        <time>2021-07-23T07:10:44.266Z</time>
      </trkpt>
      <trkpt lat="46.86358" lon="9.22633">
        <ele>2184.21</ele>
        <time>2021-07-23T07:11:17.256Z</time>
      </trkpt>
      <trkpt lat="46.86362" lon="9.22625">
        <ele>2185.49</ele>
        <time>2021-07-23T07:11:53.094Z</time>
      </trkpt>
      <trkpt lat="46.86367" lon="9.22621">
        <ele>2186.84</ele>
        <time>2021-07-23T07:12:23.236Z</time>
      </trkpt>
      <trkpt lat="46.86376" lon="9.22614">
        <ele>2189.11</ele>
        <time>2021-07-23T07:13:17.147Z</time>
      </trkpt>
      <trkpt lat="46.86383" lon="9.22608">
        <ele>2189.8200000054</ele>
        <time>2021-07-23T07:13:42.938Z</time>
      </trkpt>
      <trkpt lat="46.86388" lon="9.22602">
        <ele>2190.18</ele>
        <time>2021-07-23T07:13:59.042Z</time>
      </trkpt>
      <trkpt lat="46.86393" lon="9.22595">
        <ele>2191.4600000518</ele>
        <time>2021-07-23T07:14:35.648Z</time>
      </trkpt>
      <trkpt lat="46.86396" lon="9.22589">
        <ele>2192.1</ele>
        <time>2021-07-23T07:14:59.896Z</time>
      </trkpt>
      <trkpt lat="46.86403" lon="9.22579">
        <ele>2193.24</ele>
        <time>2021-07-23T07:15:41.473Z</time>
      </trkpt>
      <trkpt lat="46.86405" lon="9.22573">
        <ele>2193.95</ele>
        <time>2021-07-23T07:16:05.611Z</time>
      </trkpt>
      <trkpt lat="46.86406" lon="9.22568">
        <ele>2194.37</ele>
        <time>2021-07-23T07:16:20.997Z</time>
      </trkpt>
      <trkpt lat="46.86407" lon="9.22561">
        <ele>2195.1600000208</ele>
        <time>2021-07-23T07:16:46.857Z</time>
      </trkpt>
      <trkpt lat="46.86408" lon="9.22554">
        <ele>2195.8699999429</ele>
        <time>2021-07-23T07:17:12.716Z</time>
      </trkpt>
      <trkpt lat="46.86406" lon="9.22543">
        <ele>2197.01</ele>
        <time>2021-07-23T07:17:53.875Z</time>
      </trkpt>
      <trkpt lat="46.86404" lon="9.22532">
        <ele>2199.14</ele>
        <time>2021-07-23T07:18:35.035Z</time>
      </trkpt>
      <trkpt lat="46.86403" lon="9.22522">
        <ele>2200.56</ele>
        <time>2021-07-23T07:19:11.581Z</time>
      </trkpt>
      <trkpt lat="46.86403" lon="9.22518">
        <ele>2200.950000013</ele>
        <time>2021-07-23T07:19:26.045Z</time>
      </trkpt>
      <trkpt lat="46.86403" lon="9.22517">
        <ele>2201.06</ele>
        <time>2021-07-23T07:19:29.661Z</time>
      </trkpt>
      <trkpt lat="46.86404" lon="9.22513">
        <ele>2201.77</ele>
        <time>2021-07-23T07:19:45.062Z</time>
      </trkpt>
      <trkpt lat="46.86405" lon="9.2251">
        <ele>2202.2</ele>
        <time>2021-07-23T07:19:57.131Z</time>
      </trkpt>
      <trkpt lat="46.86409" lon="9.22508">
        <ele>2202.9799999456</ele>
        <time>2021-07-23T07:20:19.488Z</time>
      </trkpt>
      <trkpt lat="46.86419" lon="9.22509">
        <ele>2205.5000000007</ele>
        <time>2021-07-23T07:21:12.499Z</time>
      </trkpt>
      <trkpt lat="46.86423" lon="9.22509">
        <ele>2206.05</ele>
        <time>2021-07-23T07:21:33.654Z</time>
      </trkpt>
      <trkpt lat="46.86431" lon="9.22504">
        <ele>2207.6</ele>
        <time>2021-07-23T07:22:19.666Z</time>
      </trkpt>
      <trkpt lat="46.86436" lon="9.22495">
        <ele>2208.9300000425</ele>
        <time>2021-07-23T07:23:01.599Z</time>
      </trkpt>
      <trkpt lat="46.86436" lon="9.22484">
        <ele>2210.04</ele>
        <time>2021-07-23T07:23:41.376Z</time>
      </trkpt>
      <trkpt lat="46.86435" lon="9.22474">
        <ele>2211.14</ele>
        <time>2021-07-23T07:24:17.922Z</time>
      </trkpt>
      <trkpt lat="46.86436" lon="9.22461">
        <ele>2212.03</ele>
        <time>2021-07-23T07:24:49.661Z</time>
      </trkpt>
      <trkpt lat="46.86438" lon="9.22447">
        <ele>2213.36</ele>
        <time>2021-07-23T07:25:41.379Z</time>
      </trkpt>
      <trkpt lat="46.8644" lon="9.22432">
        <ele>2214.2500000161</ele>
        <time>2021-07-23T07:26:13.935Z</time>
      </trkpt>
      <trkpt lat="46.86441" lon="9.22418">
        <ele>2214.69</ele>
        <time>2021-07-23T07:26:36.380Z</time>
      </trkpt>
      <trkpt lat="46.8644" lon="9.22405">
        <ele>2215.13</ele>
        <time>2021-07-23T07:26:57.712Z</time>
      </trkpt>
      <trkpt lat="46.86438" lon="9.22397">
        <ele>2215.13</ele>
        <time>2021-07-23T07:27:05.697Z</time>
      </trkpt>
      <trkpt lat="46.86435" lon="9.2238">
        <ele>2215.13</ele>
        <time>2021-07-23T07:27:22.157Z</time>
      </trkpt>
      <trkpt lat="46.86431" lon="9.2236">
        <ele>2214.8700000068</ele>
        <time>2021-07-23T07:27:27.751Z</time>
      </trkpt>
      <trkpt lat="46.86427" lon="9.22339">
        <ele>2215.0400000011</ele>
        <time>2021-07-23T07:27:50.572Z</time>
      </trkpt>
      <trkpt lat="46.86426" lon="9.22333">
        <ele>2215.180000037</ele>
        <time>2021-07-23T07:27:58.887Z</time>
      </trkpt>
      <trkpt lat="46.86427" lon="9.22331">
        <ele>2215.3500000289</ele>
        <time>2021-07-23T07:28:04.948Z</time>
      </trkpt>
      <trkpt lat="46.86427" lon="9.22329">
        <ele>2215.46</ele>
        <time>2021-07-23T07:28:09.044Z</time>
      </trkpt>
      <trkpt lat="46.8643" lon="9.22323">
        <ele>2216.0299999499</ele>
        <time>2021-07-23T07:28:29.600Z</time>
      </trkpt>
      <trkpt lat="46.86434" lon="9.22318">
        <ele>2216.6</ele>
        <time>2021-07-23T07:28:50.019Z</time>
      </trkpt>
      <trkpt lat="46.86447" lon="9.2231">
        <ele>2218.45</ele>
        <time>2021-07-23T07:30:02.248Z</time>
      </trkpt>
      <trkpt lat="46.86464" lon="9.22296">
        <ele>2220.2200000121</ele>
        <time>2021-07-23T07:31:06.047Z</time>
      </trkpt>
      <trkpt lat="46.86474" lon="9.22282">
        <ele>2220.6699999899</ele>
        <time>2021-07-23T07:31:33.076Z</time>
      </trkpt>
      <trkpt lat="46.86479" lon="9.22274">
        <ele>2220.4400000067</ele>
        <time>2021-07-23T07:31:35.599Z</time>
      </trkpt>
      <trkpt lat="46.86482" lon="9.22262">
        <ele>2220.67</ele>
        <time>2021-07-23T07:31:51.384Z</time>
      </trkpt>
      <trkpt lat="46.86482" lon="9.22251">
        <ele>2221.11</ele>
        <time>2021-07-23T07:32:10.480Z</time>
      </trkpt>
      <trkpt lat="46.86483" lon="9.22227">
        <ele>2222.22</ele>
        <time>2021-07-23T07:32:55.006Z</time>
      </trkpt>
      <trkpt lat="46.86485" lon="9.22199">
        <ele>2223.5000000049</ele>
        <time>2021-07-23T07:33:46.749Z</time>
      </trkpt>
      <trkpt lat="46.86486" lon="9.22186">
        <ele>2223.99</ele>
        <time>2021-07-23T07:34:08.887Z</time>
      </trkpt>
      <trkpt lat="46.86487" lon="9.22169">
        <ele>2224.65</ele>
        <time>2021-07-23T07:34:38.116Z</time>
      </trkpt>
      <trkpt lat="46.86485" lon="9.22154">
        <ele>2226.2</ele>
        <time>2021-07-23T07:35:33.379Z</time>
      </trkpt>
      <trkpt lat="46.86484" lon="9.22148">
        <ele>2226.6099999634</ele>
        <time>2021-07-23T07:35:48.021Z</time>
      </trkpt>
      <trkpt lat="46.86482" lon="9.22133">
        <ele>2227.529999959</ele>
        <time>2021-07-23T07:36:21.392Z</time>
      </trkpt>
      <trkpt lat="46.8648" lon="9.22113">
        <ele>2229.08</ele>
        <time>2021-07-23T07:37:17.292Z</time>
      </trkpt>
      <trkpt lat="46.86481" lon="9.22095">
        <ele>2230.41</ele>
        <time>2021-07-23T07:38:04.898Z</time>
      </trkpt>
      <trkpt lat="46.86483" lon="9.22073">
        <ele>2231.9600000095</ele>
        <time>2021-07-23T07:39:00.161Z</time>
      </trkpt>
      <trkpt lat="46.86483" lon="9.22056">
        <ele>2232.62</ele>
        <time>2021-07-23T07:39:29.324Z</time>
      </trkpt>
      <trkpt lat="46.86483" lon="9.22048">
        <ele>2233.1899999696</ele>
        <time>2021-07-23T07:39:49.662Z</time>
      </trkpt>
      <trkpt lat="46.86484" lon="9.22027">
        <ele>2234.62</ele>
        <time>2021-07-23T07:40:40.662Z</time>
      </trkpt>
      <trkpt lat="46.86484" lon="9.22017">
        <ele>2235.22</ele>
        <time>2021-07-23T07:41:02.443Z</time>
      </trkpt>
      <trkpt lat="46.86487" lon="9.21974">
        <ele>2236.84</ele>
        <time>2021-07-23T07:42:15.606Z</time>
      </trkpt>
      <trkpt lat="46.86488" lon="9.21967">
        <ele>2237.33</ele>
        <time>2021-07-23T07:42:33.077Z</time>
      </trkpt>
      <trkpt lat="46.86487" lon="9.21961">
        <ele>2237.56</ele>
        <time>2021-07-23T07:42:43.506Z</time>
      </trkpt>
      <trkpt lat="46.86487" lon="9.21961">
        <ele>2237.56</ele>
        <time>2021-07-23T07:42:43.506Z</time>
      </trkpt>
      <trkpt lat="46.86484" lon="9.21955">
        <ele>2237.920000007</ele>
        <time>2021-07-23T07:42:57.617Z</time>
      </trkpt>
      <trkpt lat="46.86481" lon="9.21951">
        <ele>2238</ele>
        <time>2021-07-23T07:43:04.410Z</time>
      </trkpt>
      <trkpt lat="46.86474" lon="9.21948">
        <ele>2238.9600000158</ele>
        <time>2021-07-23T07:43:41.996Z</time>
      </trkpt>
      <trkpt lat="46.86472" lon="9.21947">
        <ele>2239.0999999797</ele>
        <time>2021-07-23T07:43:47.667Z</time>
      </trkpt>
      <trkpt lat="46.86461" lon="9.21942">
        <ele>2239.71</ele>
        <time>2021-07-23T07:44:15.830Z</time>
      </trkpt>
      <trkpt lat="46.86448" lon="9.21935">
        <ele>2240.82</ele>
        <time>2021-07-23T07:44:57.212Z</time>
      </trkpt>
      <trkpt lat="46.86444" lon="9.21932">
        <ele>2241.2699999694</ele>
        <time>2021-07-23T07:45:13.257Z</time>
      </trkpt>
      <trkpt lat="46.86421" lon="9.21916">
        <ele>2243.69</ele>
        <time>2021-07-23T07:46:39.867Z</time>
      </trkpt>
      <trkpt lat="46.86414" lon="9.2191">
        <ele>2244.14</ele>
        <time>2021-07-23T07:47:00.042Z</time>
      </trkpt>
      <trkpt lat="46.86411" lon="9.21899">
        <ele>2244.6800000033</ele>
        <time>2021-07-23T07:47:21.839Z</time>
      </trkpt>
      <trkpt lat="46.86411" lon="9.21891">
        <ele>2244.8299999903</ele>
        <time>2021-07-23T07:47:31.855Z</time>
      </trkpt>
      <trkpt lat="46.86408" lon="9.21884">
        <ele>2244.83</ele>
        <time>2021-07-23T07:47:39.600Z</time>
      </trkpt>
      <trkpt lat="46.86406" lon="9.21877">
        <ele>2244.76</ele>
        <time>2021-07-23T07:47:41.759Z</time>
      </trkpt>
      <trkpt lat="46.86403" lon="9.21862">
        <ele>2244.68</ele>
        <time>2021-07-23T07:47:46.575Z</time>
      </trkpt>
      <trkpt lat="46.864" lon="9.21853">
        <ele>2244.68</ele>
        <time>2021-07-23T07:47:55.962Z</time>
      </trkpt>
      <trkpt lat="46.86395" lon="9.21841">
        <ele>2244.9699999963</ele>
        <time>2021-07-23T07:48:14.170Z</time>
      </trkpt>
      <trkpt lat="46.86388" lon="9.21828">
        <ele>2244.97</ele>
        <time>2021-07-23T07:48:29.684Z</time>
      </trkpt>
      <trkpt lat="46.86379" lon="9.21814">
        <ele>2244.6399999927</ele>
        <time>2021-07-23T07:48:34.450Z</time>
      </trkpt>
      <trkpt lat="46.86371" lon="9.21802">
        <ele>2243.0299999681</ele>
        <time>2021-07-23T07:48:37.559Z</time>
      </trkpt>
      <trkpt lat="46.86366" lon="9.21792">
        <ele>2242.340000034</ele>
        <time>2021-07-23T07:48:39.856Z</time>
      </trkpt>
      <trkpt lat="46.86361" lon="9.2178">
        <ele>2243.2600000355</ele>
        <time>2021-07-23T07:49:12.754Z</time>
      </trkpt>
      <trkpt lat="46.86358" lon="9.21769">
        <ele>2243.9499999885</ele>
        <time>2021-07-23T07:49:37.991Z</time>
      </trkpt>
      <trkpt lat="46.86353" lon="9.21741">
        <ele>2244.64</ele>
        <time>2021-07-23T07:50:17.855Z</time>
      </trkpt>
      <trkpt lat="46.8635" lon="9.2171">
        <ele>2245.56</ele>
        <time>2021-07-23T07:51:06.264Z</time>
      </trkpt>
      <trkpt lat="46.8635" lon="9.21687">
        <ele>2244.8699999816</ele>
        <time>2021-07-23T07:51:10.988Z</time>
      </trkpt>
      <trkpt lat="46.8635" lon="9.21667">
        <ele>2243.9500000025</ele>
        <time>2021-07-23T07:51:14.698Z</time>
      </trkpt>
      <trkpt lat="46.86352" lon="9.21642">
        <ele>2242.3399999799</ele>
        <time>2021-07-23T07:51:19.366Z</time>
      </trkpt>
      <trkpt lat="46.86352" lon="9.2162">
        <ele>2241.65</ele>
        <time>2021-07-23T07:51:23.804Z</time>
      </trkpt>
      <trkpt lat="46.86349" lon="9.21609">
        <ele>2241.19</ele>
        <time>2021-07-23T07:51:25.979Z</time>
      </trkpt>
      <trkpt lat="46.86344" lon="9.21595">
        <ele>2242.11</ele>
        <time>2021-07-23T07:51:59.630Z</time>
      </trkpt>
      <trkpt lat="46.86337" lon="9.21583">
        <ele>2243.0299999827</ele>
        <time>2021-07-23T07:52:33.269Z</time>
      </trkpt>
      <trkpt lat="46.86324" lon="9.21565">
        <ele>2243.72</ele>
        <time>2021-07-23T07:53:11.210Z</time>
      </trkpt>
      <trkpt lat="46.86307" lon="9.21543">
        <ele>2241.4199999866</ele>
        <time>2021-07-23T07:53:17.368Z</time>
      </trkpt>
      <trkpt lat="46.8629" lon="9.21522">
        <ele>2239.58</ele>
        <time>2021-07-23T07:53:23.405Z</time>
      </trkpt>
      <trkpt lat="46.86281" lon="9.21512">
        <ele>2239.35</ele>
        <time>2021-07-23T07:53:27.733Z</time>
      </trkpt>
      <trkpt lat="46.86281" lon="9.21512">
        <ele>2239.35</ele>
        <time>2021-07-23T07:53:27.934Z</time>
      </trkpt>
      <trkpt lat="46.86281" lon="9.21512">
        <ele>2239.35</ele>
        <time>2021-07-23T07:53:27.934Z</time>
      </trkpt>
      <trkpt lat="46.86281" lon="9.21512">
        <ele>2239.35</ele>
        <time>2021-07-23T07:53:28.135Z</time>
      </trkpt>
      <trkpt lat="46.8628" lon="9.2151">
        <ele>2239.1200000836</ele>
        <time>2021-07-23T07:53:28.595Z</time>
      </trkpt>
      <trkpt lat="46.86258" lon="9.21489">
        <ele>2237.7399999901</ele>
        <time>2021-07-23T07:53:35.907Z</time>
      </trkpt>
      <trkpt lat="46.86243" lon="9.21472">
        <ele>2235.9</ele>
        <time>2021-07-23T07:53:41.055Z</time>
      </trkpt>
      <trkpt lat="46.86236" lon="9.2146">
        <ele>2235.6700000031</ele>
        <time>2021-07-23T07:53:45.138Z</time>
      </trkpt>
      <trkpt lat="46.86217" lon="9.21419">
        <ele>2235.8999999919</ele>
        <time>2021-07-23T07:54:34.654Z</time>
      </trkpt>
      <trkpt lat="46.86211" lon="9.21408">
        <ele>2235.4299999955</ele>
        <time>2021-07-23T07:54:37.419Z</time>
      </trkpt>
      <trkpt lat="46.86205" lon="9.21398">
        <ele>2234.9699999815</ele>
        <time>2021-07-23T07:54:39.994Z</time>
      </trkpt>
      <trkpt lat="46.86198" lon="9.21391">
        <ele>2234.29</ele>
        <time>2021-07-23T07:54:42.294Z</time>
      </trkpt>
      <trkpt lat="46.8619" lon="9.21383">
        <ele>2234.0600000107</ele>
        <time>2021-07-23T07:54:45.864Z</time>
      </trkpt>
      <trkpt lat="46.86186" lon="9.21375">
        <ele>2234.29</ele>
        <time>2021-07-23T07:54:59.348Z</time>
      </trkpt>
      <trkpt lat="46.86185" lon="9.21364">
        <ele>2233.83</ele>
        <time>2021-07-23T07:55:01.324Z</time>
      </trkpt>
      <trkpt lat="46.86185" lon="9.21353">
        <ele>2233.13</ele>
        <time>2021-07-23T07:55:03.364Z</time>
      </trkpt>
      <trkpt lat="46.86188" lon="9.21334">
        <ele>2231.0599999433</ele>
        <time>2021-07-23T07:55:06.981Z</time>
      </trkpt>
      <trkpt lat="46.86191" lon="9.2132">
        <ele>2229.68</ele>
        <time>2021-07-23T07:55:09.703Z</time>
      </trkpt>
      <trkpt lat="46.86199" lon="9.21299">
        <ele>2227.15</ele>
        <time>2021-07-23T07:55:14.162Z</time>
      </trkpt>
      <trkpt lat="46.86204" lon="9.21286">
        <ele>2225.5399999441</ele>
        <time>2021-07-23T07:55:16.928Z</time>
      </trkpt>
      <trkpt lat="46.86208" lon="9.21274">
        <ele>2223.7</ele>
        <time>2021-07-23T07:55:19.404Z</time>
      </trkpt>
      <trkpt lat="46.86209" lon="9.21262">
        <ele>2223.01</ele>
        <time>2021-07-23T07:55:21.647Z</time>
      </trkpt>
      <trkpt lat="46.86208" lon="9.21245">
        <ele>2222.09</ele>
        <time>2021-07-23T07:55:24.811Z</time>
      </trkpt>
      <trkpt lat="46.86205" lon="9.21225">
        <ele>2222.09</ele>
        <time>2021-07-23T07:55:44.008Z</time>
      </trkpt>
      <trkpt lat="46.86204" lon="9.21216">
        <ele>2222.09</ele>
        <time>2021-07-23T07:55:52.557Z</time>
      </trkpt>
      <trkpt lat="46.86201" lon="9.21205">
        <ele>2222.78</ele>
        <time>2021-07-23T07:56:17.793Z</time>
      </trkpt>
      <trkpt lat="46.86195" lon="9.21183">
        <ele>2223.24</ele>
        <time>2021-07-23T07:56:47.809Z</time>
      </trkpt>
      <trkpt lat="46.86192" lon="9.21169">
        <ele>2223.7000000121</ele>
        <time>2021-07-23T07:57:11.224Z</time>
      </trkpt>
      <trkpt lat="46.8619" lon="9.21156">
        <ele>2223.93</ele>
        <time>2021-07-23T07:57:27.474Z</time>
      </trkpt>
      <trkpt lat="46.86189" lon="9.21144">
        <ele>2223.93</ele>
        <time>2021-07-23T07:57:38.808Z</time>
      </trkpt>
      <trkpt lat="46.86189" lon="9.21132">
        <ele>2223.4700000044</ele>
        <time>2021-07-23T07:57:41.025Z</time>
      </trkpt>
      <trkpt lat="46.86192" lon="9.21082">
        <ele>2224.17</ele>
        <time>2021-07-23T07:58:38.894Z</time>
      </trkpt>
      <trkpt lat="46.86193" lon="9.21051">
        <ele>2225.5</ele>
        <time>2021-07-23T07:59:34.379Z</time>
      </trkpt>
      <trkpt lat="46.86193" lon="9.2103">
        <ele>2226.04</ele>
        <time>2021-07-23T08:00:04.414Z</time>
      </trkpt>
      <trkpt lat="46.86193" lon="9.21015">
        <ele>2226.26</ele>
        <time>2021-07-23T08:00:21.916Z</time>
      </trkpt>
      <trkpt lat="46.86194" lon="9.20998">
        <ele>2226.26</ele>
        <time>2021-07-23T08:00:37.913Z</time>
      </trkpt>
      <trkpt lat="46.862" lon="9.20929">
        <ele>2226.0999999994</ele>
        <time>2021-07-23T08:01:39.928Z</time>
      </trkpt>
      <trkpt lat="46.862" lon="9.20917">
        <ele>2226.0800000138</ele>
        <time>2021-07-23T08:01:50.773Z</time>
      </trkpt>
      <trkpt lat="46.86202" lon="9.20915">
        <ele>2226.1899999903</ele>
        <time>2021-07-23T08:01:56.412Z</time>
      </trkpt>
      <trkpt lat="46.86204" lon="9.20911">
        <ele>2226.1400000046</ele>
        <time>2021-07-23T08:01:57.800Z</time>
      </trkpt>
      <trkpt lat="46.86209" lon="9.20899">
        <ele>2226.3299999964</ele>
        <time>2021-07-23T08:02:13.889Z</time>
      </trkpt>
      <trkpt lat="46.86212" lon="9.2088">
        <ele>2225.9</ele>
        <time>2021-07-23T08:02:18.372Z</time>
      </trkpt>
      <trkpt lat="46.86213" lon="9.20866">
        <ele>2225.34</ele>
        <time>2021-07-23T08:02:20.928Z</time>
      </trkpt>
      <trkpt lat="46.86213" lon="9.20855">
        <ele>2224.67</ele>
        <time>2021-07-23T08:02:22.969Z</time>
      </trkpt>
      <trkpt lat="46.86211" lon="9.20846">
        <ele>2223.91</ele>
        <time>2021-07-23T08:02:24.724Z</time>
      </trkpt>
      <trkpt lat="46.86209" lon="9.20827">
        <ele>2223.3500000112</ele>
        <time>2021-07-23T08:02:28.719Z</time>
      </trkpt>
      <trkpt lat="46.86207" lon="9.20813">
        <ele>2223.91</ele>
        <time>2021-07-23T08:02:53.337Z</time>
      </trkpt>
      <trkpt lat="46.86207" lon="9.20799">
        <ele>2224.67</ele>
        <time>2021-07-23T08:03:21.762Z</time>
      </trkpt>
      <trkpt lat="46.86208" lon="9.20786">
        <ele>2225.33</ele>
        <time>2021-07-23T08:03:47.167Z</time>
      </trkpt>
      <trkpt lat="46.8621" lon="9.20771">
        <ele>2225.8500000159</ele>
        <time>2021-07-23T08:04:12.182Z</time>
      </trkpt>
      <trkpt lat="46.86213" lon="9.2076">
        <ele>2226.21</ele>
        <time>2021-07-23T08:04:30.912Z</time>
      </trkpt>
      <trkpt lat="46.86213" lon="9.20746">
        <ele>2226.3100000277</ele>
        <time>2021-07-23T08:04:45.427Z</time>
      </trkpt>
      <trkpt lat="46.86212" lon="9.2074">
        <ele>2226.6400000017</ele>
        <time>2021-07-23T08:04:57.841Z</time>
      </trkpt>
      <trkpt lat="46.86214" lon="9.20737">
        <ele>2226.79</ele>
        <time>2021-07-23T08:05:04.817Z</time>
      </trkpt>
      <trkpt lat="46.86216" lon="9.20729">
        <ele>2227.2599999739</ele>
        <time>2021-07-23T08:05:22.297Z</time>
      </trkpt>
      <trkpt lat="46.86216" lon="9.20716">
        <ele>2227.8500000169</ele>
        <time>2021-07-23T08:05:46.170Z</time>
      </trkpt>
      <trkpt lat="46.86216" lon="9.20703">
        <ele>2228.7700000933</ele>
        <time>2021-07-23T08:06:18.984Z</time>
      </trkpt>
      <trkpt lat="46.86217" lon="9.20691">
        <ele>2230.75</ele>
        <time>2021-07-23T08:07:02.700Z</time>
      </trkpt>
      <trkpt lat="46.86217" lon="9.2068">
        <ele>2232.11</ele>
        <time>2021-07-23T08:07:42.478Z</time>
      </trkpt>
      <trkpt lat="46.86216" lon="9.20673">
        <ele>2232.7299999933</ele>
        <time>2021-07-23T08:08:06.075Z</time>
      </trkpt>
      <trkpt lat="46.86215" lon="9.20664">
        <ele>2233.5699999557</ele>
        <time>2021-07-23T08:08:39.048Z</time>
      </trkpt>
      <trkpt lat="46.86215" lon="9.20653">
        <ele>2234.9700000005</ele>
        <time>2021-07-23T08:09:18.827Z</time>
      </trkpt>
      <trkpt lat="46.86216" lon="9.20648">
        <ele>2236.0600000517</ele>
        <time>2021-07-23T08:09:37.665Z</time>
      </trkpt>
      <trkpt lat="46.86216" lon="9.20643">
        <ele>2236.83</ele>
        <time>2021-07-23T08:09:55.747Z</time>
      </trkpt>
      <trkpt lat="46.86215" lon="9.20634">
        <ele>2238.0500000582</ele>
        <time>2021-07-23T08:10:28.720Z</time>
      </trkpt>
      <trkpt lat="46.86214" lon="9.20626">
        <ele>2239.2400001426</ele>
        <time>2021-07-23T08:10:58.129Z</time>
      </trkpt>
      <trkpt lat="46.86216" lon="9.2062">
        <ele>2240.9</ele>
        <time>2021-07-23T08:11:22.267Z</time>
      </trkpt>
      <trkpt lat="46.86215" lon="9.20612">
        <ele>2242.4300000908</ele>
        <time>2021-07-23T08:11:51.676Z</time>
      </trkpt>
      <trkpt lat="46.86216" lon="9.20606">
        <ele>2243.84</ele>
        <time>2021-07-23T08:12:14.009Z</time>
      </trkpt>
      <trkpt lat="46.86214" lon="9.20599">
        <ele>2244.35</ele>
        <time>2021-07-23T08:12:32.207Z</time>
      </trkpt>
      <trkpt lat="46.86215" lon="9.20591">
        <ele>2245.5599999832</ele>
        <time>2021-07-23T08:13:01.616Z</time>
      </trkpt>
      <trkpt lat="46.86213" lon="9.20587">
        <ele>2245.4200000077</ele>
        <time>2021-07-23T08:13:02.658Z</time>
      </trkpt>
      <trkpt lat="46.86213" lon="9.20581">
        <ele>2245.64</ele>
        <time>2021-07-23T08:13:12.734Z</time>
      </trkpt>
      <trkpt lat="46.86213" lon="9.20574">
        <ele>2246.1499999978</ele>
        <time>2021-07-23T08:13:30.965Z</time>
      </trkpt>
      <trkpt lat="46.86212" lon="9.20569">
        <ele>2245.79</ele>
        <time>2021-07-23T08:13:31.931Z</time>
      </trkpt>
      <trkpt lat="46.86211" lon="9.20562">
        <ele>2246.3500000211</ele>
        <time>2021-07-23T08:13:52.241Z</time>
      </trkpt>
      <trkpt lat="46.8621" lon="9.20557">
        <ele>2246.6</ele>
        <time>2021-07-23T08:14:02.083Z</time>
      </trkpt>
      <trkpt lat="46.8621" lon="9.2055">
        <ele>2246.9899999876</ele>
        <time>2021-07-23T08:14:16.541Z</time>
      </trkpt>
      <trkpt lat="46.8621" lon="9.20541">
        <ele>2248.3500000165</ele>
        <time>2021-07-23T08:14:49.087Z</time>
      </trkpt>
      <trkpt lat="46.86209" lon="9.20536">
        <ele>2248.9499999999</ele>
        <time>2021-07-23T08:15:07.926Z</time>
      </trkpt>
      <trkpt lat="46.86207" lon="9.20529">
        <ele>2249.4500000143</ele>
        <time>2021-07-23T08:15:25.793Z</time>
      </trkpt>
      <trkpt lat="46.86206" lon="9.20523">
        <ele>2249.7299999995</ele>
        <time>2021-07-23T08:15:37.129Z</time>
      </trkpt>
      <trkpt lat="46.86205" lon="9.20518">
        <ele>2249.5700000186</ele>
        <time>2021-07-23T08:15:38.189Z</time>
      </trkpt>
      <trkpt lat="46.86204" lon="9.20513">
        <ele>2249.48</ele>
        <time>2021-07-23T08:15:39.479Z</time>
      </trkpt>
      <trkpt lat="46.86203" lon="9.2051">
        <ele>2249.0800000362</ele>
        <time>2021-07-23T08:15:40.098Z</time>
      </trkpt>
      <trkpt lat="46.86203" lon="9.20502">
        <ele>2248.38</ele>
        <time>2021-07-23T08:15:41.581Z</time>
      </trkpt>
      <trkpt lat="46.86201" lon="9.20497">
        <ele>2247.18</ele>
        <time>2021-07-23T08:15:42.656Z</time>
      </trkpt>
      <trkpt lat="46.862" lon="9.20492">
        <ele>2247.3099999878</ele>
        <time>2021-07-23T08:15:49.993Z</time>
      </trkpt>
      <trkpt lat="46.86199" lon="9.20486">
        <ele>2247.0400000109</ele>
        <time>2021-07-23T08:15:51.064Z</time>
      </trkpt>
      <trkpt lat="46.86198" lon="9.2048">
        <ele>2246.98</ele>
        <time>2021-07-23T08:15:52.806Z</time>
      </trkpt>
      <trkpt lat="46.86198" lon="9.20473">
        <ele>2247.7299999738</ele>
        <time>2021-07-23T08:16:18.120Z</time>
      </trkpt>
      <trkpt lat="46.86199" lon="9.20465">
        <ele>2248.16</ele>
        <time>2021-07-23T08:16:34.360Z</time>
      </trkpt>
      <trkpt lat="46.86201" lon="9.20456">
        <ele>2247.94</ele>
        <time>2021-07-23T08:16:36.497Z</time>
      </trkpt>
      <trkpt lat="46.86203" lon="9.20449">
        <ele>2248.87</ele>
        <time>2021-07-23T08:17:03.932Z</time>
      </trkpt>
      <trkpt lat="46.86205" lon="9.20443">
        <ele>2249.66</ele>
        <time>2021-07-23T08:17:28.070Z</time>
      </trkpt>
      <trkpt lat="46.86206" lon="9.20434">
        <ele>2250.19</ele>
        <time>2021-07-23T08:17:47.467Z</time>
      </trkpt>
      <trkpt lat="46.86207" lon="9.20429">
        <ele>2250.74</ele>
        <time>2021-07-23T08:18:06.306Z</time>
      </trkpt>
      <trkpt lat="46.86206" lon="9.20422">
        <ele>2250.57</ele>
        <time>2021-07-23T08:18:07.909Z</time>
      </trkpt>
      <trkpt lat="46.86204" lon="9.20415">
        <ele>2250.28</ele>
        <time>2021-07-23T08:18:09.312Z</time>
      </trkpt>
      <trkpt lat="46.86203" lon="9.20406">
        <ele>2250.09</ele>
        <time>2021-07-23T08:18:11.448Z</time>
      </trkpt>
      <trkpt lat="46.86204" lon="9.20397">
        <ele>2250.37</ele>
        <time>2021-07-23T08:18:25.913Z</time>
      </trkpt>
      <trkpt lat="46.86206" lon="9.20392">
        <ele>2250.89</ele>
        <time>2021-07-23T08:18:46.230Z</time>
      </trkpt>
      <trkpt lat="46.86209" lon="9.20387">
        <ele>2251.049999991</ele>
        <time>2021-07-23T08:18:55.431Z</time>
      </trkpt>
      <trkpt lat="46.86211" lon="9.20377">
        <ele>2251.3</ele>
        <time>2021-07-23T08:19:09.827Z</time>
      </trkpt>
      <trkpt lat="46.86213" lon="9.20373">
        <ele>2252.3299998998</ele>
        <time>2021-07-23T08:19:27.747Z</time>
      </trkpt>
      <trkpt lat="46.86214" lon="9.20366">
        <ele>2253.59</ele>
        <time>2021-07-23T08:19:53.607Z</time>
      </trkpt>
      <trkpt lat="46.86214" lon="9.20363">
        <ele>2254.2699998526</ele>
        <time>2021-07-23T08:20:04.455Z</time>
      </trkpt>
      <trkpt lat="46.86217" lon="9.20358">
        <ele>2255.0899999802</ele>
        <time>2021-07-23T08:20:28.511Z</time>
      </trkpt>
      <trkpt lat="46.86219" lon="9.20351">
        <ele>2256.04</ele>
        <time>2021-07-23T08:20:55.946Z</time>
      </trkpt>
      <trkpt lat="46.86221" lon="9.20345">
        <ele>2257.2</ele>
        <time>2021-07-23T08:21:20.084Z</time>
      </trkpt>
      <trkpt lat="46.86225" lon="9.20341">
        <ele>2258.1200000231</ele>
        <time>2021-07-23T08:21:45.711Z</time>
      </trkpt>
      <trkpt lat="46.86227" lon="9.20335">
        <ele>2258.8600000065</ele>
        <time>2021-07-23T08:22:09.850Z</time>
      </trkpt>
      <trkpt lat="46.86229" lon="9.20329">
        <ele>2259.71</ele>
        <time>2021-07-23T08:22:33.988Z</time>
      </trkpt>
      <trkpt lat="46.8623" lon="9.20324">
        <ele>2260.58</ele>
        <time>2021-07-23T08:22:52.827Z</time>
      </trkpt>
      <trkpt lat="46.86232" lon="9.20317">
        <ele>2261.2600000377</ele>
        <time>2021-07-23T08:23:19.362Z</time>
      </trkpt>
      <trkpt lat="46.86234" lon="9.20311">
        <ele>2261.77</ele>
        <time>2021-07-23T08:23:37.739Z</time>
      </trkpt>
      <trkpt lat="46.86236" lon="9.20304">
        <ele>2262.02</ele>
        <time>2021-07-23T08:23:50.030Z</time>
      </trkpt>
      <trkpt lat="46.86237" lon="9.20299">
        <ele>2261.97</ele>
        <time>2021-07-23T08:23:51.503Z</time>
      </trkpt>
      <trkpt lat="46.86238" lon="9.20292">
        <ele>2261.8000000048</ele>
        <time>2021-07-23T08:23:53.106Z</time>
      </trkpt>
      <trkpt lat="46.86237" lon="9.20285">
        <ele>2262.0299999993</ele>
        <time>2021-07-23T08:24:04.605Z</time>
      </trkpt>
      <trkpt lat="46.86237" lon="9.20278">
        <ele>2262.01</ele>
        <time>2021-07-23T08:24:10.773Z</time>
      </trkpt>
      <trkpt lat="46.86238" lon="9.2027">
        <ele>2262.0100000184</ele>
        <time>2021-07-23T08:24:18.398Z</time>
      </trkpt>
      <trkpt lat="46.86239" lon="9.20262">
        <ele>2262.410000022</ele>
        <time>2021-07-23T08:24:33.967Z</time>
      </trkpt>
      <trkpt lat="46.8624" lon="9.20255">
        <ele>2262.64</ele>
        <time>2021-07-23T08:24:45.467Z</time>
      </trkpt>
      <trkpt lat="46.86241" lon="9.20248">
        <ele>2262.8000000012</ele>
        <time>2021-07-23T08:24:55.042Z</time>
      </trkpt>
      <trkpt lat="46.86243" lon="9.20242">
        <ele>2263.0799999979</ele>
        <time>2021-07-23T08:25:06.863Z</time>
      </trkpt>
      <trkpt lat="46.86246" lon="9.20237">
        <ele>2262.960000006</ele>
        <time>2021-07-23T08:25:08.490Z</time>
      </trkpt>
      <trkpt lat="46.86253" lon="9.20231">
        <ele>2263.5299999797</ele>
        <time>2021-07-23T08:25:30.919Z</time>
      </trkpt>
      <trkpt lat="46.86258" lon="9.20228">
        <ele>2262.9899999113</ele>
        <time>2021-07-23T08:25:32.385Z</time>
      </trkpt>
      <trkpt lat="46.86262" lon="9.20226">
        <ele>2262.1099999989</ele>
        <time>2021-07-23T08:25:33.532Z</time>
      </trkpt>
      <trkpt lat="46.86266" lon="9.20226">
        <ele>2262.0600000015</ele>
        <time>2021-07-23T08:25:35.219Z</time>
      </trkpt>
      <trkpt lat="46.86271" lon="9.20225">
        <ele>2262.2399999932</ele>
        <time>2021-07-23T08:25:45.496Z</time>
      </trkpt>
      <trkpt lat="46.86275" lon="9.20217">
        <ele>2261.37</ele>
        <time>2021-07-23T08:25:47.334Z</time>
      </trkpt>
      <trkpt lat="46.86283" lon="9.20212">
        <ele>2261.1599999684</ele>
        <time>2021-07-23T08:25:50.525Z</time>
      </trkpt>
      <trkpt lat="46.86284" lon="9.20207">
        <ele>2260.93</ele>
        <time>2021-07-23T08:25:51.424Z</time>
      </trkpt>
      <trkpt lat="46.86287" lon="9.20203">
        <ele>2261.2299999968</ele>
        <time>2021-07-23T08:26:02.964Z</time>
      </trkpt>
      <trkpt lat="46.86286" lon="9.20199">
        <ele>2260.7600000233</ele>
        <time>2021-07-23T08:26:03.754Z</time>
      </trkpt>
      <trkpt lat="46.86289" lon="9.20197">
        <ele>2261.5199999118</ele>
        <time>2021-07-23T08:26:21.191Z</time>
      </trkpt>
      <trkpt lat="46.86291" lon="9.20192">
        <ele>2261.44</ele>
        <time>2021-07-23T08:26:22.711Z</time>
      </trkpt>
      <trkpt lat="46.86293" lon="9.20187">
        <ele>2261.7399999624</ele>
        <time>2021-07-23T08:26:34.134Z</time>
      </trkpt>
      <trkpt lat="46.86296" lon="9.20181">
        <ele>2260.5799999321</ele>
        <time>2021-07-23T08:26:35.512Z</time>
      </trkpt>
      <trkpt lat="46.86298" lon="9.20179">
        <ele>2259.9</ele>
        <time>2021-07-23T08:26:36.170Z</time>
      </trkpt>
      <trkpt lat="46.86299" lon="9.20175">
        <ele>2259.47</ele>
        <time>2021-07-23T08:26:36.959Z</time>
      </trkpt>
      <trkpt lat="46.86298" lon="9.20172">
        <ele>2259.06</ele>
        <time>2021-07-23T08:26:37.579Z</time>
      </trkpt>
      <trkpt lat="46.86297" lon="9.20168">
        <ele>2258.45</ele>
        <time>2021-07-23T08:26:38.368Z</time>
      </trkpt>
      <trkpt lat="46.86296" lon="9.20162">
        <ele>2257.49</ele>
        <time>2021-07-23T08:26:39.514Z</time>
      </trkpt>
      <trkpt lat="46.86295" lon="9.20158">
        <ele>2256.64</ele>
        <time>2021-07-23T08:26:40.304Z</time>
      </trkpt>
      <trkpt lat="46.86294" lon="9.20153">
        <ele>2255.7</ele>
        <time>2021-07-23T08:26:41.270Z</time>
      </trkpt>
      <trkpt lat="46.86295" lon="9.2014">
        <ele>2253.8900000068</ele>
        <time>2021-07-23T08:26:43.697Z</time>
      </trkpt>
      <trkpt lat="46.86292" lon="9.20127">
        <ele>2252.54</ele>
        <time>2021-07-23T08:26:46.242Z</time>
      </trkpt>
      <trkpt lat="46.86291" lon="9.20118">
        <ele>2251.9699999979</ele>
        <time>2021-07-23T08:26:47.933Z</time>
      </trkpt>
      <trkpt lat="46.86288" lon="9.20112">
        <ele>2251.68</ele>
        <time>2021-07-23T08:26:49.295Z</time>
      </trkpt>
      <trkpt lat="46.86287" lon="9.20107">
        <ele>2251.3699998501</ele>
        <time>2021-07-23T08:26:50.261Z</time>
      </trkpt>
      <trkpt lat="46.86287" lon="9.20104">
        <ele>2250.549999843</ele>
        <time>2021-07-23T08:26:50.818Z</time>
      </trkpt>
      <trkpt lat="46.86287" lon="9.20101">
        <ele>2249.44</ele>
        <time>2021-07-23T08:26:51.374Z</time>
      </trkpt>
      <trkpt lat="46.86286" lon="9.20089">
        <ele>2248.68</ele>
        <time>2021-07-23T08:26:53.616Z</time>
      </trkpt>
      <trkpt lat="46.86285" lon="9.2008">
        <ele>2247.6399999434</ele>
        <time>2021-07-23T08:26:55.308Z</time>
      </trkpt>
      <trkpt lat="46.86283" lon="9.20074">
        <ele>2247.04</ele>
        <time>2021-07-23T08:26:56.546Z</time>
      </trkpt>
      <trkpt lat="46.86283" lon="9.2007">
        <ele>2246.6300000564</ele>
        <time>2021-07-23T08:26:57.288Z</time>
      </trkpt>
      <trkpt lat="46.86284" lon="9.20066">
        <ele>2246.09</ele>
        <time>2021-07-23T08:26:58.078Z</time>
      </trkpt>
      <trkpt lat="46.86288" lon="9.20058">
        <ele>2245.3699999997</ele>
        <time>2021-07-23T08:26:59.916Z</time>
      </trkpt>
      <trkpt lat="46.86288" lon="9.20054">
        <ele>2245.1699999912</ele>
        <time>2021-07-23T08:27:00.658Z</time>
      </trkpt>
      <trkpt lat="46.86288" lon="9.20051">
        <ele>2245.11</ele>
        <time>2021-07-23T08:27:01.369Z</time>
      </trkpt>
      <trkpt lat="46.86288" lon="9.20046">
        <ele>2244.9800000038</ele>
        <time>2021-07-23T08:27:02.455Z</time>
      </trkpt>
      <trkpt lat="46.86289" lon="9.2004">
        <ele>2244.3900000505</ele>
        <time>2021-07-23T08:27:03.600Z</time>
      </trkpt>
      <trkpt lat="46.8629" lon="9.20026">
        <ele>2241.689999935</ele>
        <time>2021-07-23T08:27:06.211Z</time>
      </trkpt>
      <trkpt lat="46.86291" lon="9.20019">
        <ele>2240.73</ele>
        <time>2021-07-23T08:27:07.537Z</time>
      </trkpt>
      <trkpt lat="46.86294" lon="9.20012">
        <ele>2240.7199999696</ele>
        <time>2021-07-23T08:27:15.078Z</time>
      </trkpt>
      <trkpt lat="46.86294" lon="9.20006">
        <ele>2240.37</ele>
        <time>2021-07-23T08:27:16.191Z</time>
      </trkpt>
      <trkpt lat="46.86295" lon="9.20001">
        <ele>2240.0900000163</ele>
        <time>2021-07-23T08:27:17.157Z</time>
      </trkpt>
      <trkpt lat="46.86298" lon="9.19977">
        <ele>2239.6200000172</ele>
        <time>2021-07-23T08:27:23.011Z</time>
      </trkpt>
      <trkpt lat="46.86301" lon="9.19961">
        <ele>2240.05</ele>
        <time>2021-07-23T08:27:46.838Z</time>
      </trkpt>
      <trkpt lat="46.86304" lon="9.1995">
        <ele>2240.36</ele>
        <time>2021-07-23T08:28:03.937Z</time>
      </trkpt>
      <trkpt lat="46.86309" lon="9.19936">
        <ele>2241.0000000035</ele>
        <time>2021-07-23T08:28:31.502Z</time>
      </trkpt>
      <trkpt lat="46.86311" lon="9.1993">
        <ele>2241.1500000027</ele>
        <time>2021-07-23T08:28:40.456Z</time>
      </trkpt>
      <trkpt lat="46.86311" lon="9.19924">
        <ele>2241.18</ele>
        <time>2021-07-23T08:28:46.485Z</time>
      </trkpt>
      <trkpt lat="46.86309" lon="9.19916">
        <ele>2241.12</ele>
        <time>2021-07-23T08:28:49.012Z</time>
      </trkpt>
      <trkpt lat="46.86308" lon="9.19908">
        <ele>2240.8899999926</ele>
        <time>2021-07-23T08:28:50.721Z</time>
      </trkpt>
      <trkpt lat="46.86308" lon="9.199">
        <ele>2240.34</ele>
        <time>2021-07-23T08:28:52.205Z</time>
      </trkpt>
      <trkpt lat="46.8631" lon="9.19895">
        <ele>2240.3999999951</ele>
        <time>2021-07-23T08:28:58.511Z</time>
      </trkpt>
      <trkpt lat="46.86309" lon="9.19888">
        <ele>2240.9199999991</ele>
        <time>2021-07-23T08:29:17.096Z</time>
      </trkpt>
      <trkpt lat="46.86307" lon="9.19878">
        <ele>2240.6000000198</ele>
        <time>2021-07-23T08:29:19.215Z</time>
      </trkpt>
      <trkpt lat="46.86304" lon="9.19868">
        <ele>2240.05</ele>
        <time>2021-07-23T08:29:21.241Z</time>
      </trkpt>
      <trkpt lat="46.86302" lon="9.19861">
        <ele>2239.6900000047</ele>
        <time>2021-07-23T08:29:22.648Z</time>
      </trkpt>
      <trkpt lat="46.86298" lon="9.19849">
        <ele>2239.619999991</ele>
        <time>2021-07-23T08:29:26.751Z</time>
      </trkpt>
      <trkpt lat="46.86295" lon="9.19839">
        <ele>2239.38</ele>
        <time>2021-07-23T08:29:29.265Z</time>
      </trkpt>
      <trkpt lat="46.86289" lon="9.19822">
        <ele>2239.07</ele>
        <time>2021-07-23T08:29:34.085Z</time>
      </trkpt>
      <trkpt lat="46.86287" lon="9.19813">
        <ele>2239.06</ele>
        <time>2021-07-23T08:29:42.752Z</time>
      </trkpt>
      <trkpt lat="46.86286" lon="9.19809">
        <ele>2238.94</ele>
        <time>2021-07-23T08:29:43.649Z</time>
      </trkpt>
      <trkpt lat="46.86282" lon="9.19807">
        <ele>2238.7299999981</ele>
        <time>2021-07-23T08:29:44.855Z</time>
      </trkpt>
      <trkpt lat="46.86279" lon="9.19809">
        <ele>2238.6599999849</ele>
        <time>2021-07-23T08:29:46.105Z</time>
      </trkpt>
      <trkpt lat="46.86276" lon="9.1981">
        <ele>2238.56</ele>
        <time>2021-07-23T08:29:47.137Z</time>
      </trkpt>
      <trkpt lat="46.86263" lon="9.198">
        <ele>2238.7899999972</ele>
        <time>2021-07-23T08:30:10.649Z</time>
      </trkpt>
      <trkpt lat="46.86257" lon="9.19794">
        <ele>2238.66</ele>
        <time>2021-07-23T08:30:13.515Z</time>
      </trkpt>
      <trkpt lat="46.86252" lon="9.19788">
        <ele>2237.98</ele>
        <time>2021-07-23T08:30:15.270Z</time>
      </trkpt>
      <trkpt lat="46.86249" lon="9.19787">
        <ele>2237.620000023</ele>
        <time>2021-07-23T08:30:16.104Z</time>
      </trkpt>
      <trkpt lat="46.86245" lon="9.19783">
        <ele>2237.6000000014</ele>
        <time>2021-07-23T08:30:22.353Z</time>
      </trkpt>
      <trkpt lat="46.8624" lon="9.19778">
        <ele>2238.19</ele>
        <time>2021-07-23T08:30:43.419Z</time>
      </trkpt>
      <trkpt lat="46.86236" lon="9.19775">
        <ele>2238.020000012</ele>
        <time>2021-07-23T08:30:44.848Z</time>
      </trkpt>
      <trkpt lat="46.86232" lon="9.19771">
        <ele>2238.1200000087</ele>
        <time>2021-07-23T08:30:53.041Z</time>
      </trkpt>
      <trkpt lat="46.86229" lon="9.19766">
        <ele>2238.4999999678</ele>
        <time>2021-07-23T08:31:07.019Z</time>
      </trkpt>
      <trkpt lat="46.86226" lon="9.19761">
        <ele>2238.8999999823</ele>
        <time>2021-07-23T08:31:21.532Z</time>
      </trkpt>
      <trkpt lat="46.86224" lon="9.19755">
        <ele>2239.6</ele>
        <time>2021-07-23T08:31:45.670Z</time>
      </trkpt>
      <trkpt lat="46.86221" lon="9.19752">
        <ele>2240.0000000494</ele>
        <time>2021-07-23T08:32:00.038Z</time>
      </trkpt>
      <trkpt lat="46.8622" lon="9.19747">
        <ele>2240.35</ele>
        <time>2021-07-23T08:32:12.527Z</time>
      </trkpt>
      <trkpt lat="46.86218" lon="9.19744">
        <ele>2240.5999999854</ele>
        <time>2021-07-23T08:32:21.614Z</time>
      </trkpt>
      <trkpt lat="46.86215" lon="9.19744">
        <ele>2240.6499999997</ele>
        <time>2021-07-23T08:32:26.469Z</time>
      </trkpt>
      <trkpt lat="46.86212" lon="9.19747">
        <ele>2240.9699999735</ele>
        <time>2021-07-23T08:32:38.076Z</time>
      </trkpt>
      <trkpt lat="46.86208" lon="9.1975">
        <ele>2241.8100000029</ele>
        <time>2021-07-23T08:33:01.851Z</time>
      </trkpt>
      <trkpt lat="46.86206" lon="9.19746">
        <ele>2241.91</ele>
        <time>2021-07-23T08:33:08.218Z</time>
      </trkpt>
      <trkpt lat="46.86204" lon="9.19741">
        <ele>2241.7100000212</ele>
        <time>2021-07-23T08:33:09.340Z</time>
      </trkpt>
      <trkpt lat="46.86201" lon="9.19734">
        <ele>2241.6600000021</ele>
        <time>2021-07-23T08:33:11.838Z</time>
      </trkpt>
      <trkpt lat="46.86197" lon="9.19727">
        <ele>2242.1799999773</ele>
        <time>2021-07-23T08:33:30.978Z</time>
      </trkpt>
      <trkpt lat="46.86193" lon="9.1972">
        <ele>2242.1599999997</ele>
        <time>2021-07-23T08:33:39.130Z</time>
      </trkpt>
      <trkpt lat="46.86191" lon="9.19712">
        <ele>2241.9599999996</ele>
        <time>2021-07-23T08:33:41.047Z</time>
      </trkpt>
      <trkpt lat="46.86188" lon="9.19707">
        <ele>2241.34</ele>
        <time>2021-07-23T08:33:42.281Z</time>
      </trkpt>
      <trkpt lat="46.86183" lon="9.19704">
        <ele>2240.44</ele>
        <time>2021-07-23T08:33:43.747Z</time>
      </trkpt>
      <trkpt lat="46.86179" lon="9.19702">
        <ele>2239.93</ele>
        <time>2021-07-23T08:33:44.894Z</time>
      </trkpt>
      <trkpt lat="46.86171" lon="9.19702">
        <ele>2239.8900000673</ele>
        <time>2021-07-23T08:33:55.083Z</time>
      </trkpt>
      <trkpt lat="46.86165" lon="9.19701">
        <ele>2240.8600000343</ele>
        <time>2021-07-23T08:34:27.021Z</time>
      </trkpt>
      <trkpt lat="46.86159" lon="9.19701">
        <ele>2241.5600000102</ele>
        <time>2021-07-23T08:34:52.563Z</time>
      </trkpt>
      <trkpt lat="46.86157" lon="9.19698">
        <ele>2241.98</ele>
        <time>2021-07-23T08:35:07.715Z</time>
      </trkpt>
      <trkpt lat="46.86153" lon="9.197">
        <ele>2243.28</ele>
        <time>2021-07-23T08:35:30.072Z</time>
      </trkpt>
      <trkpt lat="46.86149" lon="9.19698">
        <ele>2245.11</ele>
        <time>2021-07-23T08:35:52.429Z</time>
      </trkpt>
      <trkpt lat="46.86145" lon="9.19699">
        <ele>2246.1600000398</ele>
        <time>2021-07-23T08:36:13.891Z</time>
      </trkpt>
      <trkpt lat="46.86142" lon="9.19699">
        <ele>2247.2099998468</ele>
        <time>2021-07-23T08:36:29.758Z</time>
      </trkpt>
      <trkpt lat="46.86142" lon="9.19683">
        <ele>2249.8100001392</ele>
        <time>2021-07-23T08:37:27.618Z</time>
      </trkpt>
      <trkpt lat="46.8614" lon="9.1968">
        <ele>2250.6499999423</ele>
        <time>2021-07-23T08:37:42.770Z</time>
      </trkpt>
      <trkpt lat="46.86137" lon="9.19677">
        <ele>2251.6999999939</ele>
        <time>2021-07-23T08:38:01.991Z</time>
      </trkpt>
      <trkpt lat="46.86136" lon="9.19671">
        <ele>2252.87</ele>
        <time>2021-07-23T08:38:24.324Z</time>
      </trkpt>
      <trkpt lat="46.86134" lon="9.19667">
        <ele>2254.0000000011</ele>
        <time>2021-07-23T08:38:42.244Z</time>
      </trkpt>
      <trkpt lat="46.86131" lon="9.19668">
        <ele>2254.0900000062</ele>
        <time>2021-07-23T08:38:48.007Z</time>
      </trkpt>
      <trkpt lat="46.86129" lon="9.19671">
        <ele>2254.57</ele>
        <time>2021-07-23T08:39:03.159Z</time>
      </trkpt>
      <trkpt lat="46.86126" lon="9.19673">
        <ele>2255.2999999669</ele>
        <time>2021-07-23T08:39:20.596Z</time>
      </trkpt>
      <trkpt lat="46.86125" lon="9.19667">
        <ele>2256.19</ele>
        <time>2021-07-23T08:39:42.929Z</time>
      </trkpt>
      <trkpt lat="46.86125" lon="9.19657">
        <ele>2257.0400000237</ele>
        <time>2021-07-23T08:40:14.879Z</time>
      </trkpt>
      <trkpt lat="46.86126" lon="9.19651">
        <ele>2257.68</ele>
        <time>2021-07-23T08:40:37.212Z</time>
      </trkpt>
      <trkpt lat="46.86128" lon="9.1964">
        <ele>2258.76</ele>
        <time>2021-07-23T08:41:18.373Z</time>
      </trkpt>
      <trkpt lat="46.86131" lon="9.19636">
        <ele>2259.63</ele>
        <time>2021-07-23T08:41:39.844Z</time>
      </trkpt>
      <trkpt lat="46.86132" lon="9.19628">
        <ele>2260.4</ele>
        <time>2021-07-23T08:42:09.253Z</time>
      </trkpt>
      <trkpt lat="46.86132" lon="9.19621">
        <ele>2260.7499999749</ele>
        <time>2021-07-23T08:42:22.778Z</time>
      </trkpt>
      <trkpt lat="46.86129" lon="9.19613">
        <ele>2260.58</ele>
        <time>2021-07-23T08:42:24.989Z</time>
      </trkpt>
      <trkpt lat="46.86128" lon="9.19606">
        <ele>2260.629999998</ele>
        <time>2021-07-23T08:42:32.387Z</time>
      </trkpt>
      <trkpt lat="46.86126" lon="9.19593">
        <ele>2261.31</ele>
        <time>2021-07-23T08:42:58.435Z</time>
      </trkpt>
      <trkpt lat="46.86126" lon="9.19584">
        <ele>2262.2500000528</ele>
        <time>2021-07-23T08:43:30.982Z</time>
      </trkpt>
      <trkpt lat="46.86125" lon="9.19577">
        <ele>2263.4900000012</ele>
        <time>2021-07-23T08:43:56.843Z</time>
      </trkpt>
      <trkpt lat="46.86124" lon="9.19573">
        <ele>2264.2899999151</ele>
        <time>2021-07-23T08:44:12.244Z</time>
      </trkpt>
      <trkpt lat="46.86124" lon="9.19567">
        <ele>2265.23</ele>
        <time>2021-07-23T08:44:33.942Z</time>
      </trkpt>
      <trkpt lat="46.86123" lon="9.19562">
        <ele>2266.02</ele>
        <time>2021-07-23T08:44:52.781Z</time>
      </trkpt>
      <trkpt lat="46.86122" lon="9.19557">
        <ele>2266.42</ele>
        <time>2021-07-23T08:45:07.211Z</time>
      </trkpt>
      <trkpt lat="46.8612" lon="9.19548">
        <ele>2267.4799999951</ele>
        <time>2021-07-23T08:45:41.433Z</time>
      </trkpt>
      <trkpt lat="46.86119" lon="9.1954">
        <ele>2267.3700000052</ele>
        <time>2021-07-23T08:45:43.577Z</time>
      </trkpt>
      <trkpt lat="46.86117" lon="9.19532">
        <ele>2267.5700000064</ele>
        <time>2021-07-23T08:45:55.228Z</time>
      </trkpt>
      <trkpt lat="46.86116" lon="9.19525">
        <ele>2268.12</ele>
        <time>2021-07-23T08:46:15.077Z</time>
      </trkpt>
      <trkpt lat="46.86115" lon="9.19521">
        <ele>2268.2800000219</ele>
        <time>2021-07-23T08:46:22.293Z</time>
      </trkpt>
      <trkpt lat="46.86113" lon="9.19518">
        <ele>2268.4999999996</ele>
        <time>2021-07-23T08:46:30.624Z</time>
      </trkpt>
      <trkpt lat="46.86109" lon="9.19516">
        <ele>2268.18</ele>
        <time>2021-07-23T08:46:31.771Z</time>
      </trkpt>
      <trkpt lat="46.86107" lon="9.19513">
        <ele>2269.1199999691</ele>
        <time>2021-07-23T08:46:46.923Z</time>
      </trkpt>
      <trkpt lat="46.86107" lon="9.19506">
        <ele>2268.7000000088</ele>
        <time>2021-07-23T08:46:48.221Z</time>
      </trkpt>
      <trkpt lat="46.86108" lon="9.195">
        <ele>2269.02</ele>
        <time>2021-07-23T08:47:00.403Z</time>
      </trkpt>
      <trkpt lat="46.86107" lon="9.19495">
        <ele>2269.02</ele>
        <time>2021-07-23T08:47:05.287Z</time>
      </trkpt>
      <trkpt lat="46.86105" lon="9.19489">
        <ele>2269.52</ele>
        <time>2021-07-23T08:47:23.231Z</time>
      </trkpt>
      <trkpt lat="46.86102" lon="9.19483">
        <ele>2269.15</ele>
        <time>2021-07-23T08:47:24.610Z</time>
      </trkpt>
      <trkpt lat="46.86098" lon="9.19466">
        <ele>2269.8900000353</ele>
        <time>2021-07-23T08:47:56.194Z</time>
      </trkpt>
      <trkpt lat="46.86096" lon="9.19455">
        <ele>2270.63</ele>
        <time>2021-07-23T08:48:22.675Z</time>
      </trkpt>
      <trkpt lat="46.86096" lon="9.19439">
        <ele>2271</ele>
        <time>2021-07-23T08:48:44.409Z</time>
      </trkpt>
      <trkpt lat="46.86096" lon="9.1943">
        <ele>2271.4</ele>
        <time>2021-07-23T08:49:00.772Z</time>
      </trkpt>
      <trkpt lat="46.86096" lon="9.19425">
        <ele>2271.64</ele>
        <time>2021-07-23T08:49:10.219Z</time>
      </trkpt>
      <trkpt lat="46.86096" lon="9.19413">
        <ele>2272.11</ele>
        <time>2021-07-23T08:49:30.877Z</time>
      </trkpt>
      <trkpt lat="46.86093" lon="9.19399">
        <ele>2270.6300000237</ele>
        <time>2021-07-23T08:49:33.598Z</time>
      </trkpt>
      <trkpt lat="46.86087" lon="9.19371">
        <ele>2269.5200000082</ele>
        <time>2021-07-23T08:49:39.053Z</time>
      </trkpt>
      <trkpt lat="46.86086" lon="9.19341">
        <ele>2271.2399999596</ele>
        <time>2021-07-23T08:50:42.273Z</time>
      </trkpt>
      <trkpt lat="46.86083" lon="9.19333">
        <ele>2270.69</ele>
        <time>2021-07-23T08:50:43.965Z</time>
      </trkpt>
      <trkpt lat="46.86079" lon="9.19324">
        <ele>2270.9000000243</ele>
        <time>2021-07-23T08:50:57.603Z</time>
      </trkpt>
      <trkpt lat="46.86076" lon="9.19316">
        <ele>2271.8499999888</ele>
        <time>2021-07-23T08:51:30.599Z</time>
      </trkpt>
      <trkpt lat="46.86073" lon="9.19313">
        <ele>2271.7400000016</ele>
        <time>2021-07-23T08:51:31.846Z</time>
      </trkpt>
      <trkpt lat="46.86071" lon="9.19308">
        <ele>2272.16</ele>
        <time>2021-07-23T08:51:46.852Z</time>
      </trkpt>
      <trkpt lat="46.86071" lon="9.19299">
        <ele>2272.58</ele>
        <time>2021-07-23T08:52:03.610Z</time>
      </trkpt>
      <trkpt lat="46.86069" lon="9.19292">
        <ele>2271.87</ele>
        <time>2021-07-23T08:52:05.018Z</time>
      </trkpt>
      <trkpt lat="46.86067" lon="9.19283">
        <ele>2271.07</ele>
        <time>2021-07-23T08:52:06.773Z</time>
      </trkpt>
      <trkpt lat="46.86065" lon="9.19277">
        <ele>2271.82</ele>
        <time>2021-07-23T08:52:30.912Z</time>
      </trkpt>
      <trkpt lat="46.86063" lon="9.19274">
        <ele>2271.0100001419</ele>
        <time>2021-07-23T08:52:31.689Z</time>
      </trkpt>
      <trkpt lat="46.8606" lon="9.19271">
        <ele>2270.48</ele>
        <time>2021-07-23T08:52:32.675Z</time>
      </trkpt>
      <trkpt lat="46.86055" lon="9.1927">
        <ele>2270.48</ele>
        <time>2021-07-23T08:52:39.595Z</time>
      </trkpt>
      <trkpt lat="46.8605" lon="9.19266">
        <ele>2270.07</ele>
        <time>2021-07-23T08:52:41.141Z</time>
      </trkpt>
      <trkpt lat="46.86047" lon="9.1926">
        <ele>2270.4199999824</ele>
        <time>2021-07-23T08:52:55.045Z</time>
      </trkpt>
      <trkpt lat="46.86044" lon="9.19249">
        <ele>2271.4899999982</ele>
        <time>2021-07-23T08:53:37.083Z</time>
      </trkpt>
      <trkpt lat="46.86044" lon="9.19241">
        <ele>2271.46</ele>
        <time>2021-07-23T08:53:44.002Z</time>
      </trkpt>
      <trkpt lat="46.86042" lon="9.19232">
        <ele>2271.7499999983</ele>
        <time>2021-07-23T08:53:59.007Z</time>
      </trkpt>
      <trkpt lat="46.86038" lon="9.19225">
        <ele>2271.7000000078</ele>
        <time>2021-07-23T08:54:01.797Z</time>
      </trkpt>
      <trkpt lat="46.86039" lon="9.19217">
        <ele>2272.26</ele>
        <time>2021-07-23T08:54:21.763Z</time>
      </trkpt>
      <trkpt lat="46.86033" lon="9.19212">
        <ele>2271.4299999119</ele>
        <time>2021-07-23T08:54:23.636Z</time>
      </trkpt>
      <trkpt lat="46.86029" lon="9.19213">
        <ele>2270.650000084</ele>
        <time>2021-07-23T08:54:24.737Z</time>
      </trkpt>
      <trkpt lat="46.86025" lon="9.19212">
        <ele>2270.11</ele>
        <time>2021-07-23T08:54:25.838Z</time>
      </trkpt>
      <trkpt lat="46.86022" lon="9.19204">
        <ele>2269.9499999981</ele>
        <time>2021-07-23T08:54:28.088Z</time>
      </trkpt>
      <trkpt lat="46.8602" lon="9.19196">
        <ele>2269.92</ele>
        <time>2021-07-23T08:54:35.490Z</time>
      </trkpt>
      <trkpt lat="46.86016" lon="9.19189">
        <ele>2269.52</ele>
        <time>2021-07-23T08:54:37.070Z</time>
      </trkpt>
      <trkpt lat="46.86011" lon="9.19188">
        <ele>2268.9600000426</ele>
        <time>2021-07-23T08:54:38.439Z</time>
      </trkpt>
      <trkpt lat="46.86005" lon="9.19188">
        <ele>2268.1800000067</ele>
        <time>2021-07-23T08:54:40.067Z</time>
      </trkpt>
      <trkpt lat="46.85996" lon="9.19186">
        <ele>2267.51</ele>
        <time>2021-07-23T08:54:42.536Z</time>
      </trkpt>
      <trkpt lat="46.85993" lon="9.19181">
        <ele>2267.3700000006</ele>
        <time>2021-07-23T08:54:44.089Z</time>
      </trkpt>
      <trkpt lat="46.85985" lon="9.19177">
        <ele>2265.4200000747</ele>
        <time>2021-07-23T08:54:46.383Z</time>
      </trkpt>
      <trkpt lat="46.85976" lon="9.19181">
        <ele>2263.8699998769</ele>
        <time>2021-07-23T08:54:48.934Z</time>
      </trkpt>
      <trkpt lat="46.85973" lon="9.19183">
        <ele>2262.83</ele>
        <time>2021-07-23T08:54:49.829Z</time>
      </trkpt>
      <trkpt lat="46.8597" lon="9.19188">
        <ele>2262.09</ele>
        <time>2021-07-23T08:54:51.063Z</time>
      </trkpt>
      <trkpt lat="46.85967" lon="9.19191">
        <ele>2261.6100000168</ele>
        <time>2021-07-23T08:54:52.049Z</time>
      </trkpt>
      <trkpt lat="46.85963" lon="9.1919">
        <ele>2261.3899999963</ele>
        <time>2021-07-23T08:54:53.162Z</time>
      </trkpt>
      <trkpt lat="46.85962" lon="9.19185">
        <ele>2261.3</ele>
        <time>2021-07-23T08:54:54.452Z</time>
      </trkpt>
      <trkpt lat="46.8596" lon="9.19182">
        <ele>2261.0200000057</ele>
        <time>2021-07-23T08:54:55.229Z</time>
      </trkpt>
      <trkpt lat="46.85955" lon="9.19172">
        <ele>2260.08</ele>
        <time>2021-07-23T08:54:57.527Z</time>
      </trkpt>
      <trkpt lat="46.85949" lon="9.19159">
        <ele>2258.8099999785</ele>
        <time>2021-07-23T08:55:00.437Z</time>
      </trkpt>
      <trkpt lat="46.85944" lon="9.19152">
        <ele>2258.12</ele>
        <time>2021-07-23T08:55:02.314Z</time>
      </trkpt>
      <trkpt lat="46.85941" lon="9.19146">
        <ele>2257.27</ele>
        <time>2021-07-23T08:55:03.693Z</time>
      </trkpt>
      <trkpt lat="46.85938" lon="9.19145">
        <ele>2257.2500000018</ele>
        <time>2021-07-23T08:55:07.530Z</time>
      </trkpt>
      <trkpt lat="46.85933" lon="9.19153">
        <ele>2255.68</ele>
        <time>2021-07-23T08:55:09.540Z</time>
      </trkpt>
      <trkpt lat="46.85929" lon="9.19152">
        <ele>2254.52</ele>
        <time>2021-07-23T08:55:10.641Z</time>
      </trkpt>
      <trkpt lat="46.85923" lon="9.19151">
        <ele>2253.58</ele>
        <time>2021-07-23T08:55:12.279Z</time>
      </trkpt>
      <trkpt lat="46.8592" lon="9.19144">
        <ele>2253.24</ele>
        <time>2021-07-23T08:55:13.756Z</time>
      </trkpt>
      <trkpt lat="46.85917" lon="9.19134">
        <ele>2253.3500000035</ele>
        <time>2021-07-23T08:55:25.591Z</time>
      </trkpt>
      <trkpt lat="46.85915" lon="9.19129">
        <ele>2253.57</ele>
        <time>2021-07-23T08:55:35.446Z</time>
      </trkpt>
      <trkpt lat="46.85914" lon="9.19116">
        <ele>2253.35</ele>
        <time>2021-07-23T08:55:38.710Z</time>
      </trkpt>
      <trkpt lat="46.85913" lon="9.1911">
        <ele>2253.18</ele>
        <time>2021-07-23T08:55:40.022Z</time>
      </trkpt>
      <trkpt lat="46.85911" lon="9.19106">
        <ele>2252.8200000638</ele>
        <time>2021-07-23T08:55:40.941Z</time>
      </trkpt>
      <trkpt lat="46.85907" lon="9.19103">
        <ele>2252.6000000003</ele>
        <time>2021-07-23T08:55:42.232Z</time>
      </trkpt>
      <trkpt lat="46.85903" lon="9.19102">
        <ele>2252.8899999729</ele>
        <time>2021-07-23T08:55:53.553Z</time>
      </trkpt>
      <trkpt lat="46.85896" lon="9.19091">
        <ele>2252.9299999981</ele>
        <time>2021-07-23T08:56:08.163Z</time>
      </trkpt>
      <trkpt lat="46.85892" lon="9.19088">
        <ele>2252.7700000005</ele>
        <time>2021-07-23T08:56:09.624Z</time>
      </trkpt>
      <trkpt lat="46.85887" lon="9.19088">
        <ele>2252.5300000198</ele>
        <time>2021-07-23T08:56:11.071Z</time>
      </trkpt>
      <trkpt lat="46.85881" lon="9.19088">
        <ele>2251.8599999599</ele>
        <time>2021-07-23T08:56:12.699Z</time>
      </trkpt>
      <trkpt lat="46.85879" lon="9.19087">
        <ele>2251.62</ele>
        <time>2021-07-23T08:56:13.272Z</time>
      </trkpt>
      <trkpt lat="46.85876" lon="9.19083">
        <ele>2251.1499999383</ele>
        <time>2021-07-23T08:56:14.374Z</time>
      </trkpt>
      <trkpt lat="46.85873" lon="9.19082">
        <ele>2250.7400000112</ele>
        <time>2021-07-23T08:56:15.208Z</time>
      </trkpt>
      <trkpt lat="46.85866" lon="9.19082">
        <ele>2249.24</ele>
        <time>2021-07-23T08:56:17.107Z</time>
      </trkpt>
      <trkpt lat="46.85862" lon="9.1908">
        <ele>2248.5100000071</ele>
        <time>2021-07-23T08:56:18.254Z</time>
      </trkpt>
      <trkpt lat="46.85857" lon="9.19079">
        <ele>2247.8600000601</ele>
        <time>2021-07-23T08:56:19.623Z</time>
      </trkpt>
      <trkpt lat="46.85851" lon="9.19078">
        <ele>2247.6099999808</ele>
        <time>2021-07-23T08:56:21.479Z</time>
      </trkpt>
      <trkpt lat="46.85848" lon="9.19077">
        <ele>2247.41</ele>
        <time>2021-07-23T08:56:22.254Z</time>
      </trkpt>
      <trkpt lat="46.85845" lon="9.19074">
        <ele>2247.13</ele>
        <time>2021-07-23T08:56:23.240Z</time>
      </trkpt>
      <trkpt lat="46.85843" lon="9.19075">
        <ele>2246.73</ele>
        <time>2021-07-23T08:56:23.813Z</time>
      </trkpt>
      <trkpt lat="46.85839" lon="9.19073">
        <ele>2246.0800000231</ele>
        <time>2021-07-23T08:56:24.960Z</time>
      </trkpt>
      <trkpt lat="46.85834" lon="9.19072">
        <ele>2245.79</ele>
        <time>2021-07-23T08:56:26.308Z</time>
      </trkpt>
      <trkpt lat="46.85829" lon="9.1907">
        <ele>2245.77</ele>
        <time>2021-07-23T08:56:33.019Z</time>
      </trkpt>
      <trkpt lat="46.85824" lon="9.19066">
        <ele>2245.6200000194</ele>
        <time>2021-07-23T08:56:35.059Z</time>
      </trkpt>
      <trkpt lat="46.8582" lon="9.19064">
        <ele>2245.96</ele>
        <time>2021-07-23T08:56:47.718Z</time>
      </trkpt>
      <trkpt lat="46.85815" lon="9.1906">
        <ele>2246.29</ele>
        <time>2021-07-23T08:57:02.129Z</time>
      </trkpt>
      <trkpt lat="46.85812" lon="9.19057">
        <ele>2246.3899999939</ele>
        <time>2021-07-23T08:57:08.791Z</time>
      </trkpt>
      <trkpt lat="46.85808" lon="9.19054">
        <ele>2246.3800000003</ele>
        <time>2021-07-23T08:57:14.752Z</time>
      </trkpt>
      <trkpt lat="46.85801" lon="9.19046">
        <ele>2246.2699999963</ele>
        <time>2021-07-23T08:57:18.503Z</time>
      </trkpt>
      <trkpt lat="46.85798" lon="9.19042">
        <ele>2245.9200000299</ele>
        <time>2021-07-23T08:57:19.604Z</time>
      </trkpt>
      <trkpt lat="46.85797" lon="9.19035">
        <ele>2245.2</ele>
        <time>2021-07-23T08:57:20.931Z</time>
      </trkpt>
      <trkpt lat="46.85792" lon="9.19019">
        <ele>2244.42</ele>
        <time>2021-07-23T08:57:23.962Z</time>
      </trkpt>
      <trkpt lat="46.85787" lon="9.19001">
        <ele>2243.6399999435</ele>
        <time>2021-07-23T08:57:27.476Z</time>
      </trkpt>
      <trkpt lat="46.85784" lon="9.18997">
        <ele>2242.86</ele>
        <time>2021-07-23T08:57:28.577Z</time>
      </trkpt>
      <trkpt lat="46.85777" lon="9.18992">
        <ele>2241.72</ele>
        <time>2021-07-23T08:57:30.690Z</time>
      </trkpt>
      <trkpt lat="46.85772" lon="9.18979">
        <ele>2241.1499999998</ele>
        <time>2021-07-23T08:57:33.451Z</time>
      </trkpt>
      <trkpt lat="46.85772" lon="9.1897">
        <ele>2241.08</ele>
        <time>2021-07-23T08:57:36.083Z</time>
      </trkpt>
      <trkpt lat="46.8577" lon="9.18962">
        <ele>2240.5799999894</ele>
        <time>2021-07-23T08:57:37.663Z</time>
      </trkpt>
      <trkpt lat="46.85767" lon="9.18959">
        <ele>2240.3700000054</ele>
        <time>2021-07-23T08:57:38.632Z</time>
      </trkpt>
      <trkpt lat="46.85765" lon="9.18949">
        <ele>2239.6599999943</ele>
        <time>2021-07-23T08:57:40.565Z</time>
      </trkpt>
      <trkpt lat="46.85763" lon="9.18945">
        <ele>2239.45</ele>
        <time>2021-07-23T08:57:41.438Z</time>
      </trkpt>
      <trkpt lat="46.8576" lon="9.18933">
        <ele>2238.7299999914</ele>
        <time>2021-07-23T08:57:43.808Z</time>
      </trkpt>
      <trkpt lat="46.85758" lon="9.18926">
        <ele>2238.59</ele>
        <time>2021-07-23T08:57:45.652Z</time>
      </trkpt>
      <trkpt lat="46.85754" lon="9.18915">
        <ele>2238.38</ele>
        <time>2021-07-23T08:57:48.758Z</time>
      </trkpt>
      <trkpt lat="46.85754" lon="9.18904">
        <ele>2237.81</ele>
        <time>2021-07-23T08:57:50.799Z</time>
      </trkpt>
      <trkpt lat="46.85751" lon="9.18894">
        <ele>2237.88</ele>
        <time>2021-07-23T08:58:01.999Z</time>
      </trkpt>
      <trkpt lat="46.8575" lon="9.18885">
        <ele>2237.6</ele>
        <time>2021-07-23T08:58:03.855Z</time>
      </trkpt>
      <trkpt lat="46.85745" lon="9.18884">
        <ele>2237.5999998919</ele>
        <time>2021-07-23T08:58:10.774Z</time>
      </trkpt>
      <trkpt lat="46.85744" lon="9.1888">
        <ele>2235.95</ele>
        <time>2021-07-23T08:58:11.564Z</time>
      </trkpt>
      <trkpt lat="46.85742" lon="9.18879">
        <ele>2235.4300000449</ele>
        <time>2021-07-23T08:58:12.138Z</time>
      </trkpt>
      <trkpt lat="46.85737" lon="9.18881">
        <ele>2235.1400000117</ele>
        <time>2021-07-23T08:58:13.540Z</time>
      </trkpt>
      <trkpt lat="46.85733" lon="9.18888">
        <ele>2234.93</ele>
        <time>2021-07-23T08:58:15.607Z</time>
      </trkpt>
      <trkpt lat="46.85729" lon="9.18893">
        <ele>2234.5800000029</ele>
        <time>2021-07-23T08:58:16.916Z</time>
      </trkpt>
      <trkpt lat="46.85726" lon="9.18906">
        <ele>2233.9299999947</ele>
        <time>2021-07-23T08:58:19.462Z</time>
      </trkpt>
      <trkpt lat="46.85725" lon="9.18911">
        <ele>2233.7200000077</ele>
        <time>2021-07-23T08:58:20.402Z</time>
      </trkpt>
      <trkpt lat="46.85722" lon="9.18914">
        <ele>2232.5900001239</ele>
        <time>2021-07-23T08:58:21.388Z</time>
      </trkpt>
      <trkpt lat="46.85719" lon="9.18919">
        <ele>2231.2300000063</ele>
        <time>2021-07-23T08:58:22.622Z</time>
      </trkpt>
      <trkpt lat="46.85717" lon="9.18909">
        <ele>2231.23</ele>
        <time>2021-07-23T08:58:32.391Z</time>
      </trkpt>
      <trkpt lat="46.85715" lon="9.18912">
        <ele>2231.020000029</ele>
        <time>2021-07-23T08:58:33.168Z</time>
      </trkpt>
      <trkpt lat="46.85713" lon="9.18916">
        <ele>2230.7099999988</ele>
        <time>2021-07-23T08:58:34.087Z</time>
      </trkpt>
      <trkpt lat="46.85712" lon="9.1892">
        <ele>2230.4399999988</ele>
        <time>2021-07-23T08:58:34.877Z</time>
      </trkpt>
      <trkpt lat="46.85711" lon="9.18919">
        <ele>2230.3599998424</ele>
        <time>2021-07-23T08:58:35.180Z</time>
      </trkpt>
      <trkpt lat="46.8571" lon="9.1892">
        <ele>2230.0200000374</ele>
        <time>2021-07-23T08:58:35.508Z</time>
      </trkpt>
      <trkpt lat="46.85709" lon="9.18921">
        <ele>2230.1699999965</ele>
        <time>2021-07-23T08:58:41.134Z</time>
      </trkpt>
      <trkpt lat="46.85707" lon="9.18915">
        <ele>2230.68</ele>
        <time>2021-07-23T08:58:59.510Z</time>
      </trkpt>
      <trkpt lat="46.85706" lon="9.18911">
        <ele>2231.319999958</ele>
        <time>2021-07-23T08:59:14.913Z</time>
      </trkpt>
      <trkpt lat="46.85707" lon="9.18903">
        <ele>2231.4800002211</ele>
        <time>2021-07-23T08:59:25.267Z</time>
      </trkpt>
      <trkpt lat="46.85707" lon="9.18895">
        <ele>2231.64</ele>
        <time>2021-07-23T08:59:35.513Z</time>
      </trkpt>
      <trkpt lat="46.85705" lon="9.189">
        <ele>2232.7599998319</ele>
        <time>2021-07-23T08:59:56.462Z</time>
      </trkpt>
      <trkpt lat="46.85705" lon="9.18886">
        <ele>2234.2100000098</ele>
        <time>2021-07-23T09:00:47.094Z</time>
      </trkpt>
      <trkpt lat="46.85704" lon="9.18882">
        <ele>2234.53</ele>
        <time>2021-07-23T09:00:58.584Z</time>
      </trkpt>
      <trkpt lat="46.85702" lon="9.18875">
        <ele>2234.69</ele>
        <time>2021-07-23T09:01:08.498Z</time>
      </trkpt>
      <trkpt lat="46.85697" lon="9.18866">
        <ele>2233.57</ele>
        <time>2021-07-23T09:01:10.650Z</time>
      </trkpt>
      <trkpt lat="46.85694" lon="9.18862">
        <ele>2232.1199999611</ele>
        <time>2021-07-23T09:01:11.751Z</time>
      </trkpt>
      <trkpt lat="46.85691" lon="9.18862">
        <ele>2231.8</ele>
        <time>2021-07-23T09:01:12.565Z</time>
      </trkpt>
      <trkpt lat="46.85689" lon="9.18869">
        <ele>2230.68</ele>
        <time>2021-07-23T09:01:13.972Z</time>
      </trkpt>
      <trkpt lat="46.85687" lon="9.18877">
        <ele>2229.3999999671</ele>
        <time>2021-07-23T09:01:15.552Z</time>
      </trkpt>
      <trkpt lat="46.85685" lon="9.1888">
        <ele>2228.28</ele>
        <time>2021-07-23T09:01:16.329Z</time>
      </trkpt>
      <trkpt lat="46.85681" lon="9.18882">
        <ele>2226.67</ele>
        <time>2021-07-23T09:01:17.476Z</time>
      </trkpt>
      <trkpt lat="46.85679" lon="9.18881">
        <ele>2226.030000117</ele>
        <time>2021-07-23T09:01:18.049Z</time>
      </trkpt>
      <trkpt lat="46.85676" lon="9.18882">
        <ele>2225.55</ele>
        <time>2021-07-23T09:01:18.884Z</time>
      </trkpt>
      <trkpt lat="46.8567" lon="9.18881">
        <ele>2224.11</ele>
        <time>2021-07-23T09:01:20.522Z</time>
      </trkpt>
      <trkpt lat="46.85666" lon="9.18878">
        <ele>2223.4699999661</ele>
        <time>2021-07-23T09:01:21.742Z</time>
      </trkpt>
      <trkpt lat="46.85663" lon="9.18874">
        <ele>2222.83</ele>
        <time>2021-07-23T09:01:22.843Z</time>
      </trkpt>
      <trkpt lat="46.85659" lon="9.1887">
        <ele>2222.83</ele>
        <time>2021-07-23T09:01:29.487Z</time>
      </trkpt>
      <trkpt lat="46.85656" lon="9.18868">
        <ele>2222.83</ele>
        <time>2021-07-23T09:01:34.008Z</time>
      </trkpt>
      <trkpt lat="46.85653" lon="9.18871">
        <ele>2222.99</ele>
        <time>2021-07-23T09:01:42.359Z</time>
      </trkpt>
      <trkpt lat="46.85649" lon="9.18867">
        <ele>2222.51</ele>
        <time>2021-07-23T09:01:43.674Z</time>
      </trkpt>
      <trkpt lat="46.85643" lon="9.18859">
        <ele>2222.0299999544</ele>
        <time>2021-07-23T09:01:45.814Z</time>
      </trkpt>
      <trkpt lat="46.85641" lon="9.18856">
        <ele>2221.39</ele>
        <time>2021-07-23T09:01:46.591Z</time>
      </trkpt>
      <trkpt lat="46.85637" lon="9.1886">
        <ele>2220.42</ele>
        <time>2021-07-23T09:01:47.906Z</time>
      </trkpt>
      <trkpt lat="46.85635" lon="9.18856">
        <ele>2220.2600000081</ele>
        <time>2021-07-23T09:01:48.893Z</time>
      </trkpt>
      <trkpt lat="46.85633" lon="9.1885">
        <ele>2219.9399999732</ele>
        <time>2021-07-23T09:01:50.131Z</time>
      </trkpt>
      <trkpt lat="46.85631" lon="9.18847">
        <ele>2219.6200000111</ele>
        <time>2021-07-23T09:01:50.909Z</time>
      </trkpt>
      <trkpt lat="46.85628" lon="9.18835">
        <ele>2219.94</ele>
        <time>2021-07-23T09:02:08.937Z</time>
      </trkpt>
      <trkpt lat="46.85626" lon="9.1883">
        <ele>2219.9399999864</ele>
        <time>2021-07-23T09:02:14.368Z</time>
      </trkpt>
      <trkpt lat="46.85626" lon="9.18826">
        <ele>2219.62</ele>
        <time>2021-07-23T09:02:15.110Z</time>
      </trkpt>
      <trkpt lat="46.85624" lon="9.18817">
        <ele>2219.4599999904</ele>
        <time>2021-07-23T09:02:17.468Z</time>
      </trkpt>
      <trkpt lat="46.85622" lon="9.18813">
        <ele>2219.300000006</ele>
        <time>2021-07-23T09:02:18.456Z</time>
      </trkpt>
      <trkpt lat="46.85618" lon="9.18806">
        <ele>2218.82</ele>
        <time>2021-07-23T09:02:20.148Z</time>
      </trkpt>
      <trkpt lat="46.85615" lon="9.18801">
        <ele>2218.82</ele>
        <time>2021-07-23T09:02:26.385Z</time>
      </trkpt>
      <trkpt lat="46.85612" lon="9.18804">
        <ele>2218.9799999841</ele>
        <time>2021-07-23T09:02:34.736Z</time>
      </trkpt>
      <trkpt lat="46.85609" lon="9.18799">
        <ele>2219.46</ele>
        <time>2021-07-23T09:02:51.878Z</time>
      </trkpt>
      <trkpt lat="46.85608" lon="9.18794">
        <ele>2219.4599999564</ele>
        <time>2021-07-23T09:02:56.762Z</time>
      </trkpt>
      <trkpt lat="46.85605" lon="9.18792">
        <ele>2218.5</ele>
        <time>2021-07-23T09:02:57.657Z</time>
      </trkpt>
      <trkpt lat="46.85602" lon="9.18785">
        <ele>2217.22</ele>
        <time>2021-07-23T09:02:59.189Z</time>
      </trkpt>
      <trkpt lat="46.856" lon="9.18783">
        <ele>2216.4200000547</ele>
        <time>2021-07-23T09:02:59.846Z</time>
      </trkpt>
      <trkpt lat="46.85598" lon="9.18781">
        <ele>2215.4500000707</ele>
        <time>2021-07-23T09:03:00.504Z</time>
      </trkpt>
      <trkpt lat="46.85595" lon="9.18777">
        <ele>2214.5</ele>
        <time>2021-07-23T09:03:01.605Z</time>
      </trkpt>
      <trkpt lat="46.85592" lon="9.18773">
        <ele>2213.3699998792</ele>
        <time>2021-07-23T09:03:02.706Z</time>
      </trkpt>
      <trkpt lat="46.85589" lon="9.1877">
        <ele>2212.25</ele>
        <time>2021-07-23T09:03:03.692Z</time>
      </trkpt>
      <trkpt lat="46.85585" lon="9.18765">
        <ele>2211.289999909</ele>
        <time>2021-07-23T09:03:05.120Z</time>
      </trkpt>
      <trkpt lat="46.85583" lon="9.18763">
        <ele>2210.6500000999</ele>
        <time>2021-07-23T09:03:05.777Z</time>
      </trkpt>
      <trkpt lat="46.85579" lon="9.1876">
        <ele>2209.2</ele>
        <time>2021-07-23T09:03:06.997Z</time>
      </trkpt>
      <trkpt lat="46.85577" lon="9.18759">
        <ele>2208.5699999665</ele>
        <time>2021-07-23T09:03:07.570Z</time>
      </trkpt>
      <trkpt lat="46.85576" lon="9.18761">
        <ele>2208.24</ele>
        <time>2021-07-23T09:03:08.029Z</time>
      </trkpt>
      <trkpt lat="46.85573" lon="9.18764">
        <ele>2207.2799999137</ele>
        <time>2021-07-23T09:03:09.015Z</time>
      </trkpt>
      <trkpt lat="46.85571" lon="9.18767">
        <ele>2206.64</ele>
        <time>2021-07-23T09:03:09.793Z</time>
      </trkpt>
      <trkpt lat="46.85563" lon="9.18767">
        <ele>2205.52</ele>
        <time>2021-07-23T09:03:11.963Z</time>
      </trkpt>
      <trkpt lat="46.85557" lon="9.18768">
        <ele>2205.52</ele>
        <time>2021-07-23T09:03:20.243Z</time>
      </trkpt>
      <trkpt lat="46.85554" lon="9.18767">
        <ele>2205.52</ele>
        <time>2021-07-23T09:03:24.462Z</time>
      </trkpt>
      <trkpt lat="46.8555" lon="9.18762">
        <ele>2204.88</ele>
        <time>2021-07-23T09:03:25.890Z</time>
      </trkpt>
      <trkpt lat="46.85545" lon="9.18756">
        <ele>2203.6</ele>
        <time>2021-07-23T09:03:27.644Z</time>
      </trkpt>
      <trkpt lat="46.8554" lon="9.18752">
        <ele>2201.9900000903</ele>
        <time>2021-07-23T09:03:29.190Z</time>
      </trkpt>
      <trkpt lat="46.85532" lon="9.18748">
        <ele>2200.55</ele>
        <time>2021-07-23T09:03:31.484Z</time>
      </trkpt>
      <trkpt lat="46.85525" lon="9.18746">
        <ele>2198.9499999793</ele>
        <time>2021-07-23T09:03:33.419Z</time>
      </trkpt>
      <trkpt lat="46.85518" lon="9.18745">
        <ele>2197.99</ele>
        <time>2021-07-23T09:03:35.326Z</time>
      </trkpt>
      <trkpt lat="46.85515" lon="9.18745">
        <ele>2197.18</ele>
        <time>2021-07-23T09:03:36.140Z</time>
      </trkpt>
      <trkpt lat="46.85512" lon="9.18741">
        <ele>2197.03</ele>
        <time>2021-07-23T09:03:37.443Z</time>
      </trkpt>
      <trkpt lat="46.85508" lon="9.18739">
        <ele>2197.1799999909</ele>
        <time>2021-07-23T09:03:46.030Z</time>
      </trkpt>
      <trkpt lat="46.85504" lon="9.18736">
        <ele>2196.38</ele>
        <time>2021-07-23T09:03:47.250Z</time>
      </trkpt>
      <trkpt lat="46.85497" lon="9.18737">
        <ele>2194.94</ele>
        <time>2021-07-23T09:03:49.157Z</time>
      </trkpt>
      <trkpt lat="46.85494" lon="9.18736">
        <ele>2193.66</ele>
        <time>2021-07-23T09:03:49.992Z</time>
      </trkpt>
      <trkpt lat="46.8549" lon="9.18732">
        <ele>2192.38</ele>
        <time>2021-07-23T09:03:51.307Z</time>
      </trkpt>
      <trkpt lat="46.85486" lon="9.18735">
        <ele>2190.7799999447</ele>
        <time>2021-07-23T09:03:52.526Z</time>
      </trkpt>
      <trkpt lat="46.85484" lon="9.18739">
        <ele>2190.13</ele>
        <time>2021-07-23T09:03:53.445Z</time>
      </trkpt>
      <trkpt lat="46.85483" lon="9.18741">
        <ele>2189.33</ele>
        <time>2021-07-23T09:03:53.905Z</time>
      </trkpt>
      <trkpt lat="46.85479" lon="9.18743">
        <ele>2188.6899998435</ele>
        <time>2021-07-23T09:03:55.052Z</time>
      </trkpt>
      <trkpt lat="46.85477" lon="9.18742">
        <ele>2187.8900000193</ele>
        <time>2021-07-23T09:03:55.625Z</time>
      </trkpt>
      <trkpt lat="46.85474" lon="9.1874">
        <ele>2187.2499999361</ele>
        <time>2021-07-23T09:03:56.520Z</time>
      </trkpt>
      <trkpt lat="46.85471" lon="9.18738">
        <ele>2186.61</ele>
        <time>2021-07-23T09:03:57.414Z</time>
      </trkpt>
      <trkpt lat="46.85469" lon="9.18732">
        <ele>2186.4499999983</ele>
        <time>2021-07-23T09:03:58.906Z</time>
      </trkpt>
      <trkpt lat="46.85467" lon="9.18728">
        <ele>2185.9700000102</ele>
        <time>2021-07-23T09:03:59.825Z</time>
      </trkpt>
      <trkpt lat="46.85464" lon="9.18725">
        <ele>2185.47999999</ele>
        <time>2021-07-23T09:04:00.811Z</time>
      </trkpt>
      <trkpt lat="46.85461" lon="9.18725">
        <ele>2184.6800000987</ele>
        <time>2021-07-23T09:04:01.625Z</time>
      </trkpt>
      <trkpt lat="46.85458" lon="9.18728">
        <ele>2184.0400000657</ele>
        <time>2021-07-23T09:04:02.611Z</time>
      </trkpt>
      <trkpt lat="46.85455" lon="9.18735">
        <ele>2182.76</ele>
        <time>2021-07-23T09:04:04.143Z</time>
      </trkpt>
      <trkpt lat="46.85451" lon="9.18744">
        <ele>2181.3199999636</ele>
        <time>2021-07-23T09:04:06.134Z</time>
      </trkpt>
      <trkpt lat="46.85448" lon="9.18751">
        <ele>2180.04</ele>
        <time>2021-07-23T09:04:07.667Z</time>
      </trkpt>
      <trkpt lat="46.85444" lon="9.18755">
        <ele>2178.9099999235</ele>
        <time>2021-07-23T09:04:08.982Z</time>
      </trkpt>
      <trkpt lat="46.85441" lon="9.18755">
        <ele>2177.79</ele>
        <time>2021-07-23T09:04:09.795Z</time>
      </trkpt>
      <trkpt lat="46.85437" lon="9.18754">
        <ele>2177.3100000229</ele>
        <time>2021-07-23T09:04:10.896Z</time>
      </trkpt>
      <trkpt lat="46.85432" lon="9.18751">
        <ele>2176.8300000042</ele>
        <time>2021-07-23T09:04:12.362Z</time>
      </trkpt>
      <trkpt lat="46.85425" lon="9.18742">
        <ele>2176.19</ele>
        <time>2021-07-23T09:04:14.891Z</time>
      </trkpt>
      <trkpt lat="46.85414" lon="9.18728">
        <ele>2175.2299999953</ele>
        <time>2021-07-23T09:04:18.538Z</time>
      </trkpt>
      <trkpt lat="46.85409" lon="9.18718">
        <ele>2174.75</ele>
        <time>2021-07-23T09:04:20.816Z</time>
      </trkpt>
      <trkpt lat="46.85403" lon="9.18712">
        <ele>2175.2300000056</ele>
        <time>2021-07-23T09:04:40.289Z</time>
      </trkpt>
      <trkpt lat="46.85398" lon="9.18709">
        <ele>2175.5499999837</ele>
        <time>2021-07-23T09:04:54.079Z</time>
      </trkpt>
      <trkpt lat="46.8539" lon="9.18702">
        <ele>2174.4299999693</ele>
        <time>2021-07-23T09:04:56.608Z</time>
      </trkpt>
      <trkpt lat="46.85386" lon="9.18693">
        <ele>2173.47</ele>
        <time>2021-07-23T09:04:58.599Z</time>
      </trkpt>
      <trkpt lat="46.85378" lon="9.18684">
        <ele>2171.06</ele>
        <time>2021-07-23T09:05:01.338Z</time>
      </trkpt>
      <trkpt lat="46.85372" lon="9.18681">
        <ele>2169.3000000788</ele>
        <time>2021-07-23T09:05:03.058Z</time>
      </trkpt>
      <trkpt lat="46.85361" lon="9.18673">
        <ele>2166.5799999096</ele>
        <time>2021-07-23T09:05:06.390Z</time>
      </trkpt>
      <trkpt lat="46.85353" lon="9.18674">
        <ele>2164.65</ele>
        <time>2021-07-23T09:05:08.568Z</time>
      </trkpt>
      <trkpt lat="46.85348" lon="9.1867">
        <ele>2163.0500000052</ele>
        <time>2021-07-23T09:05:10.115Z</time>
      </trkpt>
      <trkpt lat="46.85341" lon="9.18669">
        <ele>2161.2900000986</ele>
        <time>2021-07-23T09:05:12.023Z</time>
      </trkpt>
      <trkpt lat="46.85332" lon="9.18666">
        <ele>2160.1599999945</ele>
        <time>2021-07-23T09:05:14.527Z</time>
      </trkpt>
      <trkpt lat="46.85326" lon="9.18665">
        <ele>2159.52</ele>
        <time>2021-07-23T09:05:16.165Z</time>
      </trkpt>
      <trkpt lat="46.85322" lon="9.18663">
        <ele>2158.2400000331</ele>
        <time>2021-07-23T09:05:17.312Z</time>
      </trkpt>
      <trkpt lat="46.85317" lon="9.18658">
        <ele>2156.6400000624</ele>
        <time>2021-07-23T09:05:18.955Z</time>
      </trkpt>
      <trkpt lat="46.85306" lon="9.18647">
        <ele>2153.1099999933</ele>
        <time>2021-07-23T09:05:22.570Z</time>
      </trkpt>
      <trkpt lat="46.85301" lon="9.18644">
        <ele>2152.15</ele>
        <time>2021-07-23T09:05:24.036Z</time>
      </trkpt>
      <trkpt lat="46.85294" lon="9.18642">
        <ele>2151.03</ele>
        <time>2021-07-23T09:05:25.971Z</time>
      </trkpt>
      <trkpt lat="46.85292" lon="9.18641">
        <ele>2150.47</ele>
        <time>2021-07-23T09:05:26.544Z</time>
      </trkpt>
      <trkpt lat="46.85293" lon="9.18641">
        <ele>2150.47</ele>
        <time>2021-07-23T09:05:27.256Z</time>
      </trkpt>
      <trkpt lat="46.85293" lon="9.18641">
        <ele>2150.47</ele>
        <time>2021-07-23T09:05:27.256Z</time>
      </trkpt>
      <trkpt lat="46.85292" lon="9.18641">
        <ele>2150.47</ele>
        <time>2021-07-23T09:05:27.968Z</time>
      </trkpt>
      <trkpt lat="46.85288" lon="9.18638">
        <ele>2149.91</ele>
        <time>2021-07-23T09:05:29.187Z</time>
      </trkpt>
      <trkpt lat="46.85285" lon="9.18639">
        <ele>2148.1400001818</ele>
        <time>2021-07-23T09:05:30.022Z</time>
      </trkpt>
      <trkpt lat="46.85282" lon="9.18647">
        <ele>2146.22</ele>
        <time>2021-07-23T09:05:31.715Z</time>
      </trkpt>
      <trkpt lat="46.85279" lon="9.18651">
        <ele>2143.8200001884</ele>
        <time>2021-07-23T09:05:32.816Z</time>
      </trkpt>
      <trkpt lat="46.85277" lon="9.18658">
        <ele>2142.0599999157</ele>
        <time>2021-07-23T09:05:34.223Z</time>
      </trkpt>
      <trkpt lat="46.85274" lon="9.18662">
        <ele>2140.4500000026</ele>
        <time>2021-07-23T09:05:35.325Z</time>
      </trkpt>
      <trkpt lat="46.8527" lon="9.18659">
        <ele>2139.81</ele>
        <time>2021-07-23T09:05:36.544Z</time>
      </trkpt>
      <trkpt lat="46.85267" lon="9.18654">
        <ele>2139.17</ele>
        <time>2021-07-23T09:05:37.778Z</time>
      </trkpt>
      <trkpt lat="46.85265" lon="9.18646">
        <ele>2138.21</ele>
        <time>2021-07-23T09:05:39.358Z</time>
      </trkpt>
      <trkpt lat="46.85264" lon="9.18642">
        <ele>2137.7300000782</ele>
        <time>2021-07-23T09:05:40.148Z</time>
      </trkpt>
      <trkpt lat="46.8526" lon="9.18637">
        <ele>2136.4399998946</ele>
        <time>2021-07-23T09:05:41.576Z</time>
      </trkpt>
      <trkpt lat="46.85257" lon="9.18635">
        <ele>2135.16</ele>
        <time>2021-07-23T09:05:42.470Z</time>
      </trkpt>
      <trkpt lat="46.85254" lon="9.18633">
        <ele>2133.92</ele>
        <time>2021-07-23T09:05:43.365Z</time>
      </trkpt>
      <trkpt lat="46.8525" lon="9.18634">
        <ele>2132.5</ele>
        <time>2021-07-23T09:05:44.466Z</time>
      </trkpt>
      <trkpt lat="46.85246" lon="9.18638">
        <ele>2130.89</ele>
        <time>2021-07-23T09:05:45.780Z</time>
      </trkpt>
      <trkpt lat="46.85243" lon="9.18639">
        <ele>2129.8</ele>
        <time>2021-07-23T09:05:46.615Z</time>
      </trkpt>
      <trkpt lat="46.8524" lon="9.18639">
        <ele>2128.66</ele>
        <time>2021-07-23T09:05:47.429Z</time>
      </trkpt>
      <trkpt lat="46.85238" lon="9.18637">
        <ele>2127.95</ele>
        <time>2021-07-23T09:05:48.086Z</time>
      </trkpt>
      <trkpt lat="46.85234" lon="9.18632">
        <ele>2127.3800000166</ele>
        <time>2021-07-23T09:05:49.513Z</time>
      </trkpt>
      <trkpt lat="46.85226" lon="9.18632">
        <ele>2126.039999999</ele>
        <time>2021-07-23T09:05:51.684Z</time>
      </trkpt>
      <trkpt lat="46.8522" lon="9.18633">
        <ele>2124.63</ele>
        <time>2021-07-23T09:05:53.322Z</time>
      </trkpt>
      <trkpt lat="46.85211" lon="9.18638">
        <ele>2123.59</ele>
        <time>2021-07-23T09:05:55.934Z</time>
      </trkpt>
      <trkpt lat="46.85204" lon="9.18645">
        <ele>2123.59</ele>
        <time>2021-07-23T09:06:07.562Z</time>
      </trkpt>
      <trkpt lat="46.85193" lon="9.18659">
        <ele>2123.59</ele>
        <time>2021-07-23T09:06:27.557Z</time>
      </trkpt>
      <trkpt lat="46.85181" lon="9.18673">
        <ele>2122.4999999935</ele>
        <time>2021-07-23T09:06:31.722Z</time>
      </trkpt>
      <trkpt lat="46.85176" lon="9.18684">
        <ele>2122.14</ele>
        <time>2021-07-23T09:06:34.539Z</time>
      </trkpt>
      <trkpt lat="46.85172" lon="9.18692">
        <ele>2120.7000000309</ele>
        <time>2021-07-23T09:06:36.378Z</time>
      </trkpt>
      <trkpt lat="46.85167" lon="9.18703">
        <ele>2119.9800000164</ele>
        <time>2021-07-23T09:06:38.828Z</time>
      </trkpt>
      <trkpt lat="46.85162" lon="9.18726">
        <ele>2117.45</ele>
        <time>2021-07-23T09:06:43.305Z</time>
      </trkpt>
      <trkpt lat="46.8516" lon="9.18748">
        <ele>2115.6499999606</ele>
        <time>2021-07-23T09:06:47.423Z</time>
      </trkpt>
      <trkpt lat="46.8516" lon="9.18768">
        <ele>2113.489999987</ele>
        <time>2021-07-23T09:06:51.133Z</time>
      </trkpt>
      <trkpt lat="46.85159" lon="9.18774">
        <ele>2112.41</ele>
        <time>2021-07-23T09:06:52.279Z</time>
      </trkpt>
      <trkpt lat="46.85152" lon="9.18783">
        <ele>2112.0500000094</ele>
        <time>2021-07-23T09:06:55.221Z</time>
      </trkpt>
      <trkpt lat="46.85143" lon="9.18792">
        <ele>2112.77</ele>
        <time>2021-07-23T09:07:24.431Z</time>
      </trkpt>
      <trkpt lat="46.85136" lon="9.18798">
        <ele>2112.41</ele>
        <time>2021-07-23T09:07:26.858Z</time>
      </trkpt>
      <trkpt lat="46.85129" lon="9.188">
        <ele>2112.0499999914</ele>
        <time>2021-07-23T09:07:28.878Z</time>
      </trkpt>
      <trkpt lat="46.85124" lon="9.18801">
        <ele>2111.68</ele>
        <time>2021-07-23T09:07:30.247Z</time>
      </trkpt>
      <trkpt lat="46.85118" lon="9.18802">
        <ele>2112.0699999748</ele>
        <time>2021-07-23T09:07:46.255Z</time>
      </trkpt>
      <trkpt lat="46.85106" lon="9.188">
        <ele>2113.09</ele>
        <time>2021-07-23T09:08:23.655Z</time>
      </trkpt>
      <trkpt lat="46.85096" lon="9.18793">
        <ele>2117.1600001192</ele>
        <time>2021-07-23T09:09:22.290Z</time>
      </trkpt>
      <trkpt lat="46.85087" lon="9.18789">
        <ele>2121.23</ele>
        <time>2021-07-23T09:10:12.039Z</time>
      </trkpt>
      <trkpt lat="46.85077" lon="9.18787">
        <ele>2124.28</ele>
        <time>2021-07-23T09:11:05.419Z</time>
      </trkpt>
      <trkpt lat="46.8507" lon="9.18787">
        <ele>2126.1500000922</ele>
        <time>2021-07-23T09:11:42.441Z</time>
      </trkpt>
      <trkpt lat="46.85064" lon="9.18789">
        <ele>2128.29</ele>
        <time>2021-07-23T09:12:14.988Z</time>
      </trkpt>
      <trkpt lat="46.8505" lon="9.18799">
        <ele>2132.58</ele>
        <time>2021-07-23T09:13:37.393Z</time>
      </trkpt>
      <trkpt lat="46.85034" lon="9.18815">
        <ele>2137.9299999711</ele>
        <time>2021-07-23T09:15:19.910Z</time>
      </trkpt>
      <trkpt lat="46.85017" lon="9.18833">
        <ele>2142.8500000217</ele>
        <time>2021-07-23T09:17:10.917Z</time>
      </trkpt>
      <trkpt lat="46.85003" lon="9.18845">
        <ele>2146.7000000016</ele>
        <time>2021-07-23T09:18:36.744Z</time>
      </trkpt>
      <trkpt lat="46.84993" lon="9.1885">
        <ele>2148.6299999909</ele>
        <time>2021-07-23T09:19:32.638Z</time>
      </trkpt>
      <trkpt lat="46.84982" lon="9.18855">
        <ele>2149.9100000056</ele>
        <time>2021-07-23T09:20:18.703Z</time>
      </trkpt>
      <trkpt lat="46.84971" lon="9.18859">
        <ele>2150.9799999733</ele>
        <time>2021-07-23T09:20:57.028Z</time>
      </trkpt>
      <trkpt lat="46.84953" lon="9.18863">
        <ele>2154.6200000049</ele>
        <time>2021-07-23T09:22:33.319Z</time>
      </trkpt>
      <trkpt lat="46.84942" lon="9.18865">
        <ele>2157.1900000453</ele>
        <time>2021-07-23T09:23:31.944Z</time>
      </trkpt>
      <trkpt lat="46.84936" lon="9.18866">
        <ele>2158.48</ele>
        <time>2021-07-23T09:24:03.882Z</time>
      </trkpt>
      <trkpt lat="46.84926" lon="9.18869">
        <ele>2160.1899999244</ele>
        <time>2021-07-23T09:24:57.871Z</time>
      </trkpt>
      <trkpt lat="46.84916" lon="9.18874">
        <ele>2162.12</ele>
        <time>2021-07-23T09:25:53.765Z</time>
      </trkpt>
      <trkpt lat="46.84905" lon="9.18881">
        <ele>2164.2600000663</ele>
        <time>2021-07-23T09:26:57.213Z</time>
      </trkpt>
      <trkpt lat="46.84899" lon="9.18887">
        <ele>2165.54</ele>
        <time>2021-07-23T09:27:35.657Z</time>
      </trkpt>
      <trkpt lat="46.84891" lon="9.18897">
        <ele>2165.7599999924</ele>
        <time>2021-07-23T09:27:53.506Z</time>
      </trkpt>
      <trkpt lat="46.84883" lon="9.1891">
        <ele>2164.4700000489</ele>
        <time>2021-07-23T09:27:56.751Z</time>
      </trkpt>
      <trkpt lat="46.84879" lon="9.18916">
        <ele>2165.33</ele>
        <time>2021-07-23T09:28:27.058Z</time>
      </trkpt>
      <trkpt lat="46.8487" lon="9.18934">
        <ele>2166.3999999889</ele>
        <time>2021-07-23T09:29:09.186Z</time>
      </trkpt>
      <trkpt lat="46.84857" lon="9.18954">
        <ele>2166.8300000022</ele>
        <time>2021-07-23T09:29:41.886Z</time>
      </trkpt>
      <trkpt lat="46.84851" lon="9.18964">
        <ele>2167.8999999539</ele>
        <time>2021-07-23T09:30:21.046Z</time>
      </trkpt>
      <trkpt lat="46.84844" lon="9.18976">
        <ele>2169.1800000659</ele>
        <time>2021-07-23T09:31:08.058Z</time>
      </trkpt>
      <trkpt lat="46.84838" lon="9.18983">
        <ele>2170.47</ele>
        <time>2021-07-23T09:31:48.655Z</time>
      </trkpt>
      <trkpt lat="46.84831" lon="9.18988">
        <ele>2171.54</ele>
        <time>2021-07-23T09:32:29.858Z</time>
      </trkpt>
      <trkpt lat="46.84825" lon="9.1899">
        <ele>2173.04</ele>
        <time>2021-07-23T09:33:02.404Z</time>
      </trkpt>
      <trkpt lat="46.8479" lon="9.18995">
        <ele>2175.18</ele>
        <time>2021-07-23T09:34:33.173Z</time>
      </trkpt>
      <trkpt lat="46.84771" lon="9.18998">
        <ele>2175.61</ele>
        <time>2021-07-23T09:35:06.179Z</time>
      </trkpt>
      <trkpt lat="46.84766" lon="9.19">
        <ele>2175.39</ele>
        <time>2021-07-23T09:35:07.757Z</time>
      </trkpt>
      <trkpt lat="46.84759" lon="9.19003">
        <ele>2176.8900000382</ele>
        <time>2021-07-23T09:35:46.336Z</time>
      </trkpt>
      <trkpt lat="46.84753" lon="9.19009">
        <ele>2179.03</ele>
        <time>2021-07-23T09:36:24.781Z</time>
      </trkpt>
      <trkpt lat="46.84742" lon="9.1902">
        <ele>2183.31</ele>
        <time>2021-07-23T09:37:35.263Z</time>
      </trkpt>
      <trkpt lat="46.84732" lon="9.19027">
        <ele>2185.8800000209</ele>
        <time>2021-07-23T09:38:33.899Z</time>
      </trkpt>
      <trkpt lat="46.84727" lon="9.19034">
        <ele>2186.3099999911</ele>
        <time>2021-07-23T09:38:51.927Z</time>
      </trkpt>
      <trkpt lat="46.8472" lon="9.19048">
        <ele>2186.5199999992</ele>
        <time>2021-07-23T09:39:11.339Z</time>
      </trkpt>
      <trkpt lat="46.84711" lon="9.1906">
        <ele>2186.95</ele>
        <time>2021-07-23T09:39:36.022Z</time>
      </trkpt>
      <trkpt lat="46.84704" lon="9.1907">
        <ele>2188.4499999989</ele>
        <time>2021-07-23T09:40:27.781Z</time>
      </trkpt>
      <trkpt lat="46.84696" lon="9.19082">
        <ele>2189.95</ele>
        <time>2021-07-23T09:41:26.235Z</time>
      </trkpt>
      <trkpt lat="46.84689" lon="9.19092">
        <ele>2190.38</ele>
        <time>2021-07-23T09:41:48.692Z</time>
      </trkpt>
      <trkpt lat="46.84685" lon="9.19097">
        <ele>2190.38</ele>
        <time>2021-07-23T09:41:55.908Z</time>
      </trkpt>
      <trkpt lat="46.84677" lon="9.19101">
        <ele>2190.8099999925</ele>
        <time>2021-07-23T09:42:16.294Z</time>
      </trkpt>
      <trkpt lat="46.84665" lon="9.19105">
        <ele>2192.3000000303</ele>
        <time>2021-07-23T09:43:11.512Z</time>
      </trkpt>
      <trkpt lat="46.84656" lon="9.19111">
        <ele>2194.23</ele>
        <time>2021-07-23T09:44:03.826Z</time>
      </trkpt>
      <trkpt lat="46.84643" lon="9.19119">
        <ele>2197.65</ele>
        <time>2021-07-23T09:45:18.421Z</time>
      </trkpt>
      <trkpt lat="46.84636" lon="9.19125">
        <ele>2199.15</ele>
        <time>2021-07-23T09:46:01.336Z</time>
      </trkpt>
      <trkpt lat="46.84636" lon="9.19125">
        <ele>2199.15</ele>
        <time>2021-07-23T09:46:01.899Z</time>
      </trkpt>
      <trkpt lat="46.84636" lon="9.19125">
        <ele>2199.15</ele>
        <time>2021-07-23T09:46:01.899Z</time>
      </trkpt>
      <trkpt lat="46.84636" lon="9.19125">
        <ele>2199.15</ele>
        <time>2021-07-23T09:46:02.463Z</time>
      </trkpt>
      <trkpt lat="46.84634" lon="9.19126">
        <ele>2200.6499998905</ele>
        <time>2021-07-23T09:46:13.642Z</time>
      </trkpt>
      <trkpt lat="46.84626" lon="9.19132">
        <ele>2203.01</ele>
        <time>2021-07-23T09:47:01.194Z</time>
      </trkpt>
      <trkpt lat="46.84618" lon="9.19137">
        <ele>2204.29</ele>
        <time>2021-07-23T09:47:47.208Z</time>
      </trkpt>
      <trkpt lat="46.8461" lon="9.19141">
        <ele>2205.15</ele>
        <time>2021-07-23T09:48:17.868Z</time>
      </trkpt>
      <trkpt lat="46.84591" lon="9.19147">
        <ele>2205.79</ele>
        <time>2021-07-23T09:48:56.030Z</time>
      </trkpt>
      <trkpt lat="46.84582" lon="9.19151">
        <ele>2205.79</ele>
        <time>2021-07-23T09:49:08.928Z</time>
      </trkpt>
      <trkpt lat="46.84573" lon="9.19157">
        <ele>2206.2200000008</ele>
        <time>2021-07-23T09:49:31.465Z</time>
      </trkpt>
      <trkpt lat="46.84571" lon="9.19161">
        <ele>2206.61</ele>
        <time>2021-07-23T09:49:45.630Z</time>
      </trkpt>
      <trkpt lat="46.84569" lon="9.19171">
        <ele>2207.6599999779</ele>
        <time>2021-07-23T09:50:23.318Z</time>
      </trkpt>
      <trkpt lat="46.84562" lon="9.19183">
        <ele>2207.6600000443</ele>
        <time>2021-07-23T09:50:38.109Z</time>
      </trkpt>
      <trkpt lat="46.84558" lon="9.1919">
        <ele>2208.45</ele>
        <time>2021-07-23T09:51:08.149Z</time>
      </trkpt>
      <trkpt lat="46.84556" lon="9.19199">
        <ele>2208.45</ele>
        <time>2021-07-23T09:51:17.024Z</time>
      </trkpt>
      <trkpt lat="46.84556" lon="9.19213">
        <ele>2207.3999999702</ele>
        <time>2021-07-23T09:51:19.622Z</time>
      </trkpt>
      <trkpt lat="46.84555" lon="9.19224">
        <ele>2206.61</ele>
        <time>2021-07-23T09:51:21.681Z</time>
      </trkpt>
      <trkpt lat="46.84552" lon="9.19236">
        <ele>2206.61</ele>
        <time>2021-07-23T09:51:33.663Z</time>
      </trkpt>
      <trkpt lat="46.84546" lon="9.1926">
        <ele>2208.709999981</ele>
        <time>2021-07-23T09:52:51.213Z</time>
      </trkpt>
      <trkpt lat="46.84539" lon="9.19287">
        <ele>2210.81</ele>
        <time>2021-07-23T09:54:06.265Z</time>
      </trkpt>
      <trkpt lat="46.84527" lon="9.19322">
        <ele>2215.5300000778</ele>
        <time>2021-07-23T09:56:27.888Z</time>
      </trkpt>
      <trkpt lat="46.84523" lon="9.19341">
        <ele>2218.41</ele>
        <time>2021-07-23T09:57:39.800Z</time>
      </trkpt>
      <trkpt lat="46.8452" lon="9.19354">
        <ele>2219.98</ele>
        <time>2021-07-23T09:58:29.431Z</time>
      </trkpt>
      <trkpt lat="46.84514" lon="9.19365">
        <ele>2222.35</ele>
        <time>2021-07-23T09:59:20.325Z</time>
      </trkpt>
      <trkpt lat="46.84505" lon="9.1938">
        <ele>2224.7</ele>
        <time>2021-07-23T10:00:32.505Z</time>
      </trkpt>
      <trkpt lat="46.84494" lon="9.19403">
        <ele>2228.64</ele>
        <time>2021-07-23T10:02:14.027Z</time>
      </trkpt>
      <trkpt lat="46.84486" lon="9.19421">
        <ele>2231.5199999448</ele>
        <time>2021-07-23T10:03:31.679Z</time>
      </trkpt>
      <trkpt lat="46.84474" lon="9.19447">
        <ele>2234.9299999761</ele>
        <time>2021-07-23T10:05:25.141Z</time>
      </trkpt>
      <trkpt lat="46.84459" lon="9.19471">
        <ele>2239.6500000238</ele>
        <time>2021-07-23T10:07:22.745Z</time>
      </trkpt>
      <trkpt lat="46.84449" lon="9.19482">
        <ele>2241.2199999675</ele>
        <time>2021-07-23T10:08:22.088Z</time>
      </trkpt>
      <trkpt lat="46.84431" lon="9.19499">
        <ele>2244.89</ele>
        <time>2021-07-23T10:10:15.422Z</time>
      </trkpt>
      <trkpt lat="46.84424" lon="9.19508">
        <ele>2244.89000001</ele>
        <time>2021-07-23T10:10:28.203Z</time>
      </trkpt>
      <trkpt lat="46.84417" lon="9.19516">
        <ele>2245.68</ele>
        <time>2021-07-23T10:10:56.796Z</time>
      </trkpt>
      <trkpt lat="46.84405" lon="9.19531">
        <ele>2246.73</ele>
        <time>2021-07-23T10:11:39.238Z</time>
      </trkpt>
      <trkpt lat="46.84386" lon="9.19558">
        <ele>2249.3499999972</ele>
        <time>2021-07-23T10:13:12.698Z</time>
      </trkpt>
      <trkpt lat="46.84382" lon="9.19567">
        <ele>2249.09</ele>
        <time>2021-07-23T10:13:15.089Z</time>
      </trkpt>
      <trkpt lat="46.84375" lon="9.19587">
        <ele>2249.35</ele>
        <time>2021-07-23T10:13:40.023Z</time>
      </trkpt>
      <trkpt lat="46.84369" lon="9.19597">
        <ele>2249.88</ele>
        <time>2021-07-23T10:14:03.084Z</time>
      </trkpt>
      <trkpt lat="46.8436" lon="9.19614">
        <ele>2251.97</ele>
        <time>2021-07-23T10:15:20.850Z</time>
      </trkpt>
      <trkpt lat="46.8435" lon="9.19636">
        <ele>2255.3799999838</ele>
        <time>2021-07-23T10:16:56.405Z</time>
      </trkpt>
      <trkpt lat="46.84344" lon="9.19647">
        <ele>2254.6000000331</ele>
        <time>2021-07-23T10:16:59.016Z</time>
      </trkpt>
      <trkpt lat="46.84339" lon="9.1966">
        <ele>2255.38</ele>
        <time>2021-07-23T10:17:28.604Z</time>
      </trkpt>
      <trkpt lat="46.84332" lon="9.19674">
        <ele>2257.4800000369</ele>
        <time>2021-07-23T10:18:31.337Z</time>
      </trkpt>
      <trkpt lat="46.84323" lon="9.19685">
        <ele>2259.06</ele>
        <time>2021-07-23T10:19:33.379Z</time>
      </trkpt>
      <trkpt lat="46.84312" lon="9.19693">
        <ele>2261.41000004</ele>
        <time>2021-07-23T10:20:38.356Z</time>
      </trkpt>
      <trkpt lat="46.84304" lon="9.19696">
        <ele>2262.4600000316</ele>
        <time>2021-07-23T10:21:18.390Z</time>
      </trkpt>
      <trkpt lat="46.84298" lon="9.19698">
        <ele>2263.7799999479</ele>
        <time>2021-07-23T10:21:50.937Z</time>
      </trkpt>
      <trkpt lat="46.84279" lon="9.19708">
        <ele>2268.4900000455</ele>
        <time>2021-07-23T10:23:37.737Z</time>
      </trkpt>
      <trkpt lat="46.84274" lon="9.19714">
        <ele>2269.0200000186</ele>
        <time>2021-07-23T10:23:57.350Z</time>
      </trkpt>
      <trkpt lat="46.84271" lon="9.1972">
        <ele>2269.2799999948</ele>
        <time>2021-07-23T10:24:09.630Z</time>
      </trkpt>
      <trkpt lat="46.84262" lon="9.19727">
        <ele>2270.3299999863</ele>
        <time>2021-07-23T10:24:47.074Z</time>
      </trkpt>
      <trkpt lat="46.84252" lon="9.19732">
        <ele>2272.69</ele>
        <time>2021-07-23T10:25:42.969Z</time>
      </trkpt>
      <trkpt lat="46.84246" lon="9.19737">
        <ele>2273.9999999624</ele>
        <time>2021-07-23T10:26:19.495Z</time>
      </trkpt>
      <trkpt lat="46.8424" lon="9.19745">
        <ele>2275.5700000075</ele>
        <time>2021-07-23T10:27:02.442Z</time>
      </trkpt>
      <trkpt lat="46.84237" lon="9.19751">
        <ele>2276.3599999873</ele>
        <time>2021-07-23T10:27:29.328Z</time>
      </trkpt>
      <trkpt lat="46.84234" lon="9.19765">
        <ele>2276.62</ele>
        <time>2021-07-23T10:27:47.370Z</time>
      </trkpt>
      <trkpt lat="46.84232" lon="9.19774">
        <ele>2276.62</ele>
        <time>2021-07-23T10:27:56.245Z</time>
      </trkpt>
      <trkpt lat="46.84229" lon="9.19783">
        <ele>2276.78</ele>
        <time>2021-07-23T10:28:08.192Z</time>
      </trkpt>
      <trkpt lat="46.84229" lon="9.19783">
        <ele>2276.78</ele>
        <time>2021-07-23T10:28:08.192Z</time>
      </trkpt>
      <trkpt lat="46.8422" lon="9.198">
        <ele>2276.72</ele>
        <time>2021-07-23T10:28:27.167Z</time>
      </trkpt>
      <trkpt lat="46.84208" lon="9.19822">
        <ele>2276.4000000017</ele>
        <time>2021-07-23T10:28:34.873Z</time>
      </trkpt>
      <trkpt lat="46.84202" lon="9.19836">
        <ele>2276.57</ele>
        <time>2021-07-23T10:28:52.844Z</time>
      </trkpt>
      <trkpt lat="46.84196" lon="9.19854">
        <ele>2276.730000003</ele>
        <time>2021-07-23T10:29:13.875Z</time>
      </trkpt>
      <trkpt lat="46.84191" lon="9.19872">
        <ele>2277.3599999869</ele>
        <time>2021-07-23T10:29:45.203Z</time>
      </trkpt>
      <trkpt lat="46.84183" lon="9.19905">
        <ele>2277.52</ele>
        <time>2021-07-23T10:30:20.180Z</time>
      </trkpt>
      <trkpt lat="46.84178" lon="9.19926">
        <ele>2278.2</ele>
        <time>2021-07-23T10:30:55.424Z</time>
      </trkpt>
      <trkpt lat="46.84175" lon="9.19938">
        <ele>2278.5199999623</ele>
        <time>2021-07-23T10:31:13.455Z</time>
      </trkpt>
      <trkpt lat="46.84171" lon="9.19948">
        <ele>2277.7200000556</ele>
        <time>2021-07-23T10:31:15.604Z</time>
      </trkpt>
      <trkpt lat="46.84155" lon="9.19981">
        <ele>2277.92</ele>
        <time>2021-07-23T10:31:56.232Z</time>
      </trkpt>
      <trkpt lat="46.8415" lon="9.19994">
        <ele>2278.86</ele>
        <time>2021-07-23T10:32:30.020Z</time>
      </trkpt>
      <trkpt lat="46.84146" lon="9.20007">
        <ele>2279.0099999977</ele>
        <time>2021-07-23T10:32:45.583Z</time>
      </trkpt>
      <trkpt lat="46.84142" lon="9.20025">
        <ele>2278.19</ele>
        <time>2021-07-23T10:32:48.883Z</time>
      </trkpt>
      <trkpt lat="46.84136" lon="9.20042">
        <ele>2276.52</ele>
        <time>2021-07-23T10:32:52.433Z</time>
      </trkpt>
      <trkpt lat="46.84129" lon="9.20055">
        <ele>2275.3800000212</ele>
        <time>2021-07-23T10:32:55.503Z</time>
      </trkpt>
      <trkpt lat="46.84109" lon="9.20088">
        <ele>2274.6000000161</ele>
        <time>2021-07-23T10:33:06.353Z</time>
      </trkpt>
      <trkpt lat="46.84101" lon="9.20102">
        <ele>2276.45</ele>
        <time>2021-07-23T10:34:12.348Z</time>
      </trkpt>
      <trkpt lat="46.84087" lon="9.20125">
        <ele>2278.71</ele>
        <time>2021-07-23T10:35:33.203Z</time>
      </trkpt>
      <trkpt lat="46.8408" lon="9.20141">
        <ele>2280.4200000415</ele>
        <time>2021-07-23T10:36:40.161Z</time>
      </trkpt>
      <trkpt lat="46.84074" lon="9.20152">
        <ele>2282.0200000086</ele>
        <time>2021-07-23T10:37:31.058Z</time>
      </trkpt>
      <trkpt lat="46.8407" lon="9.20162">
        <ele>2282.31</ele>
        <time>2021-07-23T10:37:47.402Z</time>
      </trkpt>
      <trkpt lat="46.84064" lon="9.20169">
        <ele>2283.4800000193</ele>
        <time>2021-07-23T10:38:28.001Z</time>
      </trkpt>
      <trkpt lat="46.84059" lon="9.20177">
        <ele>2284.1000000305</ele>
        <time>2021-07-23T10:38:50.798Z</time>
      </trkpt>
      <trkpt lat="46.84055" lon="9.20182">
        <ele>2284.8299999513</ele>
        <time>2021-07-23T10:39:18.631Z</time>
      </trkpt>
      <trkpt lat="46.84048" lon="9.20187">
        <ele>2286.8499999208</ele>
        <time>2021-07-23T10:39:59.836Z</time>
      </trkpt>
      <trkpt lat="46.84031" lon="9.20201">
        <ele>2291.9200000167</ele>
        <time>2021-07-23T10:41:43.029Z</time>
      </trkpt>
      <trkpt lat="46.84026" lon="9.20208">
        <ele>2292.8299999395</ele>
        <time>2021-07-23T10:42:18.620Z</time>
      </trkpt>
      <trkpt lat="46.84015" lon="9.20224">
        <ele>2293.56</ele>
        <time>2021-07-23T10:42:55.117Z</time>
      </trkpt>
      <trkpt lat="46.84007" lon="9.20232">
        <ele>2296.23</ele>
        <time>2021-07-23T10:43:46.379Z</time>
      </trkpt>
      <trkpt lat="46.83997" lon="9.20237">
        <ele>2299.429999883</ele>
        <time>2021-07-23T10:44:42.274Z</time>
      </trkpt>
      <trkpt lat="46.83985" lon="9.20249">
        <ele>2303.6999999665</ele>
        <time>2021-07-23T10:45:59.167Z</time>
      </trkpt>
      <trkpt lat="46.83972" lon="9.20267">
        <ele>2308.3899999614</ele>
        <time>2021-07-23T10:47:33.864Z</time>
      </trkpt>
      <trkpt lat="46.8396" lon="9.20288">
        <ele>2312.87</ele>
        <time>2021-07-23T10:49:12.858Z</time>
      </trkpt>
      <trkpt lat="46.83954" lon="9.20298">
        <ele>2314.9999999825</ele>
        <time>2021-07-23T10:50:00.980Z</time>
      </trkpt>
      <trkpt lat="46.83945" lon="9.20327">
        <ele>2314.43</ele>
        <time>2021-07-23T10:50:08.791Z</time>
      </trkpt>
      <trkpt lat="46.83935" lon="9.2036">
        <ele>2311.87</ele>
        <time>2021-07-23T10:50:15.489Z</time>
      </trkpt>
      <trkpt lat="46.83933" lon="9.20368">
        <ele>2311.59</ele>
        <time>2021-07-23T10:50:17.175Z</time>
      </trkpt>
      <trkpt lat="46.83932" lon="9.20372">
        <ele>2311.59</ele>
        <time>2021-07-23T10:50:21.169Z</time>
      </trkpt>
      <trkpt lat="46.83929" lon="9.20376">
        <ele>2311.4</ele>
        <time>2021-07-23T10:50:22.357Z</time>
      </trkpt>
      <trkpt lat="46.83921" lon="9.20386">
        <ele>2309.28</ele>
        <time>2021-07-23T10:50:25.212Z</time>
      </trkpt>
      <trkpt lat="46.83914" lon="9.20396">
        <ele>2306.52</ele>
        <time>2021-07-23T10:50:27.867Z</time>
      </trkpt>
      <trkpt lat="46.83913" lon="9.20406">
        <ele>2303.430000008</ele>
        <time>2021-07-23T10:50:29.743Z</time>
      </trkpt>
      <trkpt lat="46.83904" lon="9.20429">
        <ele>2298.35</ele>
        <time>2021-07-23T10:50:34.660Z</time>
      </trkpt>
      <trkpt lat="46.83899" lon="9.20432">
        <ele>2296.6500001503</ele>
        <time>2021-07-23T10:50:36.126Z</time>
      </trkpt>
      <trkpt lat="46.83898" lon="9.20441">
        <ele>2294.9600000245</ele>
        <time>2021-07-23T10:50:37.818Z</time>
      </trkpt>
      <trkpt lat="46.83891" lon="9.20457">
        <ele>2293.27</ele>
        <time>2021-07-23T10:50:41.342Z</time>
      </trkpt>
      <trkpt lat="46.83887" lon="9.20462">
        <ele>2292.3000000781</ele>
        <time>2021-07-23T10:50:42.770Z</time>
      </trkpt>
      <trkpt lat="46.83885" lon="9.20471">
        <ele>2291.09</ele>
        <time>2021-07-23T10:50:44.526Z</time>
      </trkpt>
      <trkpt lat="46.8389" lon="9.20495">
        <ele>2289.63</ele>
        <time>2021-07-23T10:50:49.181Z</time>
      </trkpt>
      <trkpt lat="46.83894" lon="9.20504">
        <ele>2289.39</ele>
        <time>2021-07-23T10:50:51.639Z</time>
      </trkpt>
      <trkpt lat="46.83893" lon="9.20511">
        <ele>2287.94</ele>
        <time>2021-07-23T10:50:52.966Z</time>
      </trkpt>
      <trkpt lat="46.83887" lon="9.20528">
        <ele>2285.76</ele>
        <time>2021-07-23T10:50:56.516Z</time>
      </trkpt>
      <trkpt lat="46.83883" lon="9.20533">
        <ele>2285.5199999437</ele>
        <time>2021-07-23T10:50:58.072Z</time>
      </trkpt>
      <trkpt lat="46.83881" lon="9.20539">
        <ele>2285.04</ele>
        <time>2021-07-23T10:50:59.310Z</time>
      </trkpt>
      <trkpt lat="46.83875" lon="9.20544">
        <ele>2283.8300000562</ele>
        <time>2021-07-23T10:51:01.184Z</time>
      </trkpt>
      <trkpt lat="46.83868" lon="9.20554">
        <ele>2282.86</ele>
        <time>2021-07-23T10:51:03.839Z</time>
      </trkpt>
      <trkpt lat="46.83863" lon="9.20562">
        <ele>2282.6200000158</ele>
        <time>2021-07-23T10:51:06.328Z</time>
      </trkpt>
      <trkpt lat="46.83861" lon="9.20568">
        <ele>2282.86</ele>
        <time>2021-07-23T10:51:17.462Z</time>
      </trkpt>
      <trkpt lat="46.83854" lon="9.20582">
        <ele>2281.1999999521</ele>
        <time>2021-07-23T10:51:20.680Z</time>
      </trkpt>
      <trkpt lat="46.83849" lon="9.20591">
        <ele>2280.3500000321</ele>
        <time>2021-07-23T10:51:22.831Z</time>
      </trkpt>
      <trkpt lat="46.83843" lon="9.20601">
        <ele>2279.95</ele>
        <time>2021-07-23T10:51:25.562Z</time>
      </trkpt>
      <trkpt lat="46.83842" lon="9.20606">
        <ele>2278.7500001339</ele>
        <time>2021-07-23T10:51:26.529Z</time>
      </trkpt>
      <trkpt lat="46.83838" lon="9.20616">
        <ele>2277.2900000121</ele>
        <time>2021-07-23T10:51:28.679Z</time>
      </trkpt>
      <trkpt lat="46.83835" lon="9.20631">
        <ele>2276.8100000153</ele>
        <time>2021-07-23T10:51:31.860Z</time>
      </trkpt>
      <trkpt lat="46.83829" lon="9.20656">
        <ele>2277.54</ele>
        <time>2021-07-23T10:52:11.239Z</time>
      </trkpt>
      <trkpt lat="46.83825" lon="9.20672">
        <ele>2278.0200000011</ele>
        <time>2021-07-23T10:52:36.899Z</time>
      </trkpt>
      <trkpt lat="46.83821" lon="9.20687">
        <ele>2278.5</ele>
        <time>2021-07-23T10:53:02.034Z</time>
      </trkpt>
      <trkpt lat="46.83818" lon="9.20695">
        <ele>2277.6900000076</ele>
        <time>2021-07-23T10:53:03.727Z</time>
      </trkpt>
      <trkpt lat="46.83817" lon="9.20705">
        <ele>2276.64</ele>
        <time>2021-07-23T10:53:05.603Z</time>
      </trkpt>
      <trkpt lat="46.83814" lon="9.20727">
        <ele>2275.44</ele>
        <time>2021-07-23T10:53:09.765Z</time>
      </trkpt>
      <trkpt lat="46.83812" lon="9.20747">
        <ele>2274.25</ele>
        <time>2021-07-23T10:53:13.516Z</time>
      </trkpt>
      <trkpt lat="46.83809" lon="9.20767">
        <ele>2272.15</ele>
        <time>2021-07-23T10:53:17.316Z</time>
      </trkpt>
      <trkpt lat="46.83807" lon="9.20794">
        <ele>2269.6100000589</ele>
        <time>2021-07-23T10:53:22.355Z</time>
      </trkpt>
      <trkpt lat="46.83805" lon="9.20852">
        <ele>2264.9599999448</ele>
        <time>2021-07-23T10:53:33.132Z</time>
      </trkpt>
      <trkpt lat="46.83804" lon="9.20865">
        <ele>2263.4700000178</ele>
        <time>2021-07-23T10:53:35.559Z</time>
      </trkpt>
      <trkpt lat="46.83801" lon="9.20883">
        <ele>2261.97</ele>
        <time>2021-07-23T10:53:38.997Z</time>
      </trkpt>
      <trkpt lat="46.83799" lon="9.20895">
        <ele>2260.3200000482</ele>
        <time>2021-07-23T10:53:41.289Z</time>
      </trkpt>
      <trkpt lat="46.83799" lon="9.2091">
        <ele>2257.92</ele>
        <time>2021-07-23T10:53:44.073Z</time>
      </trkpt>
      <trkpt lat="46.83798" lon="9.20926">
        <ele>2255.8299999791</ele>
        <time>2021-07-23T10:53:47.054Z</time>
      </trkpt>
      <trkpt lat="46.83797" lon="9.20939">
        <ele>2254.93</ele>
        <time>2021-07-23T10:53:49.482Z</time>
      </trkpt>
      <trkpt lat="46.83795" lon="9.20948">
        <ele>2254.03</ele>
        <time>2021-07-23T10:53:51.238Z</time>
      </trkpt>
      <trkpt lat="46.83792" lon="9.2096">
        <ele>2253.1300000085</ele>
        <time>2021-07-23T10:53:53.609Z</time>
      </trkpt>
      <trkpt lat="46.83787" lon="9.20972">
        <ele>2251.34</ele>
        <time>2021-07-23T10:53:56.216Z</time>
      </trkpt>
      <trkpt lat="46.83782" lon="9.20986">
        <ele>2249.0799999237</ele>
        <time>2021-07-23T10:53:59.147Z</time>
      </trkpt>
      <trkpt lat="46.83782" lon="9.20988">
        <ele>2248.7900000346</ele>
        <time>2021-07-23T10:53:59.518Z</time>
      </trkpt>
      <trkpt lat="46.83781" lon="9.20993">
        <ele>2247.98</ele>
        <time>2021-07-23T10:54:00.485Z</time>
      </trkpt>
      <trkpt lat="46.8378" lon="9.20997">
        <ele>2247.29</ele>
        <time>2021-07-23T10:54:01.275Z</time>
      </trkpt>
      <trkpt lat="46.8378" lon="9.21">
        <ele>2246.78</ele>
        <time>2021-07-23T10:54:01.832Z</time>
      </trkpt>
      <trkpt lat="46.83776" lon="9.21017">
        <ele>2244.15</ele>
        <time>2021-07-23T10:54:05.168Z</time>
      </trkpt>
      <trkpt lat="46.83773" lon="9.21025">
        <ele>2243.23</ele>
        <time>2021-07-23T10:54:06.861Z</time>
      </trkpt>
      <trkpt lat="46.83771" lon="9.2103">
        <ele>2242.65</ele>
        <time>2021-07-23T10:54:07.936Z</time>
      </trkpt>
      <trkpt lat="46.83768" lon="9.2104">
        <ele>2241.45</ele>
        <time>2021-07-23T10:54:09.962Z</time>
      </trkpt>
      <trkpt lat="46.83761" lon="9.21052">
        <ele>2239.81</ele>
        <time>2021-07-23T10:54:12.888Z</time>
      </trkpt>
      <trkpt lat="46.83756" lon="9.21063">
        <ele>2238.79</ele>
        <time>2021-07-23T10:54:15.339Z</time>
      </trkpt>
      <trkpt lat="46.83752" lon="9.21073">
        <ele>2237.86</ele>
        <time>2021-07-23T10:54:17.489Z</time>
      </trkpt>
      <trkpt lat="46.83747" lon="9.21086">
        <ele>2237.109999997</ele>
        <time>2021-07-23T10:54:20.256Z</time>
      </trkpt>
      <trkpt lat="46.83743" lon="9.21097">
        <ele>2236.66</ele>
        <time>2021-07-23T10:54:22.623Z</time>
      </trkpt>
      <trkpt lat="46.83741" lon="9.21115">
        <ele>2236.66</ele>
        <time>2021-07-23T10:54:39.728Z</time>
      </trkpt>
      <trkpt lat="46.8374" lon="9.21118">
        <ele>2236.79</ele>
        <time>2021-07-23T10:54:45.462Z</time>
      </trkpt>
      <trkpt lat="46.8374" lon="9.21126">
        <ele>2237.1099999939</ele>
        <time>2021-07-23T10:54:59.354Z</time>
      </trkpt>
      <trkpt lat="46.83738" lon="9.21139">
        <ele>2237.8599999934</ele>
        <time>2021-07-23T10:55:27.070Z</time>
      </trkpt>
      <trkpt lat="46.83737" lon="9.21154">
        <ele>2237.5600000025</ele>
        <time>2021-07-23T10:55:30.652Z</time>
      </trkpt>
      <trkpt lat="46.83736" lon="9.21169">
        <ele>2236.5099999699</ele>
        <time>2021-07-23T10:55:33.449Z</time>
      </trkpt>
      <trkpt lat="46.83735" lon="9.21177">
        <ele>2235.76</ele>
        <time>2021-07-23T10:55:34.958Z</time>
      </trkpt>
      <trkpt lat="46.83734" lon="9.21178">
        <ele>2235.6800000168</ele>
        <time>2021-07-23T10:55:35.261Z</time>
      </trkpt>
      <trkpt lat="46.83731" lon="9.21187">
        <ele>2234.87</ele>
        <time>2021-07-23T10:55:37.118Z</time>
      </trkpt>
      <trkpt lat="46.83724" lon="9.21199">
        <ele>2233.78</ele>
        <time>2021-07-23T10:55:40.045Z</time>
      </trkpt>
      <trkpt lat="46.83722" lon="9.21204">
        <ele>2233.4600000031</ele>
        <time>2021-07-23T10:55:41.120Z</time>
      </trkpt>
      <trkpt lat="46.83723" lon="9.21214">
        <ele>2233.25</ele>
        <time>2021-07-23T10:55:43.490Z</time>
      </trkpt>
      <trkpt lat="46.83725" lon="9.21234">
        <ele>2232.2799999827</ele>
        <time>2021-07-23T10:55:47.241Z</time>
      </trkpt>
      <trkpt lat="46.83727" lon="9.21243">
        <ele>2231.8600000191</ele>
        <time>2021-07-23T10:55:48.871Z</time>
      </trkpt>
      <trkpt lat="46.83731" lon="9.21266">
        <ele>2231.4200000013</ele>
        <time>2021-07-23T10:55:54.634Z</time>
      </trkpt>
      <trkpt lat="46.83733" lon="9.21275">
        <ele>2231.51</ele>
        <time>2021-07-23T10:56:04.805Z</time>
      </trkpt>
      <trkpt lat="46.83735" lon="9.2128">
        <ele>2231.5699999984</ele>
        <time>2021-07-23T10:56:11.113Z</time>
      </trkpt>
      <trkpt lat="46.83738" lon="9.21292">
        <ele>2232.02</ele>
        <time>2021-07-23T10:56:32.274Z</time>
      </trkpt>
      <trkpt lat="46.83738" lon="9.21298">
        <ele>2231.96</ele>
        <time>2021-07-23T10:56:33.958Z</time>
      </trkpt>
      <trkpt lat="46.83738" lon="9.21299">
        <ele>2231.96</ele>
        <time>2021-07-23T10:56:34.896Z</time>
      </trkpt>
      <trkpt lat="46.83736" lon="9.21307">
        <ele>2232.8199999235</ele>
        <time>2021-07-23T10:57:05.711Z</time>
      </trkpt>
      <trkpt lat="46.83732" lon="9.21317">
        <ele>2233.0399999874</ele>
        <time>2021-07-23T10:57:20.282Z</time>
      </trkpt>
      <trkpt lat="46.83725" lon="9.21329">
        <ele>2232.8999999983</ele>
        <time>2021-07-23T10:57:24.803Z</time>
      </trkpt>
      <trkpt lat="46.83721" lon="9.21336">
        <ele>2232.76</ele>
        <time>2021-07-23T10:57:27.136Z</time>
      </trkpt>
      <trkpt lat="46.83717" lon="9.21345">
        <ele>2233.47</ele>
        <time>2021-07-23T10:57:52.500Z</time>
      </trkpt>
      <trkpt lat="46.83714" lon="9.21349">
        <ele>2233.47</ele>
        <time>2021-07-23T10:57:58.068Z</time>
      </trkpt>
      <trkpt lat="46.83709" lon="9.21354">
        <ele>2232.8200000418</ele>
        <time>2021-07-23T10:57:59.711Z</time>
      </trkpt>
      <trkpt lat="46.83701" lon="9.21356">
        <ele>2232.0300000371</ele>
        <time>2021-07-23T10:58:01.913Z</time>
      </trkpt>
      <trkpt lat="46.83693" lon="9.21358">
        <ele>2230.65</ele>
        <time>2021-07-23T10:58:04.115Z</time>
      </trkpt>
      <trkpt lat="46.83685" lon="9.21361">
        <ele>2228.92</ele>
        <time>2021-07-23T10:58:06.355Z</time>
      </trkpt>
      <trkpt lat="46.83675" lon="9.21363">
        <ele>2227.62</ele>
        <time>2021-07-23T10:58:09.093Z</time>
      </trkpt>
      <trkpt lat="46.8367" lon="9.21363">
        <ele>2227.4</ele>
        <time>2021-07-23T10:58:10.593Z</time>
      </trkpt>
      <trkpt lat="46.8366" lon="9.21361">
        <ele>2226.54</ele>
        <time>2021-07-23T10:58:13.331Z</time>
      </trkpt>
      <trkpt lat="46.83652" lon="9.2136">
        <ele>2225.95</ele>
        <time>2021-07-23T10:58:15.509Z</time>
      </trkpt>
      <trkpt lat="46.83651" lon="9.2136">
        <ele>2225.8900000258</ele>
        <time>2021-07-23T10:58:15.771Z</time>
      </trkpt>
      <trkpt lat="46.83647" lon="9.21362">
        <ele>2225.739999997</ele>
        <time>2021-07-23T10:58:17.147Z</time>
      </trkpt>
      <trkpt lat="46.83645" lon="9.21364">
        <ele>2225.6700000016</ele>
        <time>2021-07-23T10:58:17.991Z</time>
      </trkpt>
      <trkpt lat="46.83636" lon="9.21377">
        <ele>2225.2400000008</ele>
        <time>2021-07-23T10:58:22.170Z</time>
      </trkpt>
      <trkpt lat="46.83628" lon="9.21393">
        <ele>2224.5899999949</ele>
        <time>2021-07-23T10:58:26.097Z</time>
      </trkpt>
      <trkpt lat="46.83622" lon="9.21405">
        <ele>2223.73</ele>
        <time>2021-07-23T10:58:28.855Z</time>
      </trkpt>
      <trkpt lat="46.83616" lon="9.21413">
        <ele>2223.94</ele>
        <time>2021-07-23T10:58:43.446Z</time>
      </trkpt>
      <trkpt lat="46.83613" lon="9.21416">
        <ele>2223.84</ele>
        <time>2021-07-23T10:58:44.731Z</time>
      </trkpt>
      <trkpt lat="46.83608" lon="9.21419">
        <ele>2223.73</ele>
        <time>2021-07-23T10:58:46.801Z</time>
      </trkpt>
      <trkpt lat="46.83604" lon="9.21423">
        <ele>2223.080000016</ele>
        <time>2021-07-23T10:58:48.115Z</time>
      </trkpt>
      <trkpt lat="46.83587" lon="9.21443">
        <ele>2219.3899999424</ele>
        <time>2021-07-23T10:58:54.035Z</time>
      </trkpt>
      <trkpt lat="46.83578" lon="9.21461">
        <ele>2217.23</ele>
        <time>2021-07-23T10:58:58.172Z</time>
      </trkpt>
      <trkpt lat="46.83567" lon="9.21477">
        <ele>2216.58</ele>
        <time>2021-07-23T10:59:02.921Z</time>
      </trkpt>
      <trkpt lat="46.83566" lon="9.21479">
        <ele>2216.15</ele>
        <time>2021-07-23T10:59:03.380Z</time>
      </trkpt>
      <trkpt lat="46.83567" lon="9.2148">
        <ele>2216.15</ele>
        <time>2021-07-23T10:59:04.531Z</time>
      </trkpt>
      <trkpt lat="46.83566" lon="9.21479">
        <ele>2216.15</ele>
        <time>2021-07-23T10:59:05.681Z</time>
      </trkpt>
      <trkpt lat="46.83559" lon="9.21492">
        <ele>2215.72</ele>
        <time>2021-07-23T10:59:09.274Z</time>
      </trkpt>
      <trkpt lat="46.83554" lon="9.21505">
        <ele>2215.93</ele>
        <time>2021-07-23T10:59:26.514Z</time>
      </trkpt>
      <trkpt lat="46.83549" lon="9.21519">
        <ele>2216.28</ele>
        <time>2021-07-23T10:59:47.578Z</time>
      </trkpt>
      <trkpt lat="46.83547" lon="9.21524">
        <ele>2216.3599999942</ele>
        <time>2021-07-23T10:59:54.244Z</time>
      </trkpt>
      <trkpt lat="46.83544" lon="9.21532">
        <ele>2216.3599999954</ele>
        <time>2021-07-23T11:00:02.802Z</time>
      </trkpt>
      <trkpt lat="46.8354" lon="9.21534">
        <ele>2216.04</ele>
        <time>2021-07-23T11:00:03.948Z</time>
      </trkpt>
      <trkpt lat="46.83539" lon="9.21534">
        <ele>2215.93</ele>
        <time>2021-07-23T11:00:04.220Z</time>
      </trkpt>
      <trkpt lat="46.83535" lon="9.21533">
        <ele>2215.2800000425</ele>
        <time>2021-07-23T11:00:05.320Z</time>
      </trkpt>
      <trkpt lat="46.83527" lon="9.21514">
        <ele>2213.33</ele>
        <time>2021-07-23T11:00:09.461Z</time>
      </trkpt>
      <trkpt lat="46.83523" lon="9.21504">
        <ele>2211.87</ele>
        <time>2021-07-23T11:00:11.610Z</time>
      </trkpt>
      <trkpt lat="46.83523" lon="9.21504">
        <ele>2211.87</ele>
        <time>2021-07-23T11:00:11.610Z</time>
      </trkpt>
      <trkpt lat="46.83523" lon="9.21496">
        <ele>2210.9299999818</ele>
        <time>2021-07-23T11:00:13.095Z</time>
      </trkpt>
      <trkpt lat="46.83523" lon="9.2149">
        <ele>2210.3000000174</ele>
        <time>2021-07-23T11:00:14.209Z</time>
      </trkpt>
      <trkpt lat="46.83523" lon="9.21484">
        <ele>2209.8100000485</ele>
        <time>2021-07-23T11:00:15.322Z</time>
      </trkpt>
      <trkpt lat="46.83524" lon="9.21474">
        <ele>2209.04</ele>
        <time>2021-07-23T11:00:17.197Z</time>
      </trkpt>
      <trkpt lat="46.83521" lon="9.21473">
        <ele>2208.6500000459</ele>
        <time>2021-07-23T11:00:18.032Z</time>
      </trkpt>
      <trkpt lat="46.83518" lon="9.21474">
        <ele>2208.66</ele>
        <time>2021-07-23T11:00:22.381Z</time>
      </trkpt>
      <trkpt lat="46.83513" lon="9.21479">
        <ele>2208.6200000026</ele>
        <time>2021-07-23T11:00:29.924Z</time>
      </trkpt>
      <trkpt lat="46.83501" lon="9.21494">
        <ele>2208.5200000004</ele>
        <time>2021-07-23T11:00:49.659Z</time>
      </trkpt>
      <trkpt lat="46.83499" lon="9.21497">
        <ele>2208.5499999979</ele>
        <time>2021-07-23T11:00:54.005Z</time>
      </trkpt>
      <trkpt lat="46.83495" lon="9.21509">
        <ele>2209.72</ele>
        <time>2021-07-23T11:01:38.858Z</time>
      </trkpt>
      <trkpt lat="46.8349" lon="9.21537">
        <ele>2210.5500000031</ele>
        <time>2021-07-23T11:02:22.926Z</time>
      </trkpt>
      <trkpt lat="46.83487" lon="9.21548">
        <ele>2210.7099999945</ele>
        <time>2021-07-23T11:02:36.487Z</time>
      </trkpt>
      <trkpt lat="46.83483" lon="9.21559">
        <ele>2210.71</ele>
        <time>2021-07-23T11:02:48.172Z</time>
      </trkpt>
      <trkpt lat="46.83478" lon="9.21567">
        <ele>2210.64</ele>
        <time>2021-07-23T11:02:51.426Z</time>
      </trkpt>
      <trkpt lat="46.83472" lon="9.21572">
        <ele>2210.37</ele>
        <time>2021-07-23T11:02:53.596Z</time>
      </trkpt>
      <trkpt lat="46.83464" lon="9.21579">
        <ele>2210.13</ele>
        <time>2021-07-23T11:02:56.955Z</time>
      </trkpt>
      <trkpt lat="46.83449" lon="9.21589">
        <ele>2208.3799999807</ele>
        <time>2021-07-23T11:03:01.427Z</time>
      </trkpt>
      <trkpt lat="46.83439" lon="9.21595">
        <ele>2206.9299999411</ele>
        <time>2021-07-23T11:03:04.359Z</time>
      </trkpt>
      <trkpt lat="46.83432" lon="9.21596">
        <ele>2205.740000011</ele>
        <time>2021-07-23T11:03:06.267Z</time>
      </trkpt>
      <trkpt lat="46.83425" lon="9.21593">
        <ele>2203.769999942</ele>
        <time>2021-07-23T11:03:08.246Z</time>
      </trkpt>
      <trkpt lat="46.83421" lon="9.2159">
        <ele>2202.88</ele>
        <time>2021-07-23T11:03:09.466Z</time>
      </trkpt>
      <trkpt lat="46.83419" lon="9.21585">
        <ele>2202.6100000181</ele>
        <time>2021-07-23T11:03:10.541Z</time>
      </trkpt>
      <trkpt lat="46.83401" lon="9.21596">
        <ele>2198.5300000982</ele>
        <time>2021-07-23T11:03:15.833Z</time>
      </trkpt>
      <trkpt lat="46.83382" lon="9.21607">
        <ele>2192.5400000772</ele>
        <time>2021-07-23T11:03:21.377Z</time>
      </trkpt>
      <trkpt lat="46.83365" lon="9.21635">
        <ele>2185.419999993</ele>
        <time>2021-07-23T11:03:28.324Z</time>
      </trkpt>
      <trkpt lat="46.83346" lon="9.21659">
        <ele>2178.59</ele>
        <time>2021-07-23T11:03:35.136Z</time>
      </trkpt>
      <trkpt lat="46.83318" lon="9.21679">
        <ele>2170.83</ele>
        <time>2021-07-23T11:03:43.590Z</time>
      </trkpt>
      <trkpt lat="46.83293" lon="9.21694">
        <ele>2164.44</ele>
        <time>2021-07-23T11:03:50.921Z</time>
      </trkpt>
      <trkpt lat="46.83258" lon="9.21718">
        <ele>2159.27</ele>
        <time>2021-07-23T11:04:01.409Z</time>
      </trkpt>
      <trkpt lat="46.83227" lon="9.21739">
        <ele>2157.29</ele>
        <time>2021-07-23T11:04:10.500Z</time>
      </trkpt>
      <trkpt lat="46.83205" lon="9.21753">
        <ele>2151.48</ele>
        <time>2021-07-23T11:04:17.009Z</time>
      </trkpt>
      <trkpt lat="46.83164" lon="9.21751">
        <ele>2140.14</ele>
        <time>2021-07-23T11:04:28.138Z</time>
      </trkpt>
      <trkpt lat="46.83141" lon="9.21749">
        <ele>2128.8800000506</ele>
        <time>2021-07-23T11:04:34.388Z</time>
      </trkpt>
      <trkpt lat="46.83138" lon="9.21751">
        <ele>2129.51</ele>
        <time>2021-07-23T11:04:51.827Z</time>
      </trkpt>
      <trkpt lat="46.83135" lon="9.21757">
        <ele>2128.0400000704</ele>
        <time>2021-07-23T11:04:53.206Z</time>
      </trkpt>
      <trkpt lat="46.83128" lon="9.21759">
        <ele>2127.01</ele>
        <time>2021-07-23T11:04:55.141Z</time>
      </trkpt>
      <trkpt lat="46.83124" lon="9.21763">
        <ele>2125.9200000915</ele>
        <time>2021-07-23T11:04:56.455Z</time>
      </trkpt>
      <trkpt lat="46.83122" lon="9.2177">
        <ele>2124.8799999037</ele>
        <time>2021-07-23T11:04:57.863Z</time>
      </trkpt>
      <trkpt lat="46.8312" lon="9.21775">
        <ele>2123.12</ele>
        <time>2021-07-23T11:04:58.938Z</time>
      </trkpt>
      <trkpt lat="46.83122" lon="9.21783">
        <ele>2121.2799999172</ele>
        <time>2021-07-23T11:05:00.519Z</time>
      </trkpt>
      <trkpt lat="46.8312" lon="9.21787">
        <ele>2120.7500000189</ele>
        <time>2021-07-23T11:05:01.439Z</time>
      </trkpt>
      <trkpt lat="46.83108" lon="9.21787">
        <ele>2118.5099999424</ele>
        <time>2021-07-23T11:05:04.694Z</time>
      </trkpt>
      <trkpt lat="46.83098" lon="9.21787">
        <ele>2115.0900001422</ele>
        <time>2021-07-23T11:05:07.407Z</time>
      </trkpt>
      <trkpt lat="46.83088" lon="9.21787">
        <ele>2111.22</ele>
        <time>2021-07-23T11:05:10.119Z</time>
      </trkpt>
      <trkpt lat="46.83065" lon="9.21777">
        <ele>2103.94</ele>
        <time>2021-07-23T11:05:16.629Z</time>
      </trkpt>
      <trkpt lat="46.8305" lon="9.21779">
        <ele>2099.98</ele>
        <time>2021-07-23T11:05:20.715Z</time>
      </trkpt>
      <trkpt lat="46.83037" lon="9.21784">
        <ele>2094.6799999595</ele>
        <time>2021-07-23T11:05:24.361Z</time>
      </trkpt>
      <trkpt lat="46.83029" lon="9.21787">
        <ele>2091.7799999381</ele>
        <time>2021-07-23T11:05:26.602Z</time>
      </trkpt>
      <trkpt lat="46.83024" lon="9.21787">
        <ele>2090.14</ele>
        <time>2021-07-23T11:05:27.958Z</time>
      </trkpt>
      <trkpt lat="46.8302" lon="9.21795">
        <ele>2088.3299999827</ele>
        <time>2021-07-23T11:05:29.797Z</time>
      </trkpt>
      <trkpt lat="46.83017" lon="9.21796">
        <ele>2087.9900000425</ele>
        <time>2021-07-23T11:05:30.632Z</time>
      </trkpt>
      <trkpt lat="46.83014" lon="9.21803">
        <ele>2085.8599999819</ele>
        <time>2021-07-23T11:05:32.165Z</time>
      </trkpt>
      <trkpt lat="46.8301" lon="9.21803">
        <ele>2084.67</ele>
        <time>2021-07-23T11:05:33.250Z</time>
      </trkpt>
      <trkpt lat="46.83006" lon="9.21815">
        <ele>2081.8</ele>
        <time>2021-07-23T11:05:35.727Z</time>
      </trkpt>
      <trkpt lat="46.82996" lon="9.21825">
        <ele>2079.9699999338</ele>
        <time>2021-07-23T11:05:39.014Z</time>
      </trkpt>
      <trkpt lat="46.82989" lon="9.21836">
        <ele>2076.819999986</ele>
        <time>2021-07-23T11:05:41.802Z</time>
      </trkpt>
      <trkpt lat="46.82984" lon="9.2184">
        <ele>2075.4099999179</ele>
        <time>2021-07-23T11:05:43.349Z</time>
      </trkpt>
      <trkpt lat="46.8298" lon="9.2184">
        <ele>2073.88</ele>
        <time>2021-07-23T11:05:44.434Z</time>
      </trkpt>
      <trkpt lat="46.82972" lon="9.21836">
        <ele>2072.52</ele>
        <time>2021-07-23T11:05:46.727Z</time>
      </trkpt>
      <trkpt lat="46.82966" lon="9.21838">
        <ele>2070.5200000692</ele>
        <time>2021-07-23T11:05:48.397Z</time>
      </trkpt>
      <trkpt lat="46.8296" lon="9.21842">
        <ele>2068.7200000623</ele>
        <time>2021-07-23T11:05:50.186Z</time>
      </trkpt>
      <trkpt lat="46.82955" lon="9.21851">
        <ele>2065.8899998951</ele>
        <time>2021-07-23T11:05:52.337Z</time>
      </trkpt>
      <trkpt lat="46.82952" lon="9.2185">
        <ele>2064.8899999556</ele>
        <time>2021-07-23T11:05:53.172Z</time>
      </trkpt>
      <trkpt lat="46.8295" lon="9.21851">
        <ele>2064.15</ele>
        <time>2021-07-23T11:05:53.746Z</time>
      </trkpt>
      <trkpt lat="46.82943" lon="9.21844">
        <ele>2061.94</ele>
        <time>2021-07-23T11:05:56.046Z</time>
      </trkpt>
      <trkpt lat="46.82941" lon="9.21839">
        <ele>2060.8099999909</ele>
        <time>2021-07-23T11:05:57.121Z</time>
      </trkpt>
      <trkpt lat="46.82938" lon="9.21839">
        <ele>2060.1100000564</ele>
        <time>2021-07-23T11:05:57.935Z</time>
      </trkpt>
      <trkpt lat="46.82932" lon="9.21832">
        <ele>2057.6199999698</ele>
        <time>2021-07-23T11:06:00.018Z</time>
      </trkpt>
      <trkpt lat="46.82925" lon="9.21829">
        <ele>2056.4900000368</ele>
        <time>2021-07-23T11:06:01.997Z</time>
      </trkpt>
      <trkpt lat="46.82918" lon="9.21822">
        <ele>2053.869999929</ele>
        <time>2021-07-23T11:06:04.297Z</time>
      </trkpt>
      <trkpt lat="46.82913" lon="9.21817">
        <ele>2051.97</ele>
        <time>2021-07-23T11:06:05.941Z</time>
      </trkpt>
      <trkpt lat="46.82908" lon="9.21811">
        <ele>2050.54</ele>
        <time>2021-07-23T11:06:07.696Z</time>
      </trkpt>
      <trkpt lat="46.82903" lon="9.21808">
        <ele>2049.58</ele>
        <time>2021-07-23T11:06:09.162Z</time>
      </trkpt>
      <trkpt lat="46.82895" lon="9.21806">
        <ele>2047.6699999805</ele>
        <time>2021-07-23T11:06:11.364Z</time>
      </trkpt>
      <trkpt lat="46.82892" lon="9.21803">
        <ele>2046.96</ele>
        <time>2021-07-23T11:06:12.350Z</time>
      </trkpt>
      <trkpt lat="46.82889" lon="9.21801">
        <ele>2046.51</ele>
        <time>2021-07-23T11:06:13.244Z</time>
      </trkpt>
      <trkpt lat="46.82887" lon="9.218">
        <ele>2046.0399999399</ele>
        <time>2021-07-23T11:06:13.818Z</time>
      </trkpt>
      <trkpt lat="46.82886" lon="9.21799">
        <ele>2045.7500001275</ele>
        <time>2021-07-23T11:06:14.146Z</time>
      </trkpt>
      <trkpt lat="46.82878" lon="9.21799">
        <ele>2043.23</ele>
        <time>2021-07-23T11:06:16.316Z</time>
      </trkpt>
      <trkpt lat="46.82872" lon="9.21796">
        <ele>2040.7200000812</ele>
        <time>2021-07-23T11:06:18.037Z</time>
      </trkpt>
      <trkpt lat="46.82861" lon="9.2179">
        <ele>2036.76</ele>
        <time>2021-07-23T11:06:21.222Z</time>
      </trkpt>
      <trkpt lat="46.8285" lon="9.21793">
        <ele>2034.4699999792</ele>
        <time>2021-07-23T11:06:24.257Z</time>
      </trkpt>
      <trkpt lat="46.82848" lon="9.21796">
        <ele>2033.7800000308</ele>
        <time>2021-07-23T11:06:25.035Z</time>
      </trkpt>
      <trkpt lat="46.82845" lon="9.21797">
        <ele>2033.0600000365</ele>
        <time>2021-07-23T11:06:25.869Z</time>
      </trkpt>
      <trkpt lat="46.8284" lon="9.218">
        <ele>2030.6099999048</ele>
        <time>2021-07-23T11:06:27.336Z</time>
      </trkpt>
      <trkpt lat="46.82835" lon="9.21801">
        <ele>2029.240000011</ele>
        <time>2021-07-23T11:06:28.705Z</time>
      </trkpt>
      <trkpt lat="46.82818" lon="9.21792">
        <ele>2025.75</ele>
        <time>2021-07-23T11:06:33.609Z</time>
      </trkpt>
      <trkpt lat="46.82782" lon="9.21797">
        <ele>2019.9699999792</ele>
        <time>2021-07-23T11:06:43.419Z</time>
      </trkpt>
      <trkpt lat="46.82769" lon="9.21798">
        <ele>2017.83</ele>
        <time>2021-07-23T11:06:46.951Z</time>
      </trkpt>
      <trkpt lat="46.82756" lon="9.21801">
        <ele>2015.6</ele>
        <time>2021-07-23T11:06:50.521Z</time>
      </trkpt>
      <trkpt lat="46.82751" lon="9.21809">
        <ele>2014.4700000045</ele>
        <time>2021-07-23T11:06:52.532Z</time>
      </trkpt>
      <trkpt lat="46.8274" lon="9.21827">
        <ele>2011.2900000002</ele>
        <time>2021-07-23T11:06:57.011Z</time>
      </trkpt>
      <trkpt lat="46.82726" lon="9.21848">
        <ele>2006.1699999556</ele>
        <time>2021-07-23T11:07:02.453Z</time>
      </trkpt>
      <trkpt lat="46.8272" lon="9.21859">
        <ele>2003.48</ele>
        <time>2021-07-23T11:07:05.064Z</time>
      </trkpt>
      <trkpt lat="46.82716" lon="9.21869">
        <ele>2002.0199999952</ele>
        <time>2021-07-23T11:07:07.214Z</time>
      </trkpt>
      <trkpt lat="46.82712" lon="9.21877">
        <ele>2000.2900000013</ele>
        <time>2021-07-23T11:07:09.053Z</time>
      </trkpt>
      <trkpt lat="46.82708" lon="9.21888">
        <ele>1998.59</ele>
        <time>2021-07-23T11:07:11.366Z</time>
      </trkpt>
      <trkpt lat="46.82707" lon="9.21898">
        <ele>1997.41</ele>
        <time>2021-07-23T11:07:13.241Z</time>
      </trkpt>
      <trkpt lat="46.827" lon="9.21911">
        <ele>1994.63</ele>
        <time>2021-07-23T11:07:16.312Z</time>
      </trkpt>
      <trkpt lat="46.82695" lon="9.2192">
        <ele>1992.18</ele>
        <time>2021-07-23T11:07:18.464Z</time>
      </trkpt>
      <trkpt lat="46.82682" lon="9.21931">
        <ele>1987.6499999989</ele>
        <time>2021-07-23T11:07:22.539Z</time>
      </trkpt>
      <trkpt lat="46.82676" lon="9.21942">
        <ele>1985.68</ele>
        <time>2021-07-23T11:07:25.150Z</time>
      </trkpt>
      <trkpt lat="46.82669" lon="9.21953">
        <ele>1983.18</ele>
        <time>2021-07-23T11:07:27.938Z</time>
      </trkpt>
      <trkpt lat="46.82665" lon="9.21961">
        <ele>1981.8200000281</ele>
        <time>2021-07-23T11:07:29.777Z</time>
      </trkpt>
      <trkpt lat="46.82662" lon="9.21974">
        <ele>1980.71</ele>
        <time>2021-07-23T11:07:32.323Z</time>
      </trkpt>
      <trkpt lat="46.82657" lon="9.21989">
        <ele>1979.1800000527</ele>
        <time>2021-07-23T11:07:35.420Z</time>
      </trkpt>
      <trkpt lat="46.82653" lon="9.22006">
        <ele>1977.4299999841</ele>
        <time>2021-07-23T11:07:38.757Z</time>
      </trkpt>
      <trkpt lat="46.82651" lon="9.2202">
        <ele>1975.1</ele>
        <time>2021-07-23T11:07:41.411Z</time>
      </trkpt>
      <trkpt lat="46.82647" lon="9.2203">
        <ele>1973.0800000869</ele>
        <time>2021-07-23T11:07:43.561Z</time>
      </trkpt>
      <trkpt lat="46.82641" lon="9.22043">
        <ele>1969.1300000351</ele>
        <time>2021-07-23T11:07:46.472Z</time>
      </trkpt>
      <trkpt lat="46.82632" lon="9.22057">
        <ele>1964.26</ele>
        <time>2021-07-23T11:07:50.038Z</time>
      </trkpt>
      <trkpt lat="46.82625" lon="9.22067">
        <ele>1960.61</ele>
        <time>2021-07-23T11:07:52.693Z</time>
      </trkpt>
      <trkpt lat="46.82617" lon="9.22084">
        <ele>1955.74</ele>
        <time>2021-07-23T11:07:56.522Z</time>
      </trkpt>
      <trkpt lat="46.82612" lon="9.22093">
        <ele>1952.9699999471</ele>
        <time>2021-07-23T11:07:58.674Z</time>
      </trkpt>
      <trkpt lat="46.82608" lon="9.22098">
        <ele>1951.4900000178</ele>
        <time>2021-07-23T11:08:00.102Z</time>
      </trkpt>
      <trkpt lat="46.82604" lon="9.22112">
        <ele>1947.8399999917</ele>
        <time>2021-07-23T11:08:02.918Z</time>
      </trkpt>
      <trkpt lat="46.826" lon="9.22118">
        <ele>1945.65</ele>
        <time>2021-07-23T11:08:04.473Z</time>
      </trkpt>
      <trkpt lat="46.82594" lon="9.22125">
        <ele>1943.2499998931</ele>
        <time>2021-07-23T11:08:06.556Z</time>
      </trkpt>
      <trkpt lat="46.82589" lon="9.22128">
        <ele>1941.3300000909</ele>
        <time>2021-07-23T11:08:08.022Z</time>
      </trkpt>
      <trkpt lat="46.82582" lon="9.22144">
        <ele>1937.08</ele>
        <time>2021-07-23T11:08:11.547Z</time>
      </trkpt>
      <trkpt lat="46.82577" lon="9.22147">
        <ele>1934.94</ele>
        <time>2021-07-23T11:08:13.013Z</time>
      </trkpt>
      <trkpt lat="46.82574" lon="9.22148">
        <ele>1934.110000087</ele>
        <time>2021-07-23T11:08:13.848Z</time>
      </trkpt>
      <trkpt lat="46.8257" lon="9.22151">
        <ele>1932.5099998478</ele>
        <time>2021-07-23T11:08:15.067Z</time>
      </trkpt>
      <trkpt lat="46.82569" lon="9.22156">
        <ele>1931.0500000736</ele>
        <time>2021-07-23T11:08:16.034Z</time>
      </trkpt>
      <trkpt lat="46.82564" lon="9.22159">
        <ele>1929.16</ele>
        <time>2021-07-23T11:08:17.500Z</time>
      </trkpt>
      <trkpt lat="46.82561" lon="9.22165">
        <ele>1927.16</ele>
        <time>2021-07-23T11:08:18.880Z</time>
      </trkpt>
      <trkpt lat="46.82551" lon="9.22179">
        <ele>1922.7800000292</ele>
        <time>2021-07-23T11:08:22.636Z</time>
      </trkpt>
      <trkpt lat="46.82541" lon="9.22193">
        <ele>1919.96</ele>
        <time>2021-07-23T11:08:26.393Z</time>
      </trkpt>
      <trkpt lat="46.82534" lon="9.22196">
        <ele>1917.9599998943</ele>
        <time>2021-07-23T11:08:28.372Z</time>
      </trkpt>
      <trkpt lat="46.82528" lon="9.22199">
        <ele>1916.48</ele>
        <time>2021-07-23T11:08:30.092Z</time>
      </trkpt>
      <trkpt lat="46.82523" lon="9.22206">
        <ele>1915.31</ele>
        <time>2021-07-23T11:08:31.970Z</time>
      </trkpt>
      <trkpt lat="46.8252" lon="9.22212">
        <ele>1913.9800000436</ele>
        <time>2021-07-23T11:08:33.349Z</time>
      </trkpt>
      <trkpt lat="46.82515" lon="9.22215">
        <ele>1913.0700000347</ele>
        <time>2021-07-23T11:08:34.816Z</time>
      </trkpt>
      <trkpt lat="46.8251" lon="9.22222">
        <ele>1910.11</ele>
        <time>2021-07-23T11:08:36.694Z</time>
      </trkpt>
      <trkpt lat="46.82503" lon="9.22228">
        <ele>1908.3</ele>
        <time>2021-07-23T11:08:38.895Z</time>
      </trkpt>
      <trkpt lat="46.825" lon="9.2223">
        <ele>1908.699999977</ele>
        <time>2021-07-23T11:08:53.734Z</time>
      </trkpt>
      <trkpt lat="46.82494" lon="9.2225">
        <ele>1904.70000012</ele>
        <time>2021-07-23T11:08:57.787Z</time>
      </trkpt>
      <trkpt lat="46.82488" lon="9.22274">
        <ele>1900.91</ele>
        <time>2021-07-23T11:09:02.530Z</time>
      </trkpt>
      <trkpt lat="46.82484" lon="9.22285">
        <ele>1899.09</ele>
        <time>2021-07-23T11:09:04.842Z</time>
      </trkpt>
      <trkpt lat="46.82482" lon="9.22294">
        <ele>1897.5300000164</ele>
        <time>2021-07-23T11:09:06.599Z</time>
      </trkpt>
      <trkpt lat="46.82484" lon="9.22303">
        <ele>1896.84</ele>
        <time>2021-07-23T11:09:08.355Z</time>
      </trkpt>
      <trkpt lat="46.82486" lon="9.22314">
        <ele>1896.3100000108</ele>
        <time>2021-07-23T11:09:10.468Z</time>
      </trkpt>
      <trkpt lat="46.82485" lon="9.22326">
        <ele>1895.94</ele>
        <time>2021-07-23T11:09:12.933Z</time>
      </trkpt>
      <trkpt lat="46.82482" lon="9.22337">
        <ele>1894.66</ele>
        <time>2021-07-23T11:09:15.131Z</time>
      </trkpt>
      <trkpt lat="46.82476" lon="9.22349">
        <ele>1889.87</ele>
        <time>2021-07-23T11:09:17.890Z</time>
      </trkpt>
      <trkpt lat="46.82467" lon="9.22356">
        <ele>1886.9199999352</ele>
        <time>2021-07-23T11:09:20.655Z</time>
      </trkpt>
      <trkpt lat="46.82463" lon="9.22362">
        <ele>1885.19</ele>
        <time>2021-07-23T11:09:22.210Z</time>
      </trkpt>
      <trkpt lat="46.82454" lon="9.2237">
        <ele>1884.11</ele>
        <time>2021-07-23T11:09:25.068Z</time>
      </trkpt>
      <trkpt lat="46.82451" lon="9.22372">
        <ele>1883.0900000655</ele>
        <time>2021-07-23T11:09:25.962Z</time>
      </trkpt>
      <trkpt lat="46.82448" lon="9.2238">
        <ele>1878.72</ele>
        <time>2021-07-23T11:09:27.656Z</time>
      </trkpt>
      <trkpt lat="46.82448" lon="9.22384">
        <ele>1876.95</ele>
        <time>2021-07-23T11:09:28.398Z</time>
      </trkpt>
      <trkpt lat="46.82446" lon="9.22385">
        <ele>1875.37</ele>
        <time>2021-07-23T11:09:28.971Z</time>
      </trkpt>
      <trkpt lat="46.82443" lon="9.22385">
        <ele>1874.7199998523</ele>
        <time>2021-07-23T11:09:29.785Z</time>
      </trkpt>
      <trkpt lat="46.82444" lon="9.22388">
        <ele>1873.2300002037</ele>
        <time>2021-07-23T11:09:30.405Z</time>
      </trkpt>
      <trkpt lat="46.82445" lon="9.22392">
        <ele>1872.1400001255</ele>
        <time>2021-07-23T11:09:31.195Z</time>
      </trkpt>
      <trkpt lat="46.82442" lon="9.22392">
        <ele>1871.74</ele>
        <time>2021-07-23T11:09:32.009Z</time>
      </trkpt>
      <trkpt lat="46.82444" lon="9.22398">
        <ele>1869.6799998588</ele>
        <time>2021-07-23T11:09:33.248Z</time>
      </trkpt>
      <trkpt lat="46.82443" lon="9.22403">
        <ele>1868.08</ele>
        <time>2021-07-23T11:09:34.215Z</time>
      </trkpt>
      <trkpt lat="46.82442" lon="9.22409">
        <ele>1866.740000005</ele>
        <time>2021-07-23T11:09:35.361Z</time>
      </trkpt>
      <trkpt lat="46.82443" lon="9.22423">
        <ele>1863.7</ele>
        <time>2021-07-23T11:09:37.974Z</time>
      </trkpt>
      <trkpt lat="46.82447" lon="9.22439">
        <ele>1861.0999999239</ele>
        <time>2021-07-23T11:09:41.136Z</time>
      </trkpt>
      <trkpt lat="46.82448" lon="9.22454">
        <ele>1858.83</ele>
        <time>2021-07-23T11:09:43.933Z</time>
      </trkpt>
      <trkpt lat="46.8245" lon="9.22476">
        <ele>1854.7699999717</ele>
        <time>2021-07-23T11:09:48.052Z</time>
      </trkpt>
      <trkpt lat="46.82452" lon="9.22483">
        <ele>1853.4200001029</ele>
        <time>2021-07-23T11:09:49.460Z</time>
      </trkpt>
      <trkpt lat="46.82457" lon="9.22473">
        <ele>1851.98</ele>
        <time>2021-07-23T11:09:51.759Z</time>
      </trkpt>
      <trkpt lat="46.82461" lon="9.2247">
        <ele>1850.17</ele>
        <time>2021-07-23T11:09:52.979Z</time>
      </trkpt>
      <trkpt lat="46.82468" lon="9.22457">
        <ele>1847</ele>
        <time>2021-07-23T11:09:56.049Z</time>
      </trkpt>
      <trkpt lat="46.8247" lon="9.22455">
        <ele>1846.1200000244</ele>
        <time>2021-07-23T11:09:56.707Z</time>
      </trkpt>
      <trkpt lat="46.82478" lon="9.22467">
        <ele>1842.53</ele>
        <time>2021-07-23T11:09:59.817Z</time>
      </trkpt>
      <trkpt lat="46.82481" lon="9.22478">
        <ele>1840.02</ele>
        <time>2021-07-23T11:10:02.015Z</time>
      </trkpt>
      <trkpt lat="46.82481" lon="9.22484">
        <ele>1839.35</ele>
        <time>2021-07-23T11:10:03.128Z</time>
      </trkpt>
      <trkpt lat="46.82481" lon="9.22487">
        <ele>1839.19</ele>
        <time>2021-07-23T11:10:03.685Z</time>
      </trkpt>
      <trkpt lat="46.82483" lon="9.22489">
        <ele>1838.22</ele>
        <time>2021-07-23T11:10:04.343Z</time>
      </trkpt>
      <trkpt lat="46.82487" lon="9.22495">
        <ele>1835.8499999854</ele>
        <time>2021-07-23T11:10:05.897Z</time>
      </trkpt>
      <trkpt lat="46.8249" lon="9.22502">
        <ele>1834.2600000305</ele>
        <time>2021-07-23T11:10:07.431Z</time>
      </trkpt>
      <trkpt lat="46.82494" lon="9.2251">
        <ele>1833.1100000223</ele>
        <time>2021-07-23T11:10:09.270Z</time>
      </trkpt>
      <trkpt lat="46.82496" lon="9.2252">
        <ele>1831.82</ele>
        <time>2021-07-23T11:10:11.203Z</time>
      </trkpt>
      <trkpt lat="46.82498" lon="9.22538">
        <ele>1829.1999999872</ele>
        <time>2021-07-23T11:10:14.588Z</time>
      </trkpt>
      <trkpt lat="46.82499" lon="9.2255">
        <ele>1827.5</ele>
        <time>2021-07-23T11:10:16.832Z</time>
      </trkpt>
      <trkpt lat="46.825" lon="9.22568">
        <ele>1823.12</ele>
        <time>2021-07-23T11:10:20.184Z</time>
      </trkpt>
      <trkpt lat="46.82496" lon="9.22573">
        <ele>1822.86</ele>
        <time>2021-07-23T11:10:21.689Z</time>
      </trkpt>
      <trkpt lat="46.82497" lon="9.22576">
        <ele>1821.7600001721</ele>
        <time>2021-07-23T11:10:22.309Z</time>
      </trkpt>
      <trkpt lat="46.82497" lon="9.22584">
        <ele>1819.890000068</ele>
        <time>2021-07-23T11:10:23.793Z</time>
      </trkpt>
      <trkpt lat="46.825" lon="9.22612">
        <ele>1816.13</ele>
        <time>2021-07-23T11:10:29.054Z</time>
      </trkpt>
      <trkpt lat="46.82496" lon="9.22622">
        <ele>1814.05</ele>
        <time>2021-07-23T11:10:31.204Z</time>
      </trkpt>
      <trkpt lat="46.82491" lon="9.22631">
        <ele>1812.1400000563</ele>
        <time>2021-07-23T11:10:33.356Z</time>
      </trkpt>
      <trkpt lat="46.82484" lon="9.22642">
        <ele>1808.98</ele>
        <time>2021-07-23T11:10:36.144Z</time>
      </trkpt>
      <trkpt lat="46.82476" lon="9.22657">
        <ele>1804.130000075</ele>
        <time>2021-07-23T11:10:39.674Z</time>
      </trkpt>
      <trkpt lat="46.82468" lon="9.22678">
        <ele>1799.41</ele>
        <time>2021-07-23T11:10:44.135Z</time>
      </trkpt>
      <trkpt lat="46.82463" lon="9.22691">
        <ele>1796.44</ele>
        <time>2021-07-23T11:10:46.903Z</time>
      </trkpt>
      <trkpt lat="46.82461" lon="9.22699">
        <ele>1794.3900001172</ele>
        <time>2021-07-23T11:10:48.484Z</time>
      </trkpt>
      <trkpt lat="46.82458" lon="9.22709">
        <ele>1792.1100000433</ele>
        <time>2021-07-23T11:10:50.511Z</time>
      </trkpt>
      <trkpt lat="46.82454" lon="9.2272">
        <ele>1789.6999999828</ele>
        <time>2021-07-23T11:10:52.823Z</time>
      </trkpt>
      <trkpt lat="46.82452" lon="9.22725">
        <ele>1788.4800000256</ele>
        <time>2021-07-23T11:10:53.898Z</time>
      </trkpt>
      <trkpt lat="46.82448" lon="9.22732">
        <ele>1786.59</ele>
        <time>2021-07-23T11:10:55.591Z</time>
      </trkpt>
      <trkpt lat="46.82416" lon="9.22772">
        <ele>1777.959999957</ele>
        <time>2021-07-23T11:11:07.014Z</time>
      </trkpt>
      <trkpt lat="46.82393" lon="9.22796">
        <ele>1770.8</ele>
        <time>2021-07-23T11:11:14.680Z</time>
      </trkpt>
      <trkpt lat="46.82378" lon="9.22814">
        <ele>1766.58</ele>
        <time>2021-07-23T11:11:19.945Z</time>
      </trkpt>
      <trkpt lat="46.82361" lon="9.22833">
        <ele>1764.2799999885</ele>
        <time>2021-07-23T11:11:25.751Z</time>
      </trkpt>
      <trkpt lat="46.82353" lon="9.22843">
        <ele>1762.99</ele>
        <time>2021-07-23T11:11:28.607Z</time>
      </trkpt>
      <trkpt lat="46.82352" lon="9.22847">
        <ele>1763.12</ele>
        <time>2021-07-23T11:11:35.355Z</time>
      </trkpt>
      <trkpt lat="46.82351" lon="9.22852">
        <ele>1762.6700000093</ele>
        <time>2021-07-23T11:11:36.322Z</time>
      </trkpt>
      <trkpt lat="46.82351" lon="9.22859">
        <ele>1762.09</ele>
        <time>2021-07-23T11:11:37.621Z</time>
      </trkpt>
      <trkpt lat="46.82352" lon="9.22864">
        <ele>1761.99</ele>
        <time>2021-07-23T11:11:38.873Z</time>
      </trkpt>
      <trkpt lat="46.82353" lon="9.22868">
        <ele>1761.95</ele>
        <time>2021-07-23T11:11:40.083Z</time>
      </trkpt>
      <trkpt lat="46.82356" lon="9.22871">
        <ele>1762.1399999788</ele>
        <time>2021-07-23T11:11:48.930Z</time>
      </trkpt>
      <trkpt lat="46.8235" lon="9.2288">
        <ele>1758.5700000173</ele>
        <time>2021-07-23T11:11:51.262Z</time>
      </trkpt>
      <trkpt lat="46.8233" lon="9.22909">
        <ele>1749.500000026</ele>
        <time>2021-07-23T11:11:58.905Z</time>
      </trkpt>
      <trkpt lat="46.82297" lon="9.22963">
        <ele>1728.359999936</ele>
        <time>2021-07-23T11:12:12.344Z</time>
      </trkpt>
      <trkpt lat="46.82272" lon="9.22977">
        <ele>1722.670000011</ele>
        <time>2021-07-23T11:12:19.606Z</time>
      </trkpt>
      <trkpt lat="46.8224" lon="9.23">
        <ele>1715.639999968</ele>
        <time>2021-07-23T11:12:29.280Z</time>
      </trkpt>
      <trkpt lat="46.82229" lon="9.2302">
        <ele>1711.32</ele>
        <time>2021-07-23T11:12:34.043Z</time>
      </trkpt>
      <trkpt lat="46.82219" lon="9.23045">
        <ele>1703.8100000551</ele>
        <time>2021-07-23T11:12:39.418Z</time>
      </trkpt>
      <trkpt lat="46.82208" lon="9.23072">
        <ele>1696.6999999613</ele>
        <time>2021-07-23T11:12:45.251Z</time>
      </trkpt>
      <trkpt lat="46.822" lon="9.23089">
        <ele>1692.6499999556</ele>
        <time>2021-07-23T11:12:49.081Z</time>
      </trkpt>
      <trkpt lat="46.82194" lon="9.23102">
        <ele>1689.31</ele>
        <time>2021-07-23T11:12:51.992Z</time>
      </trkpt>
      <trkpt lat="46.82183" lon="9.23122">
        <ele>1683.99</ele>
        <time>2021-07-23T11:12:56.755Z</time>
      </trkpt>
      <trkpt lat="46.82179" lon="9.23132">
        <ele>1681.640000116</ele>
        <time>2021-07-23T11:12:58.905Z</time>
      </trkpt>
      <trkpt lat="46.82174" lon="9.23147">
        <ele>1677.0400000668</ele>
        <time>2021-07-23T11:13:02.002Z</time>
      </trkpt>
      <trkpt lat="46.8217" lon="9.23163">
        <ele>1672.8200001268</ele>
        <time>2021-07-23T11:13:05.164Z</time>
      </trkpt>
      <trkpt lat="46.82154" lon="9.23209">
        <ele>1664.07</ele>
        <time>2021-07-23T11:13:14.743Z</time>
      </trkpt>
      <trkpt lat="46.82136" lon="9.23248">
        <ele>1657.64</ele>
        <time>2021-07-23T11:13:23.475Z</time>
      </trkpt>
      <trkpt lat="46.82131" lon="9.23261">
        <ele>1654.8700000563</ele>
        <time>2021-07-23T11:13:26.243Z</time>
      </trkpt>
      <trkpt lat="46.82123" lon="9.23276">
        <ele>1650.82</ele>
        <time>2021-07-23T11:13:29.773Z</time>
      </trkpt>
      <trkpt lat="46.82105" lon="9.23312">
        <ele>1641.84</ele>
        <time>2021-07-23T11:13:38.050Z</time>
      </trkpt>
      <trkpt lat="46.82102" lon="9.23319">
        <ele>1639.7800000168</ele>
        <time>2021-07-23T11:13:39.583Z</time>
      </trkpt>
      <trkpt lat="46.82096" lon="9.23329">
        <ele>1638.2299999992</ele>
        <time>2021-07-23T11:13:42.052Z</time>
      </trkpt>
      <trkpt lat="46.82094" lon="9.23332">
        <ele>1638.07</ele>
        <time>2021-07-23T11:13:42.828Z</time>
      </trkpt>
      <trkpt lat="46.82091" lon="9.23334">
        <ele>1637.9100000125</ele>
        <time>2021-07-23T11:13:43.778Z</time>
      </trkpt>
      <trkpt lat="46.82087" lon="9.23344">
        <ele>1637.4199999852</ele>
        <time>2021-07-23T11:13:45.823Z</time>
      </trkpt>
      <trkpt lat="46.82084" lon="9.23349">
        <ele>1636.8</ele>
        <time>2021-07-23T11:13:47.057Z</time>
      </trkpt>
      <trkpt lat="46.8208" lon="9.23353">
        <ele>1636.47</ele>
        <time>2021-07-23T11:13:48.372Z</time>
      </trkpt>
      <trkpt lat="46.82082" lon="9.23367">
        <ele>1634.7999999755</ele>
        <time>2021-07-23T11:13:51.027Z</time>
      </trkpt>
      <trkpt lat="46.82081" lon="9.23371">
        <ele>1634.44</ele>
        <time>2021-07-23T11:13:51.817Z</time>
      </trkpt>
      <trkpt lat="46.82077" lon="9.23374">
        <ele>1634.170000003</ele>
        <time>2021-07-23T11:13:52.993Z</time>
      </trkpt>
      <trkpt lat="46.82072" lon="9.23379">
        <ele>1633.2600000164</ele>
        <time>2021-07-23T11:13:54.637Z</time>
      </trkpt>
      <trkpt lat="46.82061" lon="9.23392">
        <ele>1630.4199999928</ele>
        <time>2021-07-23T11:13:58.475Z</time>
      </trkpt>
      <trkpt lat="46.82054" lon="9.234">
        <ele>1628.2800000834</ele>
        <time>2021-07-23T11:14:00.885Z</time>
      </trkpt>
      <trkpt lat="46.82046" lon="9.23409">
        <ele>1625.7799998832</ele>
        <time>2021-07-23T11:14:03.624Z</time>
      </trkpt>
      <trkpt lat="46.82041" lon="9.23417">
        <ele>1623.3100000781</ele>
        <time>2021-07-23T11:14:05.635Z</time>
      </trkpt>
      <trkpt lat="46.82034" lon="9.23425">
        <ele>1622.01</ele>
        <time>2021-07-23T11:14:08.046Z</time>
      </trkpt>
      <trkpt lat="46.82039" lon="9.23435">
        <ele>1620.7000000058</ele>
        <time>2021-07-23T11:14:10.345Z</time>
      </trkpt>
      <trkpt lat="46.82042" lon="9.23447">
        <ele>1618.83</ele>
        <time>2021-07-23T11:14:12.716Z</time>
      </trkpt>
      <trkpt lat="46.82044" lon="9.2346">
        <ele>1617.2300000224</ele>
        <time>2021-07-23T11:14:15.190Z</time>
      </trkpt>
      <trkpt lat="46.82044" lon="9.23479">
        <ele>1614.64</ele>
        <time>2021-07-23T11:14:18.717Z</time>
      </trkpt>
      <trkpt lat="46.82045" lon="9.23489">
        <ele>1613.7000000181</ele>
        <time>2021-07-23T11:14:20.593Z</time>
      </trkpt>
      <trkpt lat="46.82047" lon="9.23508">
        <ele>1611.669999937</ele>
        <time>2021-07-23T11:14:24.161Z</time>
      </trkpt>
      <trkpt lat="46.82047" lon="9.23515">
        <ele>1610.7800000267</ele>
        <time>2021-07-23T11:14:25.461Z</time>
      </trkpt>
      <trkpt lat="46.82046" lon="9.23523">
        <ele>1609.7500000321</ele>
        <time>2021-07-23T11:14:26.970Z</time>
      </trkpt>
      <trkpt lat="46.82044" lon="9.23531">
        <ele>1608.7700000257</ele>
        <time>2021-07-23T11:14:28.551Z</time>
      </trkpt>
      <trkpt lat="46.82039" lon="9.23542">
        <ele>1607.4499999912</ele>
        <time>2021-07-23T11:14:31.003Z</time>
      </trkpt>
      <trkpt lat="46.82036" lon="9.23548">
        <ele>1606.5800000189</ele>
        <time>2021-07-23T11:14:32.382Z</time>
      </trkpt>
      <trkpt lat="46.82032" lon="9.23554">
        <ele>1605.4800000369</ele>
        <time>2021-07-23T11:14:33.937Z</time>
      </trkpt>
      <trkpt lat="46.82026" lon="9.23559">
        <ele>1604.4900000235</ele>
        <time>2021-07-23T11:14:35.811Z</time>
      </trkpt>
      <trkpt lat="46.82019" lon="9.23567">
        <ele>1602.7099998846</ele>
        <time>2021-07-23T11:14:38.221Z</time>
      </trkpt>
      <trkpt lat="46.82016" lon="9.23571">
        <ele>1601.9000000644</ele>
        <time>2021-07-23T11:14:39.323Z</time>
      </trkpt>
      <trkpt lat="46.82012" lon="9.23569">
        <ele>1601.690000002</ele>
        <time>2021-07-23T11:14:40.529Z</time>
      </trkpt>
      <trkpt lat="46.82" lon="9.23555">
        <ele>1602.7399999987</ele>
        <time>2021-07-23T11:15:22.384Z</time>
      </trkpt>
      <trkpt lat="46.81979" lon="9.23531">
        <ele>1604.7500000159</ele>
        <time>2021-07-23T11:16:39.060Z</time>
      </trkpt>
      <trkpt lat="46.81963" lon="9.23514">
        <ele>1606.1100000024</ele>
        <time>2021-07-23T11:17:33.131Z</time>
      </trkpt>
      <trkpt lat="46.81959" lon="9.23508">
        <ele>1606.4699999971</ele>
        <time>2021-07-23T11:17:48.133Z</time>
      </trkpt>
      <trkpt lat="46.81954" lon="9.23499">
        <ele>1607.27</ele>
        <time>2021-07-23T11:18:16.654Z</time>
      </trkpt>
      <trkpt lat="46.81952" lon="9.23493">
        <ele>1607.84</ele>
        <time>2021-07-23T11:18:38.130Z</time>
      </trkpt>
      <trkpt lat="46.8195" lon="9.23489">
        <ele>1608.2699999798</ele>
        <time>2021-07-23T11:18:54.500Z</time>
      </trkpt>
      <trkpt lat="46.81946" lon="9.23486">
        <ele>1608.56</ele>
        <time>2021-07-23T11:19:06.411Z</time>
      </trkpt>
      <trkpt lat="46.81938" lon="9.23474">
        <ele>1608.56</ele>
        <time>2021-07-23T11:19:22.131Z</time>
      </trkpt>
      <trkpt lat="46.81932" lon="9.23463">
        <ele>1608.5600000141</ele>
        <time>2021-07-23T11:19:35.330Z</time>
      </trkpt>
      <trkpt lat="46.81926" lon="9.23453">
        <ele>1608.9899999836</ele>
        <time>2021-07-23T11:19:56.763Z</time>
      </trkpt>
      <trkpt lat="46.81918" lon="9.23444">
        <ele>1609.6399999886</ele>
        <time>2021-07-23T11:20:23.487Z</time>
      </trkpt>
      <trkpt lat="46.81909" lon="9.23435">
        <ele>1609.9899999989</ele>
        <time>2021-07-23T11:20:44.666Z</time>
      </trkpt>
      <trkpt lat="46.81902" lon="9.23429">
        <ele>1609.92</ele>
        <time>2021-07-23T11:20:48.267Z</time>
      </trkpt>
      <trkpt lat="46.81894" lon="9.23422">
        <ele>1609.06</ele>
        <time>2021-07-23T11:20:50.797Z</time>
      </trkpt>
      <trkpt lat="46.81891" lon="9.23419">
        <ele>1609.37</ele>
        <time>2021-07-23T11:21:02.132Z</time>
      </trkpt>
      <trkpt lat="46.81887" lon="9.23417">
        <ele>1609.0500000081</ele>
        <time>2021-07-23T11:21:03.279Z</time>
      </trkpt>
      <trkpt lat="46.81882" lon="9.23413">
        <ele>1608.98</ele>
        <time>2021-07-23T11:21:05.689Z</time>
      </trkpt>
      <trkpt lat="46.81879" lon="9.2341">
        <ele>1609.06</ele>
        <time>2021-07-23T11:21:11.932Z</time>
      </trkpt>
      <trkpt lat="46.81875" lon="9.23403">
        <ele>1609.06</ele>
        <time>2021-07-23T11:21:20.489Z</time>
      </trkpt>
      <trkpt lat="46.81867" lon="9.23387">
        <ele>1609.2</ele>
        <time>2021-07-23T11:21:41.024Z</time>
      </trkpt>
      <trkpt lat="46.81864" lon="9.23381">
        <ele>1609.2</ele>
        <time>2021-07-23T11:21:47.997Z</time>
      </trkpt>
      <trkpt lat="46.8186" lon="9.23376">
        <ele>1609.2799999958</ele>
        <time>2021-07-23T11:21:56.382Z</time>
      </trkpt>
      <trkpt lat="46.81857" lon="9.23371">
        <ele>1609.2000000052</ele>
        <time>2021-07-23T11:21:58.182Z</time>
      </trkpt>
      <trkpt lat="46.81853" lon="9.23366">
        <ele>1609.2</ele>
        <time>2021-07-23T11:22:05.400Z</time>
      </trkpt>
      <trkpt lat="46.81849" lon="9.23359">
        <ele>1609.1300000008</ele>
        <time>2021-07-23T11:22:08.075Z</time>
      </trkpt>
      <trkpt lat="46.81845" lon="9.2335">
        <ele>1608.8400000021</ele>
        <time>2021-07-23T11:22:10.374Z</time>
      </trkpt>
      <trkpt lat="46.81837" lon="9.23338">
        <ele>1608.1299999945</ele>
        <time>2021-07-23T11:22:13.329Z</time>
      </trkpt>
      <trkpt lat="46.81831" lon="9.2333">
        <ele>1607.69</ele>
        <time>2021-07-23T11:22:15.558Z</time>
      </trkpt>
      <trkpt lat="46.81826" lon="9.23323">
        <ele>1607.33</ele>
        <time>2021-07-23T11:22:17.495Z</time>
      </trkpt>
      <trkpt lat="46.81818" lon="9.23313">
        <ele>1606.55</ele>
        <time>2021-07-23T11:22:20.350Z</time>
      </trkpt>
      <trkpt lat="46.81812" lon="9.23304">
        <ele>1605.61</ele>
        <time>2021-07-23T11:22:22.683Z</time>
      </trkpt>
      <trkpt lat="46.8181" lon="9.233">
        <ele>1605.32</ele>
        <time>2021-07-23T11:22:23.602Z</time>
      </trkpt>
      <trkpt lat="46.81808" lon="9.23297">
        <ele>1605.11</ele>
        <time>2021-07-23T11:22:24.380Z</time>
      </trkpt>
      <trkpt lat="46.81804" lon="9.23295">
        <ele>1605.0400000712</ele>
        <time>2021-07-23T11:22:26.074Z</time>
      </trkpt>
      <trkpt lat="46.81803" lon="9.23294">
        <ele>1605.25</ele>
        <time>2021-07-23T11:22:32.483Z</time>
      </trkpt>
      <trkpt lat="46.81804" lon="9.23294">
        <ele>1605.25</ele>
        <time>2021-07-23T11:22:33.664Z</time>
      </trkpt>
      <trkpt lat="46.81803" lon="9.23294">
        <ele>1605.25</ele>
        <time>2021-07-23T11:22:34.845Z</time>
      </trkpt>
      <trkpt lat="46.81799" lon="9.23291">
        <ele>1605.47</ele>
        <time>2021-07-23T11:22:45.550Z</time>
      </trkpt>
      <trkpt lat="46.81796" lon="9.23287">
        <ele>1605.53999999</ele>
        <time>2021-07-23T11:22:52.162Z</time>
      </trkpt>
      <trkpt lat="46.81787" lon="9.23272">
        <ele>1605.6800000016</ele>
        <time>2021-07-23T11:23:12.821Z</time>
      </trkpt>
      <trkpt lat="46.81785" lon="9.23269">
        <ele>1605.76</ele>
        <time>2021-07-23T11:23:18.101Z</time>
      </trkpt>
      <trkpt lat="46.81781" lon="9.23259">
        <ele>1606.0400000607</ele>
        <time>2021-07-23T11:23:34.168Z</time>
      </trkpt>
      <trkpt lat="46.81781" lon="9.23255">
        <ele>1606.47</ele>
        <time>2021-07-23T11:23:48.645Z</time>
      </trkpt>
      <trkpt lat="46.81782" lon="9.23241">
        <ele>1607.4800000333</ele>
        <time>2021-07-23T11:24:24.697Z</time>
      </trkpt>
      <trkpt lat="46.81784" lon="9.23229">
        <ele>1608.7000000452</ele>
        <time>2021-07-23T11:25:09.397Z</time>
      </trkpt>
      <trkpt lat="46.81784" lon="9.23226">
        <ele>1608.9199999539</ele>
        <time>2021-07-23T11:25:17.266Z</time>
      </trkpt>
      <trkpt lat="46.81781" lon="9.23209">
        <ele>1609.88</ele>
        <time>2021-07-23T11:25:53.090Z</time>
      </trkpt>
      <trkpt lat="46.81777" lon="9.23193">
        <ele>1611.62</ele>
        <time>2021-07-23T11:26:54.741Z</time>
      </trkpt>
      <trkpt lat="46.81775" lon="9.2318">
        <ele>1612.0799999926</ele>
        <time>2021-07-23T11:27:16.667Z</time>
      </trkpt>
      <trkpt lat="46.81773" lon="9.23163">
        <ele>1612.67</ele>
        <time>2021-07-23T11:27:44.965Z</time>
      </trkpt>
      <trkpt lat="46.81769" lon="9.23138">
        <ele>1613.1099999958</ele>
        <time>2021-07-23T11:28:16.226Z</time>
      </trkpt>
      <trkpt lat="46.81761" lon="9.23096">
        <ele>1612.18</ele>
        <time>2021-07-23T11:28:26.369Z</time>
      </trkpt>
      <trkpt lat="46.81757" lon="9.23071">
        <ele>1610.650000012</ele>
        <time>2021-07-23T11:28:31.135Z</time>
      </trkpt>
      <trkpt lat="46.81749" lon="9.2303">
        <ele>1611.45</ele>
        <time>2021-07-23T11:29:24.557Z</time>
      </trkpt>
      <trkpt lat="46.8174" lon="9.22984">
        <ele>1610.07</ele>
        <time>2021-07-23T11:29:34.551Z</time>
      </trkpt>
      <trkpt lat="46.81732" lon="9.22936">
        <ele>1608.3400000135</ele>
        <time>2021-07-23T11:29:44.071Z</time>
      </trkpt>
      <trkpt lat="46.81724" lon="9.22888">
        <ele>1606.8900000069</ele>
        <time>2021-07-23T11:29:54.319Z</time>
      </trkpt>
      <trkpt lat="46.81711" lon="9.22817">
        <ele>1605.9499999961</ele>
        <time>2021-07-23T11:30:13.961Z</time>
      </trkpt>
      <trkpt lat="46.81705" lon="9.22781">
        <ele>1605.33</ele>
        <time>2021-07-23T11:30:23.228Z</time>
      </trkpt>
      <trkpt lat="46.817" lon="9.22753">
        <ele>1604.67</ele>
        <time>2021-07-23T11:30:29.813Z</time>
      </trkpt>
      <trkpt lat="46.81695" lon="9.22734">
        <ele>1603.2699999959</ele>
        <time>2021-07-23T11:30:33.592Z</time>
      </trkpt>
      <trkpt lat="46.8169" lon="9.2272">
        <ele>1602.2</ele>
        <time>2021-07-23T11:30:36.524Z</time>
      </trkpt>
      <trkpt lat="46.81687" lon="9.22711">
        <ele>1601.6200000218</ele>
        <time>2021-07-23T11:30:38.382Z</time>
      </trkpt>
      <trkpt lat="46.81683" lon="9.227">
        <ele>1600.7099999628</ele>
        <time>2021-07-23T11:30:40.694Z</time>
      </trkpt>
      <trkpt lat="46.81681" lon="9.22697">
        <ele>1600.220000008</ele>
        <time>2021-07-23T11:30:41.472Z</time>
      </trkpt>
      <trkpt lat="46.81678" lon="9.2268">
        <ele>1598.9</ele>
        <time>2021-07-23T11:30:44.731Z</time>
      </trkpt>
      <trkpt lat="46.81677" lon="9.22675">
        <ele>1598.57</ele>
        <time>2021-07-23T11:30:45.698Z</time>
      </trkpt>
      <trkpt lat="46.81675" lon="9.22672">
        <ele>1598.33</ele>
        <time>2021-07-23T11:30:46.476Z</time>
      </trkpt>
      <trkpt lat="46.81673" lon="9.22669">
        <ele>1598.23</ele>
        <time>2021-07-23T11:30:47.414Z</time>
      </trkpt>
      <trkpt lat="46.81674" lon="9.2267">
        <ele>1598.23</ele>
        <time>2021-07-23T11:30:48.619Z</time>
      </trkpt>
      <trkpt lat="46.81673" lon="9.22669">
        <ele>1598.23</ele>
        <time>2021-07-23T11:30:49.825Z</time>
      </trkpt>
      <trkpt lat="46.81673" lon="9.22669">
        <ele>1598.23</ele>
        <time>2021-07-23T11:30:49.825Z</time>
      </trkpt>
      <trkpt lat="46.8167" lon="9.22672">
        <ele>1597.42</ele>
        <time>2021-07-23T11:30:50.811Z</time>
      </trkpt>
      <trkpt lat="46.81668" lon="9.22675">
        <ele>1596.9300000004</ele>
        <time>2021-07-23T11:30:51.588Z</time>
      </trkpt>
      <trkpt lat="46.81666" lon="9.22679">
        <ele>1596.4300000121</ele>
        <time>2021-07-23T11:30:52.508Z</time>
      </trkpt>
      <trkpt lat="46.81664" lon="9.22685">
        <ele>1595.85</ele>
        <time>2021-07-23T11:30:53.747Z</time>
      </trkpt>
      <trkpt lat="46.81662" lon="9.22692">
        <ele>1595.2</ele>
        <time>2021-07-23T11:30:55.155Z</time>
      </trkpt>
      <trkpt lat="46.8166" lon="9.22701">
        <ele>1594.3699999859</ele>
        <time>2021-07-23T11:30:56.912Z</time>
      </trkpt>
      <trkpt lat="46.8166" lon="9.22702">
        <ele>1594.27</ele>
        <time>2021-07-23T11:30:57.098Z</time>
      </trkpt>
      <trkpt lat="46.81655" lon="9.22712">
        <ele>1592.97</ele>
        <time>2021-07-23T11:30:59.397Z</time>
      </trkpt>
      <trkpt lat="46.81649" lon="9.22726">
        <ele>1591.72999997</ele>
        <time>2021-07-23T11:31:02.463Z</time>
      </trkpt>
      <trkpt lat="46.81648" lon="9.22728">
        <ele>1591.53</ele>
        <time>2021-07-23T11:31:02.923Z</time>
      </trkpt>
      <trkpt lat="46.81645" lon="9.22737">
        <ele>1590.9100000063</ele>
        <time>2021-07-23T11:31:04.781Z</time>
      </trkpt>
      <trkpt lat="46.81639" lon="9.22754">
        <ele>1589.93</ele>
        <time>2021-07-23T11:31:08.332Z</time>
      </trkpt>
      <trkpt lat="46.81636" lon="9.22759">
        <ele>1589.69</ele>
        <time>2021-07-23T11:31:09.597Z</time>
      </trkpt>
      <trkpt lat="46.81635" lon="9.22762">
        <ele>1589.56</ele>
        <time>2021-07-23T11:31:10.209Z</time>
      </trkpt>
      <trkpt lat="46.81632" lon="9.22769">
        <ele>1589.2900000108</ele>
        <time>2021-07-23T11:31:11.849Z</time>
      </trkpt>
      <trkpt lat="46.81624" lon="9.22781">
        <ele>1588.68</ele>
        <time>2021-07-23T11:31:15.022Z</time>
      </trkpt>
      <trkpt lat="46.81621" lon="9.22787">
        <ele>1588.12</ele>
        <time>2021-07-23T11:31:16.401Z</time>
      </trkpt>
      <trkpt lat="46.8162" lon="9.22792">
        <ele>1587.7500000177</ele>
        <time>2021-07-23T11:31:17.368Z</time>
      </trkpt>
      <trkpt lat="46.81619" lon="9.22798">
        <ele>1587.310000026</ele>
        <time>2021-07-23T11:31:18.515Z</time>
      </trkpt>
      <trkpt lat="46.81616" lon="9.2281">
        <ele>1586.0699999755</ele>
        <time>2021-07-23T11:31:20.886Z</time>
      </trkpt>
      <trkpt lat="46.81615" lon="9.22814">
        <ele>1585.7</ele>
        <time>2021-07-23T11:31:21.677Z</time>
      </trkpt>
      <trkpt lat="46.8161" lon="9.2283">
        <ele>1584.2900000133</ele>
        <time>2021-07-23T11:31:24.942Z</time>
      </trkpt>
      <trkpt lat="46.81597" lon="9.22868">
        <ele>1580.9499999585</ele>
        <time>2021-07-23T11:31:32.829Z</time>
      </trkpt>
      <trkpt lat="46.81595" lon="9.22875">
        <ele>1580.390000012</ele>
        <time>2021-07-23T11:31:34.237Z</time>
      </trkpt>
      <trkpt lat="46.81593" lon="9.22883">
        <ele>1579.8</ele>
        <time>2021-07-23T11:31:35.819Z</time>
      </trkpt>
      <trkpt lat="46.81591" lon="9.22889">
        <ele>1579.3</ele>
        <time>2021-07-23T11:31:37.057Z</time>
      </trkpt>
      <trkpt lat="46.8159" lon="9.22902">
        <ele>1578.5900000136</ele>
        <time>2021-07-23T11:31:39.486Z</time>
      </trkpt>
      <trkpt lat="46.81589" lon="9.22919">
        <ele>1577.7900000217</ele>
        <time>2021-07-23T11:31:42.654Z</time>
      </trkpt>
      <trkpt lat="46.81588" lon="9.22938">
        <ele>1577.16</ele>
        <time>2021-07-23T11:31:46.418Z</time>
      </trkpt>
      <trkpt lat="46.81587" lon="9.22949">
        <ele>1576.65</ele>
        <time>2021-07-23T11:31:48.478Z</time>
      </trkpt>
      <trkpt lat="46.81586" lon="9.22955">
        <ele>1576.28</ele>
        <time>2021-07-23T11:31:49.625Z</time>
      </trkpt>
      <trkpt lat="46.81585" lon="9.22958">
        <ele>1576.09</ele>
        <time>2021-07-23T11:31:50.244Z</time>
      </trkpt>
      <trkpt lat="46.81583" lon="9.22964">
        <ele>1575.5300000315</ele>
        <time>2021-07-23T11:31:51.483Z</time>
      </trkpt>
      <trkpt lat="46.8158" lon="9.2297">
        <ele>1574.88</ele>
        <time>2021-07-23T11:31:52.863Z</time>
      </trkpt>
      <trkpt lat="46.81579" lon="9.22973">
        <ele>1574.6500000002</ele>
        <time>2021-07-23T11:31:53.482Z</time>
      </trkpt>
      <trkpt lat="46.81573" lon="9.2298">
        <ele>1573.63</ele>
        <time>2021-07-23T11:31:55.565Z</time>
      </trkpt>
      <trkpt lat="46.81567" lon="9.22988">
        <ele>1572.0500000004</ele>
        <time>2021-07-23T11:31:57.768Z</time>
      </trkpt>
      <trkpt lat="46.81558" lon="9.22998">
        <ele>1570.2599999379</ele>
        <time>2021-07-23T11:32:00.835Z</time>
      </trkpt>
      <trkpt lat="46.81554" lon="9.23003">
        <ele>1569.4299999952</ele>
        <time>2021-07-23T11:32:02.263Z</time>
      </trkpt>
      <trkpt lat="46.81551" lon="9.23008">
        <ele>1568.8300000336</ele>
        <time>2021-07-23T11:32:03.498Z</time>
      </trkpt>
      <trkpt lat="46.81548" lon="9.23013">
        <ele>1568.1099999406</ele>
        <time>2021-07-23T11:32:04.732Z</time>
      </trkpt>
      <trkpt lat="46.81546" lon="9.23018">
        <ele>1567.4</ele>
        <time>2021-07-23T11:32:05.807Z</time>
      </trkpt>
      <trkpt lat="46.81543" lon="9.23025">
        <ele>1566.56</ele>
        <time>2021-07-23T11:32:07.341Z</time>
      </trkpt>
      <trkpt lat="46.81539" lon="9.2304">
        <ele>1564.8899999435</ele>
        <time>2021-07-23T11:32:10.329Z</time>
      </trkpt>
      <trkpt lat="46.81537" lon="9.23046">
        <ele>1564.19</ele>
        <time>2021-07-23T11:32:11.568Z</time>
      </trkpt>
      <trkpt lat="46.81536" lon="9.23051">
        <ele>1563.5800000075</ele>
        <time>2021-07-23T11:32:12.535Z</time>
      </trkpt>
      <trkpt lat="46.81534" lon="9.23075">
        <ele>1561.31</ele>
        <time>2021-07-23T11:32:17.024Z</time>
      </trkpt>
      <trkpt lat="46.81531" lon="9.23088">
        <ele>1560</ele>
        <time>2021-07-23T11:32:19.571Z</time>
      </trkpt>
      <trkpt lat="46.81525" lon="9.23107">
        <ele>1558.3300000077</ele>
        <time>2021-07-23T11:32:23.455Z</time>
      </trkpt>
      <trkpt lat="46.81519" lon="9.2313">
        <ele>1555.94</ele>
        <time>2021-07-23T11:32:28.025Z</time>
      </trkpt>
      <trkpt lat="46.81514" lon="9.23154">
        <ele>1553.7999999866</ele>
        <time>2021-07-23T11:32:32.682Z</time>
      </trkpt>
      <trkpt lat="46.81512" lon="9.23159">
        <ele>1553.2000000293</ele>
        <time>2021-07-23T11:32:33.758Z</time>
      </trkpt>
      <trkpt lat="46.8151" lon="9.23164">
        <ele>1552.7199999719</ele>
        <time>2021-07-23T11:32:34.833Z</time>
      </trkpt>
      <trkpt lat="46.81507" lon="9.23167">
        <ele>1552.49</ele>
        <time>2021-07-23T11:32:35.760Z</time>
      </trkpt>
      <trkpt lat="46.81503" lon="9.2317">
        <ele>1551.7699999268</ele>
        <time>2021-07-23T11:32:36.980Z</time>
      </trkpt>
      <trkpt lat="46.815" lon="9.23171">
        <ele>1551.29</ele>
        <time>2021-07-23T11:32:37.814Z</time>
      </trkpt>
      <trkpt lat="46.81498" lon="9.23171">
        <ele>1551.0199999908</ele>
        <time>2021-07-23T11:32:38.357Z</time>
      </trkpt>
      <trkpt lat="46.81496" lon="9.23171">
        <ele>1550.7</ele>
        <time>2021-07-23T11:32:38.900Z</time>
      </trkpt>
      <trkpt lat="46.81493" lon="9.23169">
        <ele>1550.3400000398</ele>
        <time>2021-07-23T11:32:39.794Z</time>
      </trkpt>
      <trkpt lat="46.81485" lon="9.23158">
        <ele>1549.3600000224</ele>
        <time>2021-07-23T11:32:42.774Z</time>
      </trkpt>
      <trkpt lat="46.81476" lon="9.23143">
        <ele>1547.9099999872</ele>
        <time>2021-07-23T11:32:46.477Z</time>
      </trkpt>
      <trkpt lat="46.81469" lon="9.23131">
        <ele>1546.6000000014</ele>
        <time>2021-07-23T11:32:49.405Z</time>
      </trkpt>
      <trkpt lat="46.81457" lon="9.2311">
        <ele>1544.25</ele>
        <time>2021-07-23T11:32:54.484Z</time>
      </trkpt>
      <trkpt lat="46.81454" lon="9.23104">
        <ele>1543.59</ele>
        <time>2021-07-23T11:32:55.863Z</time>
      </trkpt>
      <trkpt lat="46.81452" lon="9.23102">
        <ele>1543.38</ele>
        <time>2021-07-23T11:32:56.521Z</time>
      </trkpt>
      <trkpt lat="46.81447" lon="9.23098">
        <ele>1542.74</ele>
        <time>2021-07-23T11:32:58.067Z</time>
      </trkpt>
      <trkpt lat="46.81442" lon="9.23095">
        <ele>1542.0999999761</ele>
        <time>2021-07-23T11:32:59.533Z</time>
      </trkpt>
      <trkpt lat="46.81437" lon="9.23094">
        <ele>1541.4699999811</ele>
        <time>2021-07-23T11:33:00.902Z</time>
      </trkpt>
      <trkpt lat="46.81432" lon="9.23094">
        <ele>1540.7500000029</ele>
        <time>2021-07-23T11:33:02.259Z</time>
      </trkpt>
      <trkpt lat="46.81419" lon="9.23099">
        <ele>1538.92</ele>
        <time>2021-07-23T11:33:05.905Z</time>
      </trkpt>
      <trkpt lat="46.81397" lon="9.23108">
        <ele>1535.9299999945</ele>
        <time>2021-07-23T11:33:12.103Z</time>
      </trkpt>
      <trkpt lat="46.81392" lon="9.23111">
        <ele>1535.210000028</ele>
        <time>2021-07-23T11:33:13.569Z</time>
      </trkpt>
      <trkpt lat="46.81387" lon="9.23115">
        <ele>1534.3700000533</ele>
        <time>2021-07-23T11:33:15.115Z</time>
      </trkpt>
      <trkpt lat="46.8137" lon="9.23129">
        <ele>1531.56</ele>
        <time>2021-07-23T11:33:20.409Z</time>
      </trkpt>
      <trkpt lat="46.8136" lon="9.23138">
        <ele>1529.04</ele>
        <time>2021-07-23T11:33:23.595Z</time>
      </trkpt>
      <trkpt lat="46.8136" lon="9.23139">
        <ele>1529.04</ele>
        <time>2021-07-23T11:33:24.417Z</time>
      </trkpt>
      <trkpt lat="46.8136" lon="9.23138">
        <ele>1529.04</ele>
        <time>2021-07-23T11:33:25.239Z</time>
      </trkpt>
      <trkpt lat="46.8137" lon="9.23129">
        <ele>1531.56</ele>
        <time>2021-07-23T11:34:27.354Z</time>
      </trkpt>
      <trkpt lat="46.81338" lon="9.23157">
        <ele>1526.5099999815</ele>
        <time>2021-07-23T11:34:37.472Z</time>
      </trkpt>
      <trkpt lat="46.81328" lon="9.23166">
        <ele>1525.0299999801</ele>
        <time>2021-07-23T11:34:40.658Z</time>
      </trkpt>
      <trkpt lat="46.81326" lon="9.23167">
        <ele>1524.83</ele>
        <time>2021-07-23T11:34:41.232Z</time>
      </trkpt>
      <trkpt lat="46.81322" lon="9.23169">
        <ele>1524.2200000463</ele>
        <time>2021-07-23T11:34:42.379Z</time>
      </trkpt>
      <trkpt lat="46.81317" lon="9.2317">
        <ele>1523.47</ele>
        <time>2021-07-23T11:34:43.748Z</time>
      </trkpt>
      <trkpt lat="46.81311" lon="9.2317">
        <ele>1522.5699999367</ele>
        <time>2021-07-23T11:34:45.375Z</time>
      </trkpt>
      <trkpt lat="46.81309" lon="9.2317">
        <ele>1522.26</ele>
        <time>2021-07-23T11:34:45.918Z</time>
      </trkpt>
      <trkpt lat="46.81304" lon="9.23168">
        <ele>1521.4</ele>
        <time>2021-07-23T11:34:47.324Z</time>
      </trkpt>
      <trkpt lat="46.81272" lon="9.23157">
        <ele>1517.05</ele>
        <time>2021-07-23T11:34:56.242Z</time>
      </trkpt>
      <trkpt lat="46.81257" lon="9.23152">
        <ele>1515.7199999754</ele>
        <time>2021-07-23T11:35:00.416Z</time>
      </trkpt>
      <trkpt lat="46.81251" lon="9.23151">
        <ele>1515.32</ele>
        <time>2021-07-23T11:35:01.921Z</time>
      </trkpt>
      <trkpt lat="46.81247" lon="9.23151">
        <ele>1515.4299999933</ele>
        <time>2021-07-23T11:35:09.253Z</time>
      </trkpt>
      <trkpt lat="46.81243" lon="9.23153">
        <ele>1515.34</ele>
        <time>2021-07-23T11:35:10.854Z</time>
      </trkpt>
      <trkpt lat="46.81241" lon="9.23156">
        <ele>1515.21</ele>
        <time>2021-07-23T11:35:11.704Z</time>
      </trkpt>
      <trkpt lat="46.81239" lon="9.2316">
        <ele>1515.1</ele>
        <time>2021-07-23T11:35:12.841Z</time>
      </trkpt>
      <trkpt lat="46.81239" lon="9.23164">
        <ele>1514.8</ele>
        <time>2021-07-23T11:35:13.584Z</time>
      </trkpt>
      <trkpt lat="46.81239" lon="9.23173">
        <ele>1514.4399999964</ele>
        <time>2021-07-23T11:35:15.216Z</time>
      </trkpt>
      <trkpt lat="46.8124" lon="9.23179">
        <ele>1514.0899999869</ele>
        <time>2021-07-23T11:35:16.363Z</time>
      </trkpt>
      <trkpt lat="46.81241" lon="9.23181">
        <ele>1513.9700000048</ele>
        <time>2021-07-23T11:35:16.823Z</time>
      </trkpt>
      <trkpt lat="46.81242" lon="9.23187">
        <ele>1513.78</ele>
        <time>2021-07-23T11:35:18.080Z</time>
      </trkpt>
      <trkpt lat="46.81244" lon="9.23192">
        <ele>1513.61</ele>
        <time>2021-07-23T11:35:19.281Z</time>
      </trkpt>
      <trkpt lat="46.81245" lon="9.23196">
        <ele>1513.47</ele>
        <time>2021-07-23T11:35:20.125Z</time>
      </trkpt>
      <trkpt lat="46.81249" lon="9.23205">
        <ele>1513.1300000227</ele>
        <time>2021-07-23T11:35:22.283Z</time>
      </trkpt>
      <trkpt lat="46.81255" lon="9.23219">
        <ele>1512.3</ele>
        <time>2021-07-23T11:35:25.350Z</time>
      </trkpt>
      <trkpt lat="46.81265" lon="9.23247">
        <ele>1511.37</ele>
        <time>2021-07-23T11:35:31.894Z</time>
      </trkpt>
      <trkpt lat="46.81277" lon="9.23277">
        <ele>1510.33</ele>
        <time>2021-07-23T11:35:39.048Z</time>
      </trkpt>
      <trkpt lat="46.81281" lon="9.23286">
        <ele>1509.8499999851</ele>
        <time>2021-07-23T11:35:40.891Z</time>
      </trkpt>
      <trkpt lat="46.81282" lon="9.23291">
        <ele>1509.5899999983</ele>
        <time>2021-07-23T11:35:41.858Z</time>
      </trkpt>
      <trkpt lat="46.81283" lon="9.23293">
        <ele>1509.5</ele>
        <time>2021-07-23T11:35:42.328Z</time>
      </trkpt>
      <trkpt lat="46.81283" lon="9.23296">
        <ele>1509.2500000301</ele>
        <time>2021-07-23T11:35:42.885Z</time>
      </trkpt>
      <trkpt lat="46.81283" lon="9.23302">
        <ele>1508.73</ele>
        <time>2021-07-23T11:35:43.999Z</time>
      </trkpt>
      <trkpt lat="46.81283" lon="9.23306">
        <ele>1508.42</ele>
        <time>2021-07-23T11:35:44.741Z</time>
      </trkpt>
      <trkpt lat="46.81283" lon="9.23307">
        <ele>1508.260000061</ele>
        <time>2021-07-23T11:35:44.927Z</time>
      </trkpt>
      <trkpt lat="46.81282" lon="9.23316">
        <ele>1507.349999967</ele>
        <time>2021-07-23T11:35:46.620Z</time>
      </trkpt>
      <trkpt lat="46.8128" lon="9.23321">
        <ele>1506.9900000147</ele>
        <time>2021-07-23T11:35:47.695Z</time>
      </trkpt>
      <trkpt lat="46.81277" lon="9.23327">
        <ele>1506.3899999882</ele>
        <time>2021-07-23T11:35:49.074Z</time>
      </trkpt>
      <trkpt lat="46.81276" lon="9.23333">
        <ele>1506.04</ele>
        <time>2021-07-23T11:35:50.221Z</time>
      </trkpt>
      <trkpt lat="46.81275" lon="9.23338">
        <ele>1505.3200000704</ele>
        <time>2021-07-23T11:35:51.188Z</time>
      </trkpt>
      <trkpt lat="46.81275" lon="9.23346">
        <ele>1504.7200000194</ele>
        <time>2021-07-23T11:35:52.673Z</time>
      </trkpt>
      <trkpt lat="46.81276" lon="9.23355">
        <ele>1503.65</ele>
        <time>2021-07-23T11:35:54.366Z</time>
      </trkpt>
      <trkpt lat="46.81277" lon="9.23364">
        <ele>1503.05</ele>
        <time>2021-07-23T11:35:56.059Z</time>
      </trkpt>
      <trkpt lat="46.81277" lon="9.23369">
        <ele>1503.02</ele>
        <time>2021-07-23T11:35:57.574Z</time>
      </trkpt>
      <trkpt lat="46.81277" lon="9.23375">
        <ele>1502.48</ele>
        <time>2021-07-23T11:35:58.688Z</time>
      </trkpt>
      <trkpt lat="46.81276" lon="9.23381">
        <ele>1501.9300000315</ele>
        <time>2021-07-23T11:35:59.835Z</time>
      </trkpt>
      <trkpt lat="46.81266" lon="9.23394">
        <ele>1500.27</ele>
        <time>2021-07-23T11:36:03.466Z</time>
      </trkpt>
      <trkpt lat="46.81262" lon="9.23401">
        <ele>1499.3399999702</ele>
        <time>2021-07-23T11:36:05.159Z</time>
      </trkpt>
      <trkpt lat="46.8126" lon="9.23405">
        <ele>1498.9000000147</ele>
        <time>2021-07-23T11:36:06.078Z</time>
      </trkpt>
      <trkpt lat="46.81258" lon="9.2341">
        <ele>1498.4300000386</ele>
        <time>2021-07-23T11:36:07.154Z</time>
      </trkpt>
      <trkpt lat="46.81255" lon="9.23417">
        <ele>1497.73</ele>
        <time>2021-07-23T11:36:08.687Z</time>
      </trkpt>
      <trkpt lat="46.81252" lon="9.23425">
        <ele>1496.810000005</ele>
        <time>2021-07-23T11:36:10.381Z</time>
      </trkpt>
      <trkpt lat="46.81249" lon="9.23433">
        <ele>1496.05</ele>
        <time>2021-07-23T11:36:12.074Z</time>
      </trkpt>
      <trkpt lat="46.81243" lon="9.23457">
        <ele>1493.41</ele>
        <time>2021-07-23T11:36:16.818Z</time>
      </trkpt>
      <trkpt lat="46.81242" lon="9.23462">
        <ele>1493.0099999876</ele>
        <time>2021-07-23T11:36:17.785Z</time>
      </trkpt>
      <trkpt lat="46.81241" lon="9.23463">
        <ele>1492.900000019</ele>
        <time>2021-07-23T11:36:18.114Z</time>
      </trkpt>
      <trkpt lat="46.81239" lon="9.23466">
        <ele>1492.4800000084</ele>
        <time>2021-07-23T11:36:18.891Z</time>
      </trkpt>
      <trkpt lat="46.81234" lon="9.23473">
        <ele>1491.65</ele>
        <time>2021-07-23T11:36:20.770Z</time>
      </trkpt>
      <trkpt lat="46.81225" lon="9.23485">
        <ele>1489.8299999673</ele>
        <time>2021-07-23T11:36:24.075Z</time>
      </trkpt>
      <trkpt lat="46.81223" lon="9.23488">
        <ele>1489.420000044</ele>
        <time>2021-07-23T11:36:24.852Z</time>
      </trkpt>
      <trkpt lat="46.8122" lon="9.23492">
        <ele>1488.94</ele>
        <time>2021-07-23T11:36:25.954Z</time>
      </trkpt>
      <trkpt lat="46.81219" lon="9.23494">
        <ele>1488.73</ele>
        <time>2021-07-23T11:36:26.414Z</time>
      </trkpt>
      <trkpt lat="46.81217" lon="9.23499">
        <ele>1488.1400000352</ele>
        <time>2021-07-23T11:36:27.489Z</time>
      </trkpt>
      <trkpt lat="46.81214" lon="9.23503">
        <ele>1487.6000000051</ele>
        <time>2021-07-23T11:36:28.591Z</time>
      </trkpt>
      <trkpt lat="46.81211" lon="9.23512">
        <ele>1486.389999944</ele>
        <time>2021-07-23T11:36:30.449Z</time>
      </trkpt>
      <trkpt lat="46.81209" lon="9.23517">
        <ele>1485.8299999924</ele>
        <time>2021-07-23T11:36:31.525Z</time>
      </trkpt>
      <trkpt lat="46.81208" lon="9.23522">
        <ele>1485.4399999529</ele>
        <time>2021-07-23T11:36:32.492Z</time>
      </trkpt>
      <trkpt lat="46.81208" lon="9.23527">
        <ele>1485.0400000329</ele>
        <time>2021-07-23T11:36:33.420Z</time>
      </trkpt>
      <trkpt lat="46.81209" lon="9.23533">
        <ele>1484.4799999711</ele>
        <time>2021-07-23T11:36:34.567Z</time>
      </trkpt>
      <trkpt lat="46.8121" lon="9.23539">
        <ele>1483.77</ele>
        <time>2021-07-23T11:36:35.713Z</time>
      </trkpt>
      <trkpt lat="46.81219" lon="9.23569">
        <ele>1480.5099999612</ele>
        <time>2021-07-23T11:36:41.794Z</time>
      </trkpt>
      <trkpt lat="46.81222" lon="9.2358">
        <ele>1479.4699999897</ele>
        <time>2021-07-23T11:36:43.993Z</time>
      </trkpt>
      <trkpt lat="46.81223" lon="9.23587">
        <ele>1478.83</ele>
        <time>2021-07-23T11:36:45.320Z</time>
      </trkpt>
      <trkpt lat="46.81225" lon="9.23606">
        <ele>1477.129999983</ele>
        <time>2021-07-23T11:36:48.889Z</time>
      </trkpt>
      <trkpt lat="46.81226" lon="9.2361">
        <ele>1476.7700000418</ele>
        <time>2021-07-23T11:36:49.680Z</time>
      </trkpt>
      <trkpt lat="46.81227" lon="9.23619">
        <ele>1476.05</ele>
        <time>2021-07-23T11:36:51.373Z</time>
      </trkpt>
      <trkpt lat="46.8123" lon="9.23635">
        <ele>1474.6999999769</ele>
        <time>2021-07-23T11:36:54.453Z</time>
      </trkpt>
      <trkpt lat="46.81231" lon="9.23639">
        <ele>1474.1400000438</ele>
        <time>2021-07-23T11:36:55.243Z</time>
      </trkpt>
      <trkpt lat="46.81233" lon="9.23644">
        <ele>1473.7499999675</ele>
        <time>2021-07-23T11:36:56.319Z</time>
      </trkpt>
      <trkpt lat="46.81235" lon="9.23648">
        <ele>1473.2500000149</ele>
        <time>2021-07-23T11:36:57.238Z</time>
      </trkpt>
      <trkpt lat="46.81241" lon="9.23658">
        <ele>1471.8399999612</ele>
        <time>2021-07-23T11:36:59.707Z</time>
      </trkpt>
      <trkpt lat="46.81246" lon="9.23667">
        <ele>1470.9099999706</ele>
        <time>2021-07-23T11:37:01.859Z</time>
      </trkpt>
      <trkpt lat="46.81248" lon="9.23671">
        <ele>1470.56</ele>
        <time>2021-07-23T11:37:02.779Z</time>
      </trkpt>
      <trkpt lat="46.8125" lon="9.23674">
        <ele>1470.2200000456</ele>
        <time>2021-07-23T11:37:03.557Z</time>
      </trkpt>
      <trkpt lat="46.81252" lon="9.2368">
        <ele>1469.72</ele>
        <time>2021-07-23T11:37:04.796Z</time>
      </trkpt>
      <trkpt lat="46.81255" lon="9.23689">
        <ele>1469.2100000086</ele>
        <time>2021-07-23T11:37:06.654Z</time>
      </trkpt>
      <trkpt lat="46.81259" lon="9.23698">
        <ele>1468.7399999844</ele>
        <time>2021-07-23T11:37:08.517Z</time>
      </trkpt>
      <trkpt lat="46.81261" lon="9.23702">
        <ele>1468.51</ele>
        <time>2021-07-23T11:37:09.437Z</time>
      </trkpt>
      <trkpt lat="46.81263" lon="9.23706">
        <ele>1468.2800000338</ele>
        <time>2021-07-23T11:37:10.356Z</time>
      </trkpt>
      <trkpt lat="46.81266" lon="9.23712">
        <ele>1467.7099999807</ele>
        <time>2021-07-23T11:37:11.736Z</time>
      </trkpt>
      <trkpt lat="46.81267" lon="9.23714">
        <ele>1467.46</ele>
        <time>2021-07-23T11:37:12.196Z</time>
      </trkpt>
      <trkpt lat="46.81268" lon="9.23718">
        <ele>1467.46</ele>
        <time>2021-07-23T11:37:16.192Z</time>
      </trkpt>
      <trkpt lat="46.81268" lon="9.23719">
        <ele>1467.46</ele>
        <time>2021-07-23T11:37:17.130Z</time>
      </trkpt>
      <trkpt lat="46.81268" lon="9.2372">
        <ele>1467.46</ele>
        <time>2021-07-23T11:37:18.069Z</time>
      </trkpt>
      <trkpt lat="46.81268" lon="9.23721">
        <ele>1467.46</ele>
        <time>2021-07-23T11:37:19.007Z</time>
      </trkpt>
      <trkpt lat="46.81267" lon="9.23724">
        <ele>1467.31</ele>
        <time>2021-07-23T11:37:19.579Z</time>
      </trkpt>
      <trkpt lat="46.81266" lon="9.23725">
        <ele>1467.22</ele>
        <time>2021-07-23T11:37:19.908Z</time>
      </trkpt>
      <trkpt lat="46.81264" lon="9.23727">
        <ele>1467.19</ele>
        <time>2021-07-23T11:37:20.931Z</time>
      </trkpt>
      <trkpt lat="46.81261" lon="9.23727">
        <ele>1466.72</ele>
        <time>2021-07-23T11:37:21.745Z</time>
      </trkpt>
      <trkpt lat="46.81258" lon="9.23726">
        <ele>1466.48</ele>
        <time>2021-07-23T11:37:22.580Z</time>
      </trkpt>
      <trkpt lat="46.81254" lon="9.23721">
        <ele>1466.21</ele>
        <time>2021-07-23T11:37:24.060Z</time>
      </trkpt>
      <trkpt lat="46.8124" lon="9.23706">
        <ele>1465.52</ele>
        <time>2021-07-23T11:37:29.481Z</time>
      </trkpt>
      <trkpt lat="46.81232" lon="9.23698">
        <ele>1465.05</ele>
        <time>2021-07-23T11:37:32.275Z</time>
      </trkpt>
      <trkpt lat="46.81227" lon="9.23694">
        <ele>1465.05</ele>
        <time>2021-07-23T11:37:40.091Z</time>
      </trkpt>
      <trkpt lat="46.81222" lon="9.2369">
        <ele>1464.9300000048</ele>
        <time>2021-07-23T11:37:42.256Z</time>
      </trkpt>
      <trkpt lat="46.81215" lon="9.23689">
        <ele>1464.2200000123</ele>
        <time>2021-07-23T11:37:44.164Z</time>
      </trkpt>
      <trkpt lat="46.81198" lon="9.23686">
        <ele>1462.0599999961</ele>
        <time>2021-07-23T11:37:48.810Z</time>
      </trkpt>
      <trkpt lat="46.8119" lon="9.23685">
        <ele>1460.9500000151</ele>
        <time>2021-07-23T11:37:50.988Z</time>
      </trkpt>
      <trkpt lat="46.81182" lon="9.23684">
        <ele>1459.6800000122</ele>
        <time>2021-07-23T11:37:53.166Z</time>
      </trkpt>
      <trkpt lat="46.81172" lon="9.23685">
        <ele>1458.48</ele>
        <time>2021-07-23T11:37:55.885Z</time>
      </trkpt>
      <trkpt lat="46.81168" lon="9.23686">
        <ele>1458.1599999795</ele>
        <time>2021-07-23T11:37:56.986Z</time>
      </trkpt>
      <trkpt lat="46.81164" lon="9.23687">
        <ele>1457.7700000082</ele>
        <time>2021-07-23T11:37:58.087Z</time>
      </trkpt>
      <trkpt lat="46.81155" lon="9.23692">
        <ele>1456.89</ele>
        <time>2021-07-23T11:38:00.699Z</time>
      </trkpt>
      <trkpt lat="46.81146" lon="9.23704">
        <ele>1454.3500000086</ele>
        <time>2021-07-23T11:38:04.004Z</time>
      </trkpt>
      <trkpt lat="46.81136" lon="9.23717">
        <ele>1452.3099999595</ele>
        <time>2021-07-23T11:38:07.635Z</time>
      </trkpt>
      <trkpt lat="46.81125" lon="9.23727">
        <ele>1450.0399999909</ele>
        <time>2021-07-23T11:38:11.149Z</time>
      </trkpt>
      <trkpt lat="46.81113" lon="9.23734">
        <ele>1447.31</ele>
        <time>2021-07-23T11:38:14.654Z</time>
      </trkpt>
      <trkpt lat="46.81099" lon="9.2374">
        <ele>1444.2</ele>
        <time>2021-07-23T11:38:18.612Z</time>
      </trkpt>
      <trkpt lat="46.81086" lon="9.23747">
        <ele>1441.3599999317</ele>
        <time>2021-07-23T11:38:22.370Z</time>
      </trkpt>
      <trkpt lat="46.81078" lon="9.23755">
        <ele>1439.67</ele>
        <time>2021-07-23T11:38:25.000Z</time>
      </trkpt>
      <trkpt lat="46.81066" lon="9.23764">
        <ele>1438.02</ele>
        <time>2021-07-23T11:38:28.659Z</time>
      </trkpt>
      <trkpt lat="46.8104" lon="9.23778">
        <ele>1434.66</ele>
        <time>2021-07-23T11:38:36.176Z</time>
      </trkpt>
      <trkpt lat="46.81017" lon="9.23768">
        <ele>1430.3600000073</ele>
        <time>2021-07-23T11:38:42.686Z</time>
      </trkpt>
      <trkpt lat="46.80992" lon="9.23758">
        <ele>1425.78</ele>
        <time>2021-07-23T11:38:49.717Z</time>
      </trkpt>
      <trkpt lat="46.8097" lon="9.2375">
        <ele>1422.3699999703</ele>
        <time>2021-07-23T11:38:55.867Z</time>
      </trkpt>
      <trkpt lat="46.80961" lon="9.23755">
        <ele>1420.0200000518</ele>
        <time>2021-07-23T11:38:58.479Z</time>
      </trkpt>
      <trkpt lat="46.80948" lon="9.23764">
        <ele>1417.54</ele>
        <time>2021-07-23T11:39:02.382Z</time>
      </trkpt>
      <trkpt lat="46.80935" lon="9.23781">
        <ele>1414.4399999977</ele>
        <time>2021-07-23T11:39:07.114Z</time>
      </trkpt>
      <trkpt lat="46.80924" lon="9.2379">
        <ele>1413.0199999814</ele>
        <time>2021-07-23T11:39:10.534Z</time>
      </trkpt>
      <trkpt lat="46.80913" lon="9.23798">
        <ele>1411.89</ele>
        <time>2021-07-23T11:39:13.868Z</time>
      </trkpt>
      <trkpt lat="46.80902" lon="9.23802">
        <ele>1409.2399999435</ele>
        <time>2021-07-23T11:39:16.943Z</time>
      </trkpt>
      <trkpt lat="46.80896" lon="9.238">
        <ele>1407.48</ele>
        <time>2021-07-23T11:39:18.612Z</time>
      </trkpt>
      <trkpt lat="46.80881" lon="9.23799">
        <ele>1404.5699999391</ele>
        <time>2021-07-23T11:39:22.685Z</time>
      </trkpt>
      <trkpt lat="46.80875" lon="9.23795">
        <ele>1403.1000001272</ele>
        <time>2021-07-23T11:39:24.474Z</time>
      </trkpt>
      <trkpt lat="46.80868" lon="9.23792">
        <ele>1401.93</ele>
        <time>2021-07-23T11:39:26.453Z</time>
      </trkpt>
      <trkpt lat="46.80864" lon="9.23789">
        <ele>1400.99</ele>
        <time>2021-07-23T11:39:27.673Z</time>
      </trkpt>
      <trkpt lat="46.80859" lon="9.23782">
        <ele>1399.05</ele>
        <time>2021-07-23T11:39:29.552Z</time>
      </trkpt>
      <trkpt lat="46.80851" lon="9.23768">
        <ele>1395.8700000591</ele>
        <time>2021-07-23T11:39:32.938Z</time>
      </trkpt>
      <trkpt lat="46.80841" lon="9.23752">
        <ele>1393.5699999933</ele>
        <time>2021-07-23T11:39:36.961Z</time>
      </trkpt>
      <trkpt lat="46.80831" lon="9.23738">
        <ele>1392.0399999969</ele>
        <time>2021-07-23T11:39:40.718Z</time>
      </trkpt>
      <trkpt lat="46.80829" lon="9.23734">
        <ele>1391.48999998</ele>
        <time>2021-07-23T11:39:41.638Z</time>
      </trkpt>
      <trkpt lat="46.80826" lon="9.23732">
        <ele>1391.17</ele>
        <time>2021-07-23T11:39:42.532Z</time>
      </trkpt>
      <trkpt lat="46.80819" lon="9.23738">
        <ele>1389.3600000019</ele>
        <time>2021-07-23T11:39:44.734Z</time>
      </trkpt>
      <trkpt lat="46.80794" lon="9.23742">
        <ele>1384.38</ele>
        <time>2021-07-23T11:39:51.556Z</time>
      </trkpt>
      <trkpt lat="46.80776" lon="9.23743">
        <ele>1381.849999982</ele>
        <time>2021-07-23T11:39:56.442Z</time>
      </trkpt>
      <trkpt lat="46.80765" lon="9.2374">
        <ele>1379.9000000076</ele>
        <time>2021-07-23T11:39:59.478Z</time>
      </trkpt>
      <trkpt lat="46.80754" lon="9.23736">
        <ele>1377.65</ele>
        <time>2021-07-23T11:40:02.553Z</time>
      </trkpt>
      <trkpt lat="46.80746" lon="9.23733">
        <ele>1376.7400000381</ele>
        <time>2021-07-23T11:40:04.794Z</time>
      </trkpt>
      <trkpt lat="46.80737" lon="9.23733">
        <ele>1375.8100000441</ele>
        <time>2021-07-23T11:40:07.235Z</time>
      </trkpt>
      <trkpt lat="46.80725" lon="9.23732">
        <ele>1374.18</ele>
        <time>2021-07-23T11:40:10.496Z</time>
      </trkpt>
      <trkpt lat="46.80722" lon="9.23742">
        <ele>1373.5000000195</ele>
        <time>2021-07-23T11:40:12.523Z</time>
      </trkpt>
      <trkpt lat="46.80722" lon="9.23774">
        <ele>1372.33</ele>
        <time>2021-07-23T11:40:18.574Z</time>
      </trkpt>
      <trkpt lat="46.80722" lon="9.23805">
        <ele>1370.33</ele>
        <time>2021-07-23T11:40:24.329Z</time>
      </trkpt>
      <trkpt lat="46.80721" lon="9.23817">
        <ele>1370.45</ele>
        <time>2021-07-23T11:40:37.413Z</time>
      </trkpt>
      <trkpt lat="46.80715" lon="9.2385">
        <ele>1366.6899999666</ele>
        <time>2021-07-23T11:40:43.752Z</time>
      </trkpt>
      <trkpt lat="46.80709" lon="9.23876">
        <ele>1363.63</ele>
        <time>2021-07-23T11:40:48.847Z</time>
      </trkpt>
      <trkpt lat="46.80708" lon="9.23885">
        <ele>1362.51</ele>
        <time>2021-07-23T11:40:50.540Z</time>
      </trkpt>
      <trkpt lat="46.80697" lon="9.23894">
        <ele>1359.5499998975</ele>
        <time>2021-07-23T11:40:53.960Z</time>
      </trkpt>
      <trkpt lat="46.80691" lon="9.23903">
        <ele>1357.2</ele>
        <time>2021-07-23T11:40:56.293Z</time>
      </trkpt>
      <trkpt lat="46.80688" lon="9.23915">
        <ele>1355.37</ele>
        <time>2021-07-23T11:40:58.665Z</time>
      </trkpt>
      <trkpt lat="46.80683" lon="9.23929">
        <ele>1352.1799999983</ele>
        <time>2021-07-23T11:41:01.597Z</time>
      </trkpt>
      <trkpt lat="46.80679" lon="9.23936">
        <ele>1352.1200000044</ele>
        <time>2021-07-23T11:41:04.330Z</time>
      </trkpt>
      <trkpt lat="46.80672" lon="9.23942">
        <ele>1350.5299999763</ele>
        <time>2021-07-23T11:41:06.531Z</time>
      </trkpt>
      <trkpt lat="46.80664" lon="9.23944">
        <ele>1347.2999999484</ele>
        <time>2021-07-23T11:41:08.733Z</time>
      </trkpt>
      <trkpt lat="46.80658" lon="9.23943">
        <ele>1345.3900001248</ele>
        <time>2021-07-23T11:41:10.371Z</time>
      </trkpt>
      <trkpt lat="46.80648" lon="9.23943">
        <ele>1339.83</ele>
        <time>2021-07-23T11:41:13.084Z</time>
      </trkpt>
      <trkpt lat="46.80641" lon="9.23942">
        <ele>1338.1999999227</ele>
        <time>2021-07-23T11:41:14.992Z</time>
      </trkpt>
      <trkpt lat="46.80636" lon="9.23941">
        <ele>1336.74</ele>
        <time>2021-07-23T11:41:16.361Z</time>
      </trkpt>
      <trkpt lat="46.80623" lon="9.23935">
        <ele>1333.4000000668</ele>
        <time>2021-07-23T11:41:20.059Z</time>
      </trkpt>
      <trkpt lat="46.80611" lon="9.23922">
        <ele>1329.41</ele>
        <time>2021-07-23T11:41:24.112Z</time>
      </trkpt>
      <trkpt lat="46.80598" lon="9.23916">
        <ele>1325.71</ele>
        <time>2021-07-23T11:41:27.810Z</time>
      </trkpt>
      <trkpt lat="46.80588" lon="9.23911">
        <ele>1323.18</ele>
        <time>2021-07-23T11:41:30.677Z</time>
      </trkpt>
      <trkpt lat="46.80579" lon="9.23907">
        <ele>1321.2100000865</ele>
        <time>2021-07-23T11:41:33.229Z</time>
      </trkpt>
      <trkpt lat="46.80569" lon="9.23904">
        <ele>1318.78</ele>
        <time>2021-07-23T11:41:35.998Z</time>
      </trkpt>
      <trkpt lat="46.80562" lon="9.23902">
        <ele>1317.38</ele>
        <time>2021-07-23T11:41:37.933Z</time>
      </trkpt>
      <trkpt lat="46.80553" lon="9.239">
        <ele>1314.409999945</ele>
        <time>2021-07-23T11:41:40.403Z</time>
      </trkpt>
      <trkpt lat="46.80549" lon="9.23898">
        <ele>1313.1300000438</ele>
        <time>2021-07-23T11:41:41.550Z</time>
      </trkpt>
      <trkpt lat="46.8054" lon="9.23892">
        <ele>1310.299999921</ele>
        <time>2021-07-23T11:41:44.233Z</time>
      </trkpt>
      <trkpt lat="46.80537" lon="9.2389">
        <ele>1309.3999999615</ele>
        <time>2021-07-23T11:41:45.128Z</time>
      </trkpt>
      <trkpt lat="46.80535" lon="9.23891">
        <ele>1309.18</ele>
        <time>2021-07-23T11:41:45.701Z</time>
      </trkpt>
      <trkpt lat="46.80534" lon="9.23893">
        <ele>1309.0800000092</ele>
        <time>2021-07-23T11:41:46.149Z</time>
      </trkpt>
      <trkpt lat="46.80528" lon="9.23885">
        <ele>1308.3300000149</ele>
        <time>2021-07-23T11:41:48.352Z</time>
      </trkpt>
      <trkpt lat="46.80519" lon="9.23873">
        <ele>1307.03</ele>
        <time>2021-07-23T11:41:51.658Z</time>
      </trkpt>
      <trkpt lat="46.80509" lon="9.23859">
        <ele>1305.4500000198</ele>
        <time>2021-07-23T11:41:55.415Z</time>
      </trkpt>
      <trkpt lat="46.80488" lon="9.23826">
        <ele>1301.4599999929</ele>
        <time>2021-07-23T11:42:03.781Z</time>
      </trkpt>
      <trkpt lat="46.80478" lon="9.23808">
        <ele>1299.19</ele>
        <time>2021-07-23T11:42:08.086Z</time>
      </trkpt>
      <trkpt lat="46.80475" lon="9.238">
        <ele>1298.36</ele>
        <time>2021-07-23T11:42:09.780Z</time>
      </trkpt>
      <trkpt lat="46.80474" lon="9.2379">
        <ele>1297.32</ele>
        <time>2021-07-23T11:42:11.656Z</time>
      </trkpt>
      <trkpt lat="46.80473" lon="9.23772">
        <ele>1296.14</ele>
        <time>2021-07-23T11:42:15.010Z</time>
      </trkpt>
      <trkpt lat="46.80473" lon="9.23763">
        <ele>1295.4200000403</ele>
        <time>2021-07-23T11:42:16.681Z</time>
      </trkpt>
      <trkpt lat="46.80471" lon="9.23754">
        <ele>1294.7000000156</ele>
        <time>2021-07-23T11:42:18.438Z</time>
      </trkpt>
      <trkpt lat="46.80469" lon="9.23743">
        <ele>1294.0200000447</ele>
        <time>2021-07-23T11:42:20.551Z</time>
      </trkpt>
      <trkpt lat="46.80464" lon="9.23728">
        <ele>1292.69</ele>
        <time>2021-07-23T11:42:23.649Z</time>
      </trkpt>
      <trkpt lat="46.80461" lon="9.23714">
        <ele>1291.79</ele>
        <time>2021-07-23T11:42:26.373Z</time>
      </trkpt>
      <trkpt lat="46.80457" lon="9.23694">
        <ele>1290.33</ele>
        <time>2021-07-23T11:42:30.242Z</time>
      </trkpt>
      <trkpt lat="46.8045" lon="9.23668">
        <ele>1288.27</ele>
        <time>2021-07-23T11:42:35.430Z</time>
      </trkpt>
      <trkpt lat="46.80441" lon="9.23634">
        <ele>1285.5900000065</ele>
        <time>2021-07-23T11:42:42.199Z</time>
      </trkpt>
      <trkpt lat="46.80433" lon="9.23599">
        <ele>1283.0099999974</ele>
        <time>2021-07-23T11:42:49.050Z</time>
      </trkpt>
      <trkpt lat="46.80431" lon="9.23591">
        <ele>1282.62</ele>
        <time>2021-07-23T11:42:50.632Z</time>
      </trkpt>
      <trkpt lat="46.80427" lon="9.23584">
        <ele>1281.9000000175</ele>
        <time>2021-07-23T11:42:52.325Z</time>
      </trkpt>
      <trkpt lat="46.80422" lon="9.23578">
        <ele>1281.4300000017</ele>
        <time>2021-07-23T11:42:54.080Z</time>
      </trkpt>
      <trkpt lat="46.80416" lon="9.23573">
        <ele>1280.59</ele>
        <time>2021-07-23T11:42:55.954Z</time>
      </trkpt>
      <trkpt lat="46.80411" lon="9.23571">
        <ele>1280.1100000226</ele>
        <time>2021-07-23T11:42:57.360Z</time>
      </trkpt>
      <trkpt lat="46.80405" lon="9.23567">
        <ele>1279.44</ele>
        <time>2021-07-23T11:42:59.149Z</time>
      </trkpt>
      <trkpt lat="46.80399" lon="9.23563">
        <ele>1278.89</ele>
        <time>2021-07-23T11:43:00.939Z</time>
      </trkpt>
      <trkpt lat="46.80395" lon="9.23557">
        <ele>1278.3300000206</ele>
        <time>2021-07-23T11:43:02.494Z</time>
      </trkpt>
      <trkpt lat="46.80391" lon="9.23551">
        <ele>1277.6700000413</ele>
        <time>2021-07-23T11:43:04.049Z</time>
      </trkpt>
      <trkpt lat="46.80387" lon="9.23544">
        <ele>1277.05</ele>
        <time>2021-07-23T11:43:05.742Z</time>
      </trkpt>
      <trkpt lat="46.80384" lon="9.23536">
        <ele>1276.68</ele>
        <time>2021-07-23T11:43:07.386Z</time>
      </trkpt>
      <trkpt lat="46.80381" lon="9.23523">
        <ele>1276.21</ele>
        <time>2021-07-23T11:43:10.056Z</time>
      </trkpt>
      <trkpt lat="46.80378" lon="9.23512">
        <ele>1276.0400000028</ele>
        <time>2021-07-23T11:43:13.137Z</time>
      </trkpt>
      <trkpt lat="46.80374" lon="9.23496">
        <ele>1275.7100000067</ele>
        <time>2021-07-23T11:43:17.223Z</time>
      </trkpt>
      <trkpt lat="46.80362" lon="9.23458">
        <ele>1275.02</ele>
        <time>2021-07-23T11:43:27.734Z</time>
      </trkpt>
      <trkpt lat="46.80361" lon="9.2345">
        <ele>1274.82</ele>
        <time>2021-07-23T11:43:29.538Z</time>
      </trkpt>
      <trkpt lat="46.8036" lon="9.23443">
        <ele>1274.6600000048</ele>
        <time>2021-07-23T11:43:31.176Z</time>
      </trkpt>
      <trkpt lat="46.80361" lon="9.23421">
        <ele>1274.14</ele>
        <time>2021-07-23T11:43:36.138Z</time>
      </trkpt>
      <trkpt lat="46.80362" lon="9.23422">
        <ele>1274.14</ele>
        <time>2021-07-23T11:43:37.220Z</time>
      </trkpt>
      <trkpt lat="46.80361" lon="9.23421">
        <ele>1274.14</ele>
        <time>2021-07-23T11:43:38.302Z</time>
      </trkpt>
      <trkpt lat="46.80361" lon="9.23419">
        <ele>1273.620000027</ele>
        <time>2021-07-23T11:43:38.673Z</time>
      </trkpt>
      <trkpt lat="46.80361" lon="9.23405">
        <ele>1272.7200000373</ele>
        <time>2021-07-23T11:43:41.273Z</time>
      </trkpt>
      <trkpt lat="46.8036" lon="9.23386">
        <ele>1271.65</ele>
        <time>2021-07-23T11:43:44.811Z</time>
      </trkpt>
      <trkpt lat="46.80358" lon="9.23367">
        <ele>1270.55</ele>
        <time>2021-07-23T11:43:48.381Z</time>
      </trkpt>
      <trkpt lat="46.80358" lon="9.23348">
        <ele>1269.75</ele>
        <time>2021-07-23T11:43:51.744Z</time>
      </trkpt>
      <trkpt lat="46.80357" lon="9.23347">
        <ele>1269.7100000018</ele>
        <time>2021-07-23T11:43:52.149Z</time>
      </trkpt>
      <trkpt lat="46.80356" lon="9.23346">
        <ele>1269.62</ele>
        <time>2021-07-23T11:43:52.477Z</time>
      </trkpt>
      <trkpt lat="46.80353" lon="9.23342">
        <ele>1269.2600000014</ele>
        <time>2021-07-23T11:43:53.579Z</time>
      </trkpt>
      <trkpt lat="46.80352" lon="9.23336">
        <ele>1268.81</ele>
        <time>2021-07-23T11:43:54.726Z</time>
      </trkpt>
      <trkpt lat="46.80351" lon="9.23319">
        <ele>1267.5100000084</ele>
        <time>2021-07-23T11:43:57.894Z</time>
      </trkpt>
      <trkpt lat="46.8035" lon="9.23301">
        <ele>1266.1399999821</ele>
        <time>2021-07-23T11:44:01.248Z</time>
      </trkpt>
      <trkpt lat="46.8035" lon="9.23298">
        <ele>1265.8200000036</ele>
        <time>2021-07-23T11:44:01.805Z</time>
      </trkpt>
      <trkpt lat="46.8035" lon="9.23293">
        <ele>1265.4000000353</ele>
        <time>2021-07-23T11:44:02.733Z</time>
      </trkpt>
      <trkpt lat="46.80349" lon="9.23288">
        <ele>1264.98</ele>
        <time>2021-07-23T11:44:03.700Z</time>
      </trkpt>
      <trkpt lat="46.80348" lon="9.23284">
        <ele>1264.55</ele>
        <time>2021-07-23T11:44:04.491Z</time>
      </trkpt>
      <trkpt lat="46.80346" lon="9.23274">
        <ele>1263.65</ele>
        <time>2021-07-23T11:44:06.425Z</time>
      </trkpt>
      <trkpt lat="46.80341" lon="9.23261">
        <ele>1262.38</ele>
        <time>2021-07-23T11:44:09.194Z</time>
      </trkpt>
      <trkpt lat="46.80336" lon="9.23245">
        <ele>1260.7999999208</ele>
        <time>2021-07-23T11:44:12.460Z</time>
      </trkpt>
      <trkpt lat="46.80332" lon="9.23234">
        <ele>1259.6399999663</ele>
        <time>2021-07-23T11:44:14.773Z</time>
      </trkpt>
      <trkpt lat="46.80329" lon="9.23224">
        <ele>1258.7499999826</ele>
        <time>2021-07-23T11:44:16.801Z</time>
      </trkpt>
      <trkpt lat="46.80329" lon="9.23221">
        <ele>1258.4700000549</ele>
        <time>2021-07-23T11:44:17.358Z</time>
      </trkpt>
      <trkpt lat="46.80328" lon="9.23214">
        <ele>1257.81</ele>
        <time>2021-07-23T11:44:18.686Z</time>
      </trkpt>
      <trkpt lat="46.80327" lon="9.2321">
        <ele>1257.4000000272</ele>
        <time>2021-07-23T11:44:19.476Z</time>
      </trkpt>
      <trkpt lat="46.80324" lon="9.23189">
        <ele>1255.6499999768</ele>
        <time>2021-07-23T11:44:23.460Z</time>
      </trkpt>
      <trkpt lat="46.80322" lon="9.2317">
        <ele>1254.0099999706</ele>
        <time>2021-07-23T11:44:27.029Z</time>
      </trkpt>
      <trkpt lat="46.80321" lon="9.23153">
        <ele>1252.4</ele>
        <time>2021-07-23T11:44:30.198Z</time>
      </trkpt>
      <trkpt lat="46.8032" lon="9.23142">
        <ele>1251.5</ele>
        <time>2021-07-23T11:44:32.258Z</time>
      </trkpt>
      <trkpt lat="46.80321" lon="9.23135">
        <ele>1250.8200000401</ele>
        <time>2021-07-23T11:44:33.586Z</time>
      </trkpt>
      <trkpt lat="46.80321" lon="9.23127">
        <ele>1250.0199999615</ele>
        <time>2021-07-23T11:44:35.071Z</time>
      </trkpt>
      <trkpt lat="46.80321" lon="9.2312">
        <ele>1249.45</ele>
        <time>2021-07-23T11:44:36.371Z</time>
      </trkpt>
      <trkpt lat="46.80322" lon="9.23108">
        <ele>1248.22</ele>
        <time>2021-07-23T11:44:38.616Z</time>
      </trkpt>
      <trkpt lat="46.80322" lon="9.231">
        <ele>1247.4799999712</ele>
        <time>2021-07-23T11:44:40.101Z</time>
      </trkpt>
      <trkpt lat="46.80322" lon="9.23094">
        <ele>1246.76</ele>
        <time>2021-07-23T11:44:41.216Z</time>
      </trkpt>
      <trkpt lat="46.80321" lon="9.23088">
        <ele>1246.26</ele>
        <time>2021-07-23T11:44:42.362Z</time>
      </trkpt>
      <trkpt lat="46.80318" lon="9.2308">
        <ele>1245.6200000301</ele>
        <time>2021-07-23T11:44:44.056Z</time>
      </trkpt>
      <trkpt lat="46.80308" lon="9.23049">
        <ele>1242.28</ele>
        <time>2021-07-23T11:44:50.420Z</time>
      </trkpt>
      <trkpt lat="46.80308" lon="9.23049">
        <ele>1242.28</ele>
        <time>2021-07-23T11:44:50.420Z</time>
      </trkpt>
      <trkpt lat="46.80305" lon="9.23039">
        <ele>1241.4299999742</ele>
        <time>2021-07-23T11:44:52.447Z</time>
      </trkpt>
      <trkpt lat="46.80303" lon="9.23033">
        <ele>1240.8599999863</ele>
        <time>2021-07-23T11:44:53.686Z</time>
      </trkpt>
      <trkpt lat="46.80302" lon="9.23032">
        <ele>1240.6199999641</ele>
        <time>2021-07-23T11:44:54.015Z</time>
      </trkpt>
      <trkpt lat="46.80301" lon="9.23031">
        <ele>1240.5</ele>
        <time>2021-07-23T11:44:54.344Z</time>
      </trkpt>
      <trkpt lat="46.80296" lon="9.23028">
        <ele>1240.6599999982</ele>
        <time>2021-07-23T11:45:04.512Z</time>
      </trkpt>
      <trkpt lat="46.80294" lon="9.23041">
        <ele>1240.02</ele>
        <time>2021-07-23T11:45:06.986Z</time>
      </trkpt>
      <trkpt lat="46.80292" lon="9.23051">
        <ele>1239.5000000262</ele>
        <time>2021-07-23T11:45:08.921Z</time>
      </trkpt>
      <trkpt lat="46.8029" lon="9.23064">
        <ele>1238.88</ele>
        <time>2021-07-23T11:45:11.395Z</time>
      </trkpt>
      <trkpt lat="46.8028" lon="9.23115">
        <ele>1236.2499999726</ele>
        <time>2021-07-23T11:45:21.246Z</time>
      </trkpt>
      <trkpt lat="46.80279" lon="9.23123">
        <ele>1235.83</ele>
        <time>2021-07-23T11:45:22.756Z</time>
      </trkpt>
      <trkpt lat="46.80277" lon="9.23129">
        <ele>1235.3199999945</ele>
        <time>2021-07-23T11:45:23.995Z</time>
      </trkpt>
      <trkpt lat="46.80276" lon="9.23132">
        <ele>1235.0700000249</ele>
        <time>2021-07-23T11:45:24.615Z</time>
      </trkpt>
      <trkpt lat="46.80271" lon="9.23138">
        <ele>1234.3799999707</ele>
        <time>2021-07-23T11:45:26.370Z</time>
      </trkpt>
      <trkpt lat="46.80266" lon="9.23141">
        <ele>1233.7299999945</ele>
        <time>2021-07-23T11:45:27.837Z</time>
      </trkpt>
      <trkpt lat="46.80266" lon="9.23142">
        <ele>1233.6600000232</ele>
        <time>2021-07-23T11:45:28.022Z</time>
      </trkpt>
      <trkpt lat="46.80262" lon="9.23143">
        <ele>1233.0400000039</ele>
        <time>2021-07-23T11:45:29.123Z</time>
      </trkpt>
      <trkpt lat="46.80253" lon="9.23144">
        <ele>1231.69</ele>
        <time>2021-07-23T11:45:31.572Z</time>
      </trkpt>
      <trkpt lat="46.80253" lon="9.23144">
        <ele>1231.69</ele>
        <time>2021-07-23T11:45:31.572Z</time>
      </trkpt>
      <trkpt lat="46.8025" lon="9.23144">
        <ele>1231.3</ele>
        <time>2021-07-23T11:45:32.385Z</time>
      </trkpt>
      <trkpt lat="46.80241" lon="9.23144">
        <ele>1230.21</ele>
        <time>2021-07-23T11:45:34.827Z</time>
      </trkpt>
      <trkpt lat="46.80241" lon="9.23144">
        <ele>1230.21</ele>
        <time>2021-07-23T11:45:34.827Z</time>
      </trkpt>
      <trkpt lat="46.80212" lon="9.23147">
        <ele>1225.6899999988</ele>
        <time>2021-07-23T11:45:42.713Z</time>
      </trkpt>
      <trkpt lat="46.802" lon="9.23147">
        <ele>1223.97</ele>
        <time>2021-07-23T11:45:45.969Z</time>
      </trkpt>
      <trkpt lat="46.8019" lon="9.23145">
        <ele>1222.5599999763</ele>
        <time>2021-07-23T11:45:48.707Z</time>
      </trkpt>
      <trkpt lat="46.80187" lon="9.23145">
        <ele>1222.1799999898</ele>
        <time>2021-07-23T11:45:49.521Z</time>
      </trkpt>
      <trkpt lat="46.80185" lon="9.23144">
        <ele>1221.9299999474</ele>
        <time>2021-07-23T11:45:50.094Z</time>
      </trkpt>
      <trkpt lat="46.80183" lon="9.23144">
        <ele>1221.6800000549</ele>
        <time>2021-07-23T11:45:50.637Z</time>
      </trkpt>
      <trkpt lat="46.80171" lon="9.23141">
        <ele>1220.04</ele>
        <time>2021-07-23T11:45:53.939Z</time>
      </trkpt>
      <trkpt lat="46.80162" lon="9.23136">
        <ele>1219.63</ele>
        <time>2021-07-23T11:45:56.867Z</time>
      </trkpt>
      <trkpt lat="46.80155" lon="9.23129">
        <ele>1219.27</ele>
        <time>2021-07-23T11:45:59.449Z</time>
      </trkpt>
      <trkpt lat="46.80155" lon="9.23129">
        <ele>1219.27</ele>
        <time>2021-07-23T11:45:59.449Z</time>
      </trkpt>
      <trkpt lat="46.8015" lon="9.23124">
        <ele>1219.0000000148</ele>
        <time>2021-07-23T11:46:01.258Z</time>
      </trkpt>
      <trkpt lat="46.80144" lon="9.2312">
        <ele>1218.8100000025</ele>
        <time>2021-07-23T11:46:03.556Z</time>
      </trkpt>
      <trkpt lat="46.8013" lon="9.23114">
        <ele>1218</ele>
        <time>2021-07-23T11:46:07.517Z</time>
      </trkpt>
      <trkpt lat="46.80124" lon="9.23112">
        <ele>1217.49</ele>
        <time>2021-07-23T11:46:09.186Z</time>
      </trkpt>
      <trkpt lat="46.80115" lon="9.2311">
        <ele>1217.09</ele>
        <time>2021-07-23T11:46:11.919Z</time>
      </trkpt>
      <trkpt lat="46.80108" lon="9.23108">
        <ele>1216.76</ele>
        <time>2021-07-23T11:46:14.016Z</time>
      </trkpt>
      <trkpt lat="46.80107" lon="9.23108">
        <ele>1216.73</ele>
        <time>2021-07-23T11:46:14.360Z</time>
      </trkpt>
      <trkpt lat="46.80107" lon="9.23109">
        <ele>1216.6600000335</ele>
        <time>2021-07-23T11:46:14.546Z</time>
      </trkpt>
      <trkpt lat="46.80103" lon="9.23117">
        <ele>1216.32</ele>
        <time>2021-07-23T11:46:16.473Z</time>
      </trkpt>
      <trkpt lat="46.80099" lon="9.23126">
        <ele>1215.91</ele>
        <time>2021-07-23T11:46:18.462Z</time>
      </trkpt>
      <trkpt lat="46.80079" lon="9.23162">
        <ele>1214.11</ele>
        <time>2021-07-23T11:46:26.993Z</time>
      </trkpt>
      <trkpt lat="46.80074" lon="9.23169">
        <ele>1213.7699999819</ele>
        <time>2021-07-23T11:46:28.978Z</time>
      </trkpt>
      <trkpt lat="46.80071" lon="9.23173">
        <ele>1213.62</ele>
        <time>2021-07-23T11:46:30.281Z</time>
      </trkpt>
      <trkpt lat="46.80069" lon="9.23176">
        <ele>1213.48</ele>
        <time>2021-07-23T11:46:31.105Z</time>
      </trkpt>
      <trkpt lat="46.80067" lon="9.2318">
        <ele>1213.2900000194</ele>
        <time>2021-07-23T11:46:32.021Z</time>
      </trkpt>
      <trkpt lat="46.80065" lon="9.23184">
        <ele>1213.0800000077</ele>
        <time>2021-07-23T11:46:32.895Z</time>
      </trkpt>
      <trkpt lat="46.80061" lon="9.23193">
        <ele>1212.63</ele>
        <time>2021-07-23T11:46:34.799Z</time>
      </trkpt>
      <trkpt lat="46.8006" lon="9.23197">
        <ele>1212.4899999826</ele>
        <time>2021-07-23T11:46:35.642Z</time>
      </trkpt>
      <trkpt lat="46.80059" lon="9.23201">
        <ele>1212.3700000037</ele>
        <time>2021-07-23T11:46:36.540Z</time>
      </trkpt>
      <trkpt lat="46.80058" lon="9.23206">
        <ele>1212.21</ele>
        <time>2021-07-23T11:46:37.602Z</time>
      </trkpt>
      <trkpt lat="46.80059" lon="9.23206">
        <ele>1212.21</ele>
        <time>2021-07-23T11:46:38.505Z</time>
      </trkpt>
    </trkseg>
  </trk>
</gpx>